[[{"header":{"parameterUnit":"m.s-1","parameterCategory":1,"la1":31.0,"la2":29.5877,"lo1":-88.7671,"lo2":-86.6584,"dy":0.0162,"dx":0.0185,"nx":115,"ny":88,"refTime":"2023-03-18T12:00:00:Z","depth":0,"parameterNumber":2,"parameterNumberName":"U-component_of_WINDS"},"data":[0.0,0.0,0.0,0.0,0.0,0.0,0.0,0.0,0.0,0.0,0.0,0.0,0.0,0.0,0.0,0.0,0.0,0.0,0.0,0.0,0.0,0.0,0.0,0.0,0.0,0.0,0.0,0.0,0.0,0.0,0.0,0.0,0.0,0.0,0.0,0.0,0.0,0.0,0.0,0.0,0.0,0.0,0.0,0.0,0.0,0.0,0.0,0.0,0.0,0.0,0.0,0.0,0.0,0.0,0.0,0.0,0.0,0.0,0.0,0.0,0.0,0.0,0.0,0.0,0.0,0.0,0.0,0.0,0.0,0.0,0.0,0.0,0.0,0.0,0.0,0.0,0.0,0.0,0.0,0.0,0.0,0.0,0.0,0.0,0.0,0.0,0.0,0.0,0.0,0.0,0.0,0.0,0.0,0.0,0.0,0.0,0.0,0.0,0.0,0.0,0.0,0.0,0.0,0.0,0.0,0.0,0.0,0.0,0.0,0.0,0.0,0.0,0.0,0.0,0.0,0.0,0.0,0.0,0.0,0.0,0.0,0.0,0.0,0.0,0.0,0.0,0.0,0.0,0.0,0.0,0.0,0.0,0.0,0.0,0.0,0.0,0.0,0.0,0.0,0.0,0.0,0.0,0.0,0.0,0.0,0.0,0.0,0.0,0.0,0.0,0.0,0.0,0.0,0.0,0.0,0.0,0.0,0.0,0.0,0.0,0.0,0.0,0.0,0.0,0.0,0.0,0.0,0.0,0.0,0.0,0.0,0.0,0.0,0.0,0.0,0.0,0.0,0.0,0.0,0.0,0.0,0.0,0.0,0.0,0.0,0.0,0.0,0.0,0.0,0.0,0.0,0.0,0.0,0.0,0.0,0.0,0.0,0.0,0.0,0.0,0.0,0.0,0.0,0.0,0.0,0.0,0.0,0.0,0.0,0.0,0.0,0.0,0.0,0.0,0.0,0.0,0.0,0.0,0.0,0.0,0.0,0.0,0.0,0.0,0.0,0.0,0.0,0.0,0.0,0.0,0.0,0.0,0.0,0.0,0.0,0.0,0.0,0.0,0.0,0.0,0.0,0.0,0.0,0.0,0.0,0.0,0.0,0.0,0.0,0.0,0.0,0.0,0.0,0.0,0.0,0.0,0.0,0.0,0.0,0.0,0.0,0.0,0.0,0.0,0.0,0.0,0.0,0.0,0.0,0.0,0.0,0.0,0.0,0.0,0.0,0.0,0.0,0.0,0.0,0.0,0.0,0.0,0.0,0.0,0.0,0.0,0.0,0.0,0.0,0.0,0.0,0.0,0.0,0.0,0.0,0.0,0.0,0.0,0.0,0.0,0.0,0.0,0.0,0.0,0.0,0.0,0.0,0.0,0.0,0.0,0.0,0.0,0.0,0.0,0.0,0.0,0.0,0.0,0.0,0.0,0.0,0.0,0.0,0.0,0.0,0.0,0.0,0.0,0.0,0.0,0.0,0.0,0.0,0.0,0.0,0.0,0.0,0.0,0.0,0.0,0.0,0.0,0.0,0.0,0.0,0.0,0.0,0.0,0.0,0.0,0.0,0.0,0.0,0.0,0.0,0.0,0.0,0.0,0.0,0.0,0.0,0.0,0.0,0.0,0.0,0.0,0.0,0.0,0.0,0.0,0.0,0.0,0.0,0.0,0.0,0.0,0.0,0.0,0.0,0.0,0.0,0.0,0.0,0.0,0.0,0.0,0.0,0.0,0.0,0.0,0.0,0.0,0.0,0.0,0.0,0.0,0.0,0.0,0.0,0.0,0.0,0.0,0.0,0.0,0.0,0.0,0.0,0.0,0.0,0.0,0.0,0.0,0.0,0.0,0.0,0.0,0.0,0.0,0.0,0.0,0.0,0.0,0.0,0.0,0.0,0.0,0.0,0.0,0.0,0.0,0.0,0.0,0.0,0.0,0.0,0.0,0.0,0.0,0.0,0.0,0.0,0.0,0.0,0.0,0.0,0.0,0.0,0.0,0.0,0.0,0.0,0.0,0.0,0.0,0.0,0.0,0.0,0.0,0.0,0.0,0.0,0.0,0.0,0.0,0.0,0.0,0.0,0.0,0.0,0.0,0.0,0.0,0.0,0.0,0.0,0.0,0.0,0.0,0.0,0.0,0.0,0.0,0.0,0.0,0.0,0.0,0.0,0.0,0.0,0.0,0.0,0.0,0.0,0.0,0.0,0.0,0.0,0.0,0.0,0.0,0.0,0.0,0.0,0.0,0.0,0.0,0.0,0.0,0.0,0.0,0.0,0.0,0.0,0.0,0.0,0.0,0.0,0.0,0.0,0.0,0.0,0.0,0.0,0.0,0.0,0.0,0.0,0.0,0.0,0.0,0.0,0.0,0.0,0.0,0.0,0.0,0.0,0.0,0.0,0.0,0.0,0.0,0.0,0.0,0.0,0.0,0.0,0.0,0.0,0.0,0.0,0.0,0.0,0.0,0.0,0.0,0.0,0.0,0.0,0.0,0.0,0.0,0.0,0.0,0.0,0.0,0.0,0.0,0.0,0.0,0.0,0.0,0.0,0.0,0.0,0.0,0.0,0.0,0.0,0.0,0.0,0.0,0.0,0.0,0.0,0.0,0.0,0.0,0.0,0.0,0.0,0.0,0.0,0.0,0.0,0.0,0.0,0.0,0.0,0.0,0.0,0.0,0.0,0.0,0.0,0.0,0.0,0.0,0.0,0.0,0.0,0.0,0.0,0.0,0.0,0.0,0.0,0.0,0.0,0.0,0.0,0.0,0.0,0.0,0.0,0.0,0.0,0.0,0.0,0.0,0.0,0.0,0.0,0.0,0.0,0.0,0.0,0.0,0.0,0.0,0.0,0.0,0.0,0.0,0.0,0.0,0.0,0.0,0.0,0.0,0.0,0.0,0.0,0.0,0.0,0.0,0.0,0.0,0.0,0.0,0.0,0.0,0.0,0.0,0.0,0.0,0.0,0.0,0.0,0.0,0.0,0.0,0.0,0.0,0.0,0.0,0.0,0.0,0.0,0.0,0.0,0.0,0.0,0.0,0.0,0.0,0.0,0.0,0.0,0.0,0.0,0.0,0.0,0.0,0.0,0.0,0.0,0.0,0.0,0.0,0.0,0.0,0.0,0.0,0.0,0.0,0.0,0.0,0.0,0.0,0.0,0.0,0.0,0.0,0.0,0.0,0.0,0.0,0.0,0.0,0.0,0.0,0.0,0.0,0.0,0.0,0.0,0.0,0.0,0.0,0.0,0.0,0.0,0.0,0.0,0.0,0.0,0.0,0.0,0.0,0.0,0.0,0.0,0.0,0.0,0.0,0.0,0.0,0.0,0.0,0.0,0.0,0.0,0.0,0.0,0.0,0.0,0.0,0.0,0.0,0.0,0.0,0.0,0.0,0.0,0.0,0.0,0.0,0.0,0.0,0.0,0.0,0.0,0.0,0.0,0.0,0.0,0.0,0.0,0.0,0.0,0.0,0.0,0.0,0.0,0.0,0.0,0.0,0.0,0.0,0.0,0.0,0.0,0.0,0.0,0.0,0.0,0.0,0.0,0.0,0.0,0.0,0.0,0.0,0.0,0.0,0.0,0.0,0.0,0.0,0.0,0.0,0.0,0.0,0.0,0.0,0.0,0.0,0.0,0.0,0.0,0.0,0.0,0.0,0.0,0.0,0.0,0.0,0.0,0.0,0.0,0.0,0.0,0.0,0.0,0.0,0.0,0.0,0.0,0.0,0.0,0.0,0.0,0.0,0.0,0.0,0.0,0.0,0.0,0.0,0.0,0.0,0.0,0.0,0.0,0.0,0.0,0.0,0.0,0.0,0.0,0.0,0.0,0.0,0.0,0.0,0.0,0.0,0.0,0.0,0.0,0.0,0.0,0.0,0.0,0.0,0.0,0.0,0.0,0.0,0.0,0.0,0.0,0.0,0.0,0.0,0.0,0.0,0.0,0.0,0.0,0.0,0.0,0.0,0.0,0.0,0.0,0.0,0.0,0.0,0.0,0.0,0.0,0.0,0.0,0.0,0.0,0.0,0.0,0.0,0.0,0.0,0.0,0.0,0.0,0.0,0.0,0.0,0.0,0.0,0.0,0.0,0.0,0.0,0.0,0.0,0.0,0.0,0.0,0.0,0.0,0.0,0.0,0.0,0.0,0.0,0.0,0.0,0.0,0.0,0.0,0.0,0.0,0.0,0.0,0.0,0.0,0.0,0.0,0.0,0.0,0.0,0.0,0.0,0.0,0.0,0.0,0.0,0.0,0.0,0.0,0.0,0.0,0.0,0.0,0.0,0.4582,0.0,0.0,0.0,0.0,0.0,0.0,0.0,0.0,0.0,0.0,0.0,0.0,0.0,0.0,0.0,0.0,0.0,0.0,0.0,0.0,0.0,0.0,0.0,0.0,0.0,0.0,0.0,0.0,0.0,0.0,0.0,0.0,0.0,0.0,0.0,0.0,0.0,0.0,0.0,0.0,0.0,0.0,0.0,0.0,0.0,0.0,0.0,0.0,0.0,0.0,0.0,0.0,0.0,0.0,0.0,0.0,0.0,0.0,0.0,0.0,0.0,0.0,0.0,0.0,0.0,0.0,0.0,0.0,0.0,0.0,0.0,0.0,0.0,0.0,0.0,0.0,0.0,0.0,0.0,0.0,0.0,0.0,0.0,0.0,0.0,0.0,0.0,0.0,0.0,0.0,0.0,0.0,0.0,0.0,0.0,0.0,0.0,0.0,0.0,0.0,0.0,0.0,0.0,0.0,0.0,0.0,0.0,0.0,0.0,0.0,0.4303,0.4303,0.4377,0.4492,0.4681,0.0,0.0,0.0,0.0,0.0,0.0,0.0,0.0,0.0,0.0,0.0,0.0,0.0,0.0,0.0,0.0,0.0,0.0,0.0,0.0,0.0,0.0,0.0,0.0,0.0,0.0,0.0,0.0,0.0,0.0,0.0,0.0,0.0,0.0,0.0,0.0,0.0,0.0,0.0,0.0,0.0,0.0,0.0,0.0,0.0,0.0,0.0,0.0,0.0,0.0,0.0,0.0,0.0,0.0,0.0,0.0,0.0,0.0,0.0,0.0,0.0,0.0,0.0,0.0,0.0,0.0,0.0,0.0,0.0,0.0,0.0,0.0,0.0,0.0,0.0,0.0,0.0,0.0,0.0,0.0,0.0,0.0,0.0,0.0,0.0,0.0,0.0,0.0,0.0,0.0,0.0,0.0,0.0,0.0,0.0,0.0,0.0,0.0,0.0,0.0,0.0,0.0,0.0,0.0,0.0,0.0,0.0,0.0,0.0,0.0,0.0,0.0,0.4442,0.4495,0.4505,0.0,0.0,0.0,0.0,0.0,0.0,0.0,0.0,0.0,0.0,0.0,0.0,0.0,0.0,0.0,0.0,0.0,0.0,0.0,0.0,0.0,0.0,0.0,0.0,0.0,0.0,0.0,0.0,0.0,0.0,0.0,0.0,0.0,0.0,0.0,0.0,0.0,0.0,0.0,0.0,0.0,0.0,0.0,0.0,0.0,0.0,0.0,0.0,0.0,0.0,0.0,0.0,0.0,0.0,0.0,0.0,0.0,0.0,0.0,0.0,0.0,0.0,0.0,0.0,0.0,0.0,0.0,0.0,0.0,0.0,0.0,0.0,0.0,0.0,0.0,0.0,0.0,0.0,0.0,0.0,0.0,0.0,0.0,0.0,0.0,0.0,0.0,0.0,0.0,0.0,0.0,0.0,0.0,0.0,0.0,0.0,0.0,0.0,0.0,0.0,0.0,0.0,0.0,0.0,0.0,0.0,0.0,0.0,0.0,0.0,0.4349,0.4467,0.4498,0.0,0.4001,0.0,0.0,0.0,0.0,0.0,0.0,0.0,0.0,0.0,0.0,0.0,0.0,0.0,0.0,0.0,0.0,0.0,0.0,0.0,0.0,0.0,0.0,0.0,0.0,0.0,0.0,0.0,0.0,0.0,0.0,0.0,0.0,0.0,0.0,0.0,0.0,0.0,0.0,0.0,0.0,0.0,0.0,0.0,0.0,0.0,0.0,0.0,0.0,0.0,0.0,0.0,0.0,0.0,0.0,0.0,0.0,0.0,0.0,0.0,0.0,0.0,0.0,0.0,0.0,0.0,0.0,0.0,0.0,0.0,0.0,0.0,0.0,0.0,0.0,0.0,0.0,0.0,0.0,0.0,0.0,0.0,0.0,0.0,0.0,0.0,0.0,0.0,0.0,0.0,0.0,0.0,0.0,0.0,0.0,0.0,0.0,0.0,0.0,0.0,0.0,0.0,0.0,0.0,0.0,0.0,0.0,0.0,0.0,0.0,0.0,0.4371,0.4486,0.4628,0.4595,0.0,0.0,0.0,0.0,0.0,0.0,0.0,0.0,0.0,0.0,0.0,0.0,0.0,0.0,0.0,0.0,0.0,0.0,0.0,0.0,0.0,0.0,0.0,0.0,0.0,0.0,0.0,0.0,0.0,0.0,0.0,0.0,0.0,0.0,0.0,0.0,0.0,0.0,0.0,0.0,0.0,0.0,0.0,0.0,0.0,0.0,0.0,0.0,0.0,0.0,0.0,0.0,0.0,0.0,0.0,0.0,0.0,0.0,0.0,0.0,0.0,0.0,0.0,0.0,0.0,0.0,0.0,0.0,0.0,0.0,0.0,0.0,0.0,0.0,0.0,0.0,0.0,0.0,0.0,0.0,0.0,0.0,0.0,0.0,0.0,0.0,0.0,0.0,0.0,0.0,0.0,0.0,0.0,0.0,0.0,0.0,0.0,0.0,0.0,0.0,0.0,0.0,0.0,0.0,0.0,0.0,0.0,0.0,0.0,0.0,0.438,0.442,0.4582,0.4675,0.4749,0.4763,0.0,0.0,0.0,0.0,0.0,0.0,0.0,0.0,0.0,0.0,0.0,0.0,0.0,0.0,0.0,0.0,0.0,0.0,0.0,0.0,0.0,0.0,0.0,0.0,0.0,0.0,0.0,0.0,0.0,0.0,0.0,0.0,0.0,0.0,0.0,0.0,0.0,0.0,0.0,0.0,0.0,0.0,0.0,0.0,0.0,0.0,0.0,0.0,0.0,0.0,0.0,0.0,0.0,0.0,0.0,0.0,0.0,0.0,0.0,0.0,0.0,0.0,0.0,0.0,0.0,0.0,0.0,0.0,0.0,0.0,0.0,0.0,0.0,0.0,0.0,0.0,0.0,0.0,0.0,0.0,0.0,0.0,0.0,0.0,0.0,0.0,0.0,0.0,0.0,0.0,0.0,0.0,0.0,0.0,0.0,0.0,0.0,0.0,0.0,0.0,0.0,0.0,0.0,0.0,0.0,0.0,0.0,0.0,0.4669,0.457,0.4593,0.4798,0.462,0.4577,0.0,0.0,0.0,0.0,0.0,0.0,0.0,0.0,0.0,0.0,0.0,0.0,0.0,0.0,0.0,0.0,0.0,0.0,0.0,0.0,0.0,0.0,0.0,0.0,0.0,0.0,0.0,0.0,0.0,0.0,0.0,0.0,0.0,0.0,0.0,0.0,0.0,0.0,0.0,0.0,0.0,0.0,0.0,0.0,0.0,0.0,0.0,0.0,0.0,0.0,0.0,0.0,0.0,0.0,0.0,0.0,0.0,0.0,0.0,0.0,0.0,0.0,0.0,0.0,0.0,0.0,0.0,0.0,0.0,0.0,0.0,0.0,0.0,0.0,0.0,0.0,0.0,0.0,0.0,0.0,0.0,0.0,0.0,0.0,0.0,0.0,0.0,0.0,0.0,0.0,0.0,0.0,0.0,0.0,0.0,0.0,0.0,0.0,0.0,0.0,0.0,0.0,0.0,0.0,0.0,0.0,0.0,0.0,0.0,0.4979,0.5329,0.5618,0.5801,0.5431,0.5225,0.0,0.0,0.0,0.0,0.0,0.0,0.0,0.0,0.0,0.0,0.0,0.0,0.0,0.0,0.0,0.0,0.0,0.0,0.0,0.0,0.0,0.0,0.0,0.0,0.0,0.0,0.0,0.0,0.0,0.0,0.0,0.0,0.0,0.0,0.0,0.0,0.0,0.0,0.0,0.0,0.0,0.0,0.0,0.0,0.0,0.0,0.0,0.0,0.0,0.0,0.0,0.0,0.0,0.0,0.0,0.0,0.0,0.0,0.0,0.0,0.0,0.0,0.0,0.0,0.0,0.0,0.0,0.0,0.0,0.0,0.0,0.0,0.0,0.0,0.0,0.0,0.0,0.0,0.0,0.0,0.0,0.0,0.0,0.0,0.0,0.0,0.0,0.0,0.0,0.0,0.0,0.0,0.0,0.0,0.0,0.0,0.0,0.0,0.0,0.0,0.0,0.0,0.0,0.0,0.0,0.0,0.0,0.0,0.0,0.5195,0.0,0.579,0.6172,0.5697,0.5512,0.0,0.0,0.0,0.0,0.0,0.0,0.0,0.0,0.0,0.0,0.0,0.0,0.0,0.0,0.0,0.0,0.0,0.0,0.0,0.0,0.0,0.0,0.0,0.0,0.0,0.0,0.0,0.0,0.0,0.0,0.0,0.0,0.0,0.0,0.0,0.0,0.0,0.0,0.0,0.0,0.0,0.0,0.0,0.0,0.0,0.0,0.0,0.0,0.0,0.0,0.0,0.0,0.0,0.0,0.0,0.0,0.0,0.0,0.0,0.0,0.0,0.0,0.0,0.0,0.0,0.0,0.0,0.0,0.0,0.0,0.0,0.0,0.0,0.0,0.0,0.0,0.0,0.0,0.0,0.0,0.0,0.0,0.0,0.0,0.0,0.0,0.0,0.0,0.0,0.0,0.0,0.0,0.0,0.0,0.0,0.0,0.0,0.0,0.0,0.0,0.0,0.0,0.0,0.0,0.0,0.0,0.0,0.0,0.5728,0.5342,0.4885,0.5095,0.5777,0.5415,0.5303,0.0,0.0,0.0,0.0,0.0,0.0,0.0,0.0,0.0,0.0,0.0,0.0,0.0,0.0,0.0,0.0,0.0,0.0,0.0,0.0,0.0,0.0,0.0,0.0,0.0,0.0,0.0,0.0,0.0,0.0,0.0,0.0,0.0,0.0,0.0,0.0,0.0,0.0,0.0,0.0,0.0,0.0,0.0,0.0,0.0,0.0,0.0,0.0,0.0,0.0,0.0,0.0,0.0,0.0,0.0,0.0,0.0,0.0,0.0,0.0,0.0,0.0,0.0,0.0,0.0,0.0,0.0,0.0,0.0,0.0,0.0,0.0,0.0,0.0,0.0,0.0,0.0,0.0,0.0,0.0,0.0,0.0,0.0,0.0,0.0,0.0,0.0,0.0,0.0,0.0,0.0,0.0,0.0,0.0,0.0,0.0,0.0,0.0,0.0,0.0,0.0,0.0,0.0,0.0,0.0,0.0,0.0,0.0,0.0,0.6822,0.6797,0.6635,0.636,0.6355,0.6101,0.0,0.0,0.0,0.0,0.0,0.0,0.0,0.0,0.0,0.0,0.0,0.0,0.0,0.0,0.0,0.0,0.0,0.0,0.0,0.0,0.0,0.0,0.0,0.0,0.0,0.0,0.0,0.0,0.0,0.0,0.0,0.0,0.0,0.0,0.0,0.0,0.0,0.0,0.0,0.0,0.0,0.0,0.0,0.0,0.0,0.0,0.0,0.0,0.0,0.0,0.0,0.0,0.0,0.0,0.0,0.0,0.0,0.0,0.0,0.0,0.0,0.0,0.0,0.0,0.0,0.0,0.0,0.0,0.0,0.0,0.0,0.0,0.0,0.0,0.0,0.0,0.0,0.0,0.0,0.0,0.0,0.0,0.0,0.0,0.0,0.0,0.0,0.0,0.0,0.0,0.0,0.0,0.0,0.0,0.0,0.0,0.0,0.0,0.0,0.0,0.0,0.0,0.0,0.0,0.0,0.0,0.0,0.0,0.0,0.7815,0.7501,0.7217,0.6988,0.7017,0.6675,0.5862,0.0,0.0,0.0,0.0,0.0,0.0,0.0,0.0,0.0,0.0,0.0,0.0,0.0,0.0,0.0,0.0,0.0,0.0,0.0,0.0,0.0,0.0,0.0,0.0,0.0,0.0,0.0,0.0,0.0,0.0,0.0,0.0,0.0,0.0,0.0,0.0,0.0,0.0,0.0,0.0,0.0,0.0,0.0,0.0,0.0,0.0,0.0,0.0,0.0,0.0,0.0,0.0,0.0,0.0,0.0,0.0,0.0,0.0,0.0,0.0,0.0,0.0,0.0,0.0,0.0,0.0,0.0,0.0,0.0,0.0,0.0,0.0,0.0,0.0,0.0,0.0,0.0,0.0,0.0,0.0,0.0,0.0,0.0,0.0,0.0,0.0,0.0,0.0,0.0,0.0,0.0,0.0,0.0,0.0,0.0,0.0,0.0,0.0,0.0,0.0,0.0,0.0,0.0,0.0,0.0,0.0,0.0,0.0,0.8402,0.7293,0.7031,0.7586,0.745,0.7015,0.0,0.0,0.0,0.0,0.0,0.0,0.0,0.0,0.0,0.0,0.0,0.0,0.0,0.0,0.0,0.0,0.0,0.0,0.0,0.0,0.0,0.0,0.0,0.0,0.0,0.0,0.0,0.0,0.0,0.0,0.0,0.0,0.0,0.0,0.0,0.0,0.0,0.0,0.0,0.0,0.0,0.0,0.0,0.0,0.0,0.0,0.0,0.0,0.0,0.0,0.0,0.0,0.0,0.0,0.0,0.0,0.0,0.0,0.0,0.0,0.0,0.0,0.0,0.0,0.0,0.0,0.0,0.0,0.0,0.0,0.0,0.0,0.0,0.0,0.0,0.0,0.0,0.0,0.0,0.0,0.0,0.0,0.0,0.0,0.0,0.0,0.0,0.0,0.0,0.0,0.0,0.0,0.0,0.0,0.0,0.0,0.0,0.0,0.0,0.0,0.0,0.0,0.0,0.0,0.0,0.0,0.0,0.0,0.0,0.8409,0.8842,0.8665,0.7861,0.8015,0.7778,0.0,0.0,0.0,0.0,0.0,0.0,0.0,0.0,0.0,0.0,0.0,0.0,0.0,0.0,0.0,0.0,0.0,0.0,0.0,0.0,0.0,0.0,0.0,0.0,0.0,0.0,0.0,0.0,0.0,0.0,0.0,0.0,0.0,0.0,0.0,0.0,0.0,0.0,0.0,0.0,0.0,0.0,0.0,0.0,0.0,0.0,0.0,0.0,0.0,0.0,0.0,0.0,0.0,0.0,0.0,0.0,0.0,0.0,0.0,0.0,0.0,0.0,0.0,0.0,0.0,0.0,0.0,0.0,0.0,0.0,0.0,0.0,0.0,0.0,0.0,0.0,0.0,0.0,0.0,0.0,0.0,0.0,0.0,0.0,0.0,0.0,0.0,0.0,0.0,0.0,0.0,0.0,0.0,0.0,0.0,0.0,0.0,0.0,0.0,0.0,0.0,0.0,0.0,0.0,0.0,0.0,0.0,0.0,0.8657,0.8743,0.9587,0.966,0.8847,0.899,0.8633,0.0,0.0,0.0,0.0,0.0,0.0,0.0,0.0,0.0,0.0,0.0,0.0,0.0,0.0,0.0,0.0,0.0,0.0,0.0,0.0,0.0,0.0,0.0,0.0,0.0,0.0,0.0,0.0,0.0,0.0,0.0,0.0,0.0,0.0,0.0,0.0,0.0,0.0,0.0,0.0,0.0,0.0,0.0,0.0,0.0,0.0,0.0,0.0,0.0,0.0,0.0,0.0,0.0,0.0,0.0,0.0,0.0,0.0,0.0,0.0,0.0,0.0,0.0,0.0,0.0,0.0,0.0,0.0,0.0,0.0,0.0,0.0,0.0,0.0,0.0,0.0,0.0,0.0,0.0,0.0,0.0,0.0,0.0,0.0,0.0,0.0,0.0,0.0,0.0,0.0,0.0,0.0,0.0,0.0,0.0,0.0,0.0,0.0,0.0,0.0,0.0,0.0,0.0,0.0,0.0,0.0,0.0,0.0,0.8963,0.9204,0.9802,1.0123,1.0103,1.0012,0.9443,0.0,0.0,0.0,0.0,0.0,0.0,0.0,0.0,0.0,0.0,0.0,0.0,0.0,0.0,0.0,0.0,0.0,0.0,0.0,0.0,0.0,0.0,0.0,0.0,0.0,0.0,0.0,0.0,0.0,0.0,0.0,0.0,0.0,0.0,0.0,0.0,0.0,0.0,0.0,0.0,0.0,0.0,0.0,0.0,0.0,0.0,0.0,0.0,0.0,0.0,0.0,0.0,0.0,0.0,0.0,0.0,0.0,0.0,0.0,0.0,0.0,0.0,0.0,0.0,0.0,0.0,0.0,0.0,0.0,0.0,0.0,0.0,0.0,0.0,0.0,0.0,0.0,0.0,0.0,0.0,0.0,0.0,0.0,0.0,0.0,0.0,0.0,0.0,0.0,0.0,0.0,0.0,0.0,0.0,0.0,0.0,0.0,0.0,0.0,0.0,0.0,0.0,0.0,0.0,0.0,0.0,0.0,0.0,0.8871,0.9104,0.9916,1.0307,1.0259,0.9826,0.9584,0.0,0.0,0.0,0.0,0.0,0.0,0.0,0.0,0.0,0.0,0.0,0.0,0.0,0.0,0.0,0.0,0.0,0.0,0.0,0.0,0.0,0.0,0.0,0.0,0.0,0.0,0.0,0.0,0.0,0.0,0.0,0.0,0.0,0.0,0.0,0.0,0.0,0.0,0.0,0.0,0.0,0.0,0.0,0.0,0.0,0.0,0.0,0.0,0.7555,0.0,0.0,0.0,0.0,0.0,0.0,0.0,0.0,0.0,0.0,0.0,0.0,0.0,0.0,0.0,0.0,0.0,0.0,0.0,0.0,0.0,0.0,0.0,0.0,0.0,0.0,0.0,0.0,0.0,0.0,0.0,0.0,0.0,0.0,0.0,0.0,0.0,0.0,0.0,0.0,0.0,0.0,0.0,0.0,0.0,0.0,0.0,0.0,0.0,0.0,0.0,0.0,0.0,0.0,0.0,0.0,0.0,0.0,0.0,0.8915,0.9249,0.9754,0.9995,0.9954,0.9694,0.9647,0.0,0.0,0.0,0.0,0.0,0.0,0.0,0.0,0.0,0.0,0.0,0.0,0.0,0.0,0.0,0.0,0.0,0.0,0.0,0.0,0.0,0.0,0.0,0.0,0.0,0.0,0.0,0.0,0.0,0.0,0.0,0.0,0.0,0.0,0.0,0.0,0.0,0.0,0.0,0.0,0.0,0.0,0.0,0.0,0.0,0.0,0.0,0.0,0.0,0.0,0.0,0.0,0.0,0.0,0.0,0.0,0.0,0.0,0.0,0.0,0.0,0.0,0.0,0.0,0.0,0.0,0.0,0.0,0.0,0.0,0.0,0.0,0.0,0.0,0.0,0.0,0.0,0.0,0.0,0.0,0.0,0.0,0.0,0.0,0.0,0.0,0.0,0.0,0.0,0.0,0.0,0.0,0.0,0.0,0.0,0.0,0.0,0.0,0.0,0.0,0.0,0.0,0.0,0.0,0.0,0.0,0.0,0.8615,0.8968,0.9433,0.9563,0.9616,0.964,0.9665,0.97,0.9786,0.0,0.0,0.0,0.0,0.0,0.0,0.0,0.0,0.0,0.0,0.0,0.0,0.0,0.0,0.0,0.0,0.0,0.0,0.0,0.0,0.0,0.0,0.0,0.0,0.0,0.0,0.0,0.0,0.0,0.0,0.0,0.0,0.0,0.0,0.0,0.0,0.0,0.0,0.7338,0.7528,0.0,0.0,0.0,0.0,0.0,0.0,0.0,0.0,0.9277,0.0,0.0,0.0,0.0,0.0,0.0,0.0,0.0,0.0,0.0,0.0,0.0,0.0,0.0,0.0,0.0,0.0,0.0,0.0,0.0,0.0,0.0,0.0,0.0,0.0,0.0,0.0,0.0,0.0,0.0,0.0,0.0,0.0,0.0,0.0,0.0,0.0,0.0,0.0,0.0,0.0,0.0,0.0,0.0,0.0,0.0,0.0,0.0,0.0,0.0,0.0,0.0,0.0,0.0,0.0,0.0,0.9026,0.8619,0.8835,0.9787,0.966,0.9672,0.9852,0.99,0.9752,0.9349,0.0,0.0,0.0,0.0,0.0,0.0,0.0,0.0,0.0,0.0,0.0,0.0,0.0,0.0,0.0,0.0,0.0,0.0,0.0,0.0,0.0,0.0,0.0,0.0,0.0,0.0,0.0,0.0,0.0,0.0,0.0,0.0,0.0,0.0,0.0,0.0,0.0,0.0,0.0,0.9415,0.975,0.0,0.0,0.0,0.0,0.0,0.0,0.0,0.0,0.9884,0.0,0.0,0.0,0.0,0.0,0.0,0.0,0.0,0.0,0.0,0.0,0.0,0.0,0.0,0.0,0.0,0.0,0.0,0.0,0.0,0.0,0.0,0.0,0.0,0.0,0.0,0.0,0.0,0.0,0.0,0.0,0.0,0.0,0.0,0.0,0.0,0.0,0.0,0.0,0.0,0.0,0.0,0.0,0.0,0.0,0.0,0.0,0.0,0.0,0.0,0.0,0.0,0.0,0.0,0.0,0.8784,0.8757,0.9054,0.9717,0.9644,0.964,0.9717,0.9612,0.9473,0.0,0.0,0.0,0.0,0.0,0.0,0.0,0.0,0.0,0.0,0.0,0.0,0.0,0.0,0.0,0.0,0.0,0.0,0.0,0.0,0.0,0.0,0.0,0.0,0.0,0.0,0.0,0.0,0.0,0.0,0.0,0.0,0.0,0.0,0.0,0.0,0.0,0.0,0.0,0.0,0.9587,0.9818,0.9929,0.0,0.0,0.0,0.0,0.0,0.0,0.9892,0.9999,0.0,0.0,0.0,0.0,0.0,0.0,0.0,0.0,0.0,0.0,0.0,0.0,0.0,0.0,0.0,0.0,0.0,0.0,0.0,0.0,0.0,0.0,0.0,0.0,0.0,0.0,0.0,0.0,0.0,0.0,0.0,0.0,0.0,0.0,0.0,0.0,0.0,0.0,0.0,0.0,0.0,0.0,0.0,0.0,0.0,0.0,0.0,0.0,0.0,0.0,0.0,0.0,0.0,0.0,0.0,0.8532,0.8926,0.9295,0.9587,0.9636,0.964,0.9599,0.9352,0.927,0.0,0.0,0.0,0.0,0.0,0.0,0.0,0.0,0.0,0.0,0.0,0.0,0.0,0.0,0.0,0.0,0.0,0.0,0.0,0.0,0.0,0.0,0.0,0.0,0.0,0.0,0.0,0.0,0.0,0.0,0.0,0.0,0.0,0.0,0.0,0.0,0.0,0.0,0.0,0.0,0.0,0.9767,0.9994,1.0119,0.0,0.0,0.0,0.0,0.979,0.9885,0.0,0.0,0.0,0.0,0.0,0.0,0.0,0.0,0.0,0.0,0.0,0.0,0.0,0.0,0.0,0.0,0.0,0.0,0.0,0.0,0.0,0.0,0.0,0.0,0.0,0.0,0.0,0.0,0.0,0.0,0.0,0.0,0.0,0.0,0.0,0.0,0.0,0.0,0.0,0.0,0.0,0.0,0.0,0.0,0.0,0.0,0.0,0.0,0.0,0.0,0.0,0.0,0.0,0.0,0.0,0.0,0.8611,0.9097,0.9433,0.9612,0.9774,0.9782,0.9607,0.9563,0.9423,0.0,0.0,0.0,0.0,0.0,0.0,0.0,0.0,0.0,0.0,0.0,0.0,0.0,0.0,0.0,0.0,0.0,0.0,0.0,0.0,0.0,0.0,0.0,0.0,0.0,0.0,0.0,0.0,0.0,0.0,0.0,0.0,0.0,0.0,0.0,0.0,0.0,0.0,0.0,0.0,0.0,1.0847,1.0483,1.0636,1.0543,0.0,0.0,1.0134,1.0056,1.0076,0.0,0.0,0.0,0.0,0.0,0.0,0.0,0.0,0.0,0.0,0.0,0.0,0.0,0.0,0.0,0.0,0.0,0.0,0.0,0.0,0.0,0.0,0.0,0.0,0.0,0.0,0.0,0.0,0.0,0.0,0.0,0.0,0.0,0.0,0.0,0.0,0.0,0.0,0.0,0.0,0.0,0.0,0.0,0.0,0.0,0.0,0.0,0.0,0.0,0.0,0.0,0.0,0.0,0.0,0.0,0.8404,0.8615,0.92,0.9588,0.9766,0.9847,0.9851,0.9749,0.9384,0.9248,0.0,0.0,0.0,0.0,0.0,0.0,0.0,0.0,0.0,0.0,0.0,0.0,0.0,0.0,0.0,0.0,0.0,0.0,0.0,0.0,0.0,0.0,0.0,0.0,0.0,0.0,0.0,0.0,0.0,0.0,0.0,0.0,0.0,0.0,0.0,0.0,0.0,0.0,0.0,0.0,0.0,0.0,1.0462,1.0587,0.0,0.0,0.0,1.0433,1.0448,0.0,0.0,0.0,0.0,0.0,0.0,0.0,0.0,0.0,0.0,0.0,0.0,0.0,0.0,0.0,0.0,0.0,0.0,0.0,0.0,0.0,0.0,0.0,0.0,0.0,0.0,0.0,0.0,0.0,0.0,0.0,0.0,0.0,0.0,0.0,0.0,0.0,0.0,0.0,0.0,0.0,0.0,0.0,0.0,0.0,0.0,0.0,0.0,0.0,0.0,0.0,0.0,0.0,0.0,0.0,0.0,0.0,0.8668,0.9375,0.9803,0.9884,0.9933,0.9958,0.9876,0.9279,0.0,0.0,0.0,0.0,0.0,0.0,0.0,0.0,0.0,0.0,0.0,0.0,0.0,0.0,0.0,0.0,0.0,0.0,0.0,0.0,0.0,0.0,0.0,0.0,0.0,0.0,0.0,0.9203,0.0,0.0,0.0,0.0,0.0,0.0,0.0,0.0,0.0,0.0,0.0,0.0,0.0,0.0,1.0422,1.0374,1.0467,1.0469,0.0,0.0,1.0505,1.0505,1.048,1.045,0.0,0.0,0.0,0.0,0.0,0.0,0.0,0.0,0.0,0.0,0.0,0.0,0.0,0.0,0.0,0.0,0.0,0.0,0.0,0.0,0.0,0.0,0.0,0.0,0.0,0.0,0.0,0.0,0.0,0.0,0.0,0.0,0.0,0.0,0.0,0.0,0.0,0.0,0.0,0.0,0.0,0.0,0.0,0.0,0.0,0.0,0.0,0.0,0.0,0.0,0.0,0.0,0.0,0.0,0.0,0.8808,0.9693,1.0072,0.9926,1.008,1.0088,0.9909,0.9563,0.9365,0.0,0.0,0.0,0.0,0.0,0.0,0.0,0.0,0.0,0.0,0.0,0.0,0.0,0.0,0.0,0.0,0.0,0.0,0.0,0.0,0.0,0.0,0.0,0.0,0.0,0.0,0.0,0.0,0.0,0.0,0.0,0.0,0.0,0.0,0.0,0.0,0.0,0.0,0.0,0.0,0.0,1.086,1.0386,1.0504,1.0569,0.0,0.0,1.023,0.9989,1.012,1.0193,1.0057,0.0,0.0,0.0,0.0,0.0,0.0,0.0,0.0,0.0,0.0,0.0,0.0,0.0,0.0,0.0,0.0,0.0,0.0,0.0,0.0,0.0,0.0,0.0,0.0,0.0,0.0,0.0,0.0,0.0,0.0,0.0,0.0,0.0,0.0,0.0,0.0,0.0,0.0,0.0,0.0,0.0,0.0,0.0,0.0,0.0,0.0,0.0,0.0,0.0,0.0,0.0,0.0,0.0,0.8792,0.8995,0.9787,1.018,1.0221,1.0211,1.0154,1.0084,0.9624,0.939,0.0,0.0,0.0,0.0,0.0,0.0,0.0,0.0,0.0,0.0,0.0,0.0,0.0,0.0,0.0,0.0,0.0,0.0,0.0,0.0,0.0,0.0,0.0,0.0,0.0,0.0,0.0,0.0,0.9783,0.9897,1.0331,0.0,0.0,0.0,0.0,0.0,0.0,0.0,0.0,0.0,0.0,1.0578,1.0484,1.0574,0.0,0.0,1.0576,1.0623,1.0169,1.0209,1.0198,0.9826,0.9834,0.0,0.0,0.0,0.0,0.0,0.0,0.0,0.0,0.0,0.0,0.0,0.0,0.0,0.0,0.0,0.0,0.0,0.0,0.0,0.0,0.0,0.0,0.0,0.0,0.0,0.0,0.0,0.0,0.0,0.0,0.0,0.0,0.0,0.0,0.0,0.0,0.0,0.0,0.0,0.0,0.0,0.0,0.0,0.0,0.0,0.0,0.0,0.0,0.0,0.0,0.0,0.0,0.8812,0.9193,0.9877,1.0249,1.0401,1.031,1.0243,1.0178,0.9718,0.9447,0.0,0.0,0.0,0.0,0.0,0.0,0.0,0.0,0.0,0.0,0.0,0.0,0.0,0.0,0.0,0.0,0.0,0.0,0.0,0.0,0.0,0.0,0.0,0.0,0.0,0.0,0.0,0.0,1.017,1.0257,1.0548,0.0,0.0,0.0,0.0,0.0,0.0,0.0,0.0,0.0,0.0,1.0407,1.0482,1.0473,1.044,1.0361,1.0568,1.0602,1.0167,1.0229,1.0188,0.968,0.0,0.0,0.0,0.0,0.0,0.0,0.0,0.0,0.0,0.0,0.0,0.0,0.0,0.0,0.0,0.0,0.0,0.0,0.0,0.0,0.0,0.0,0.0,0.0,0.0,0.0,0.0,0.0,0.0,0.0,0.8694,0.0,0.0,0.0,0.0,0.0,0.0,0.0,0.0,0.0,0.0,0.0,0.0,0.0,0.0,0.0,0.0,0.0,0.0,0.0,0.0,0.0,0.0,0.8873,0.9396,0.9939,1.0249,1.0405,1.0405,1.0339,1.019,0.9811,0.953,0.9408,0.0,0.0,0.0,0.0,0.0,0.0,0.0,0.0,0.0,0.0,0.0,0.0,0.0,0.0,0.0,0.0,0.0,0.0,0.0,0.0,0.0,0.0,0.0,0.0,0.0,0.0,1.0584,1.0514,1.0491,0.0,0.0,0.0,0.0,0.0,0.0,0.0,0.0,0.0,0.0,1.03,1.0516,1.0238,1.0216,1.0228,1.0233,1.006,0.9938,0.9934,1.0076,1.0068,0.0,0.0,0.0,0.0,0.0,0.0,0.0,0.0,0.0,0.0,0.0,0.0,0.0,0.0,0.0,0.0,0.0,0.0,0.0,0.0,0.0,0.0,0.0,0.0,0.0,0.0,0.0,0.88,0.864,0.0,0.0,0.0,0.0,0.0,0.0,0.0,0.0,0.0,0.0,0.0,0.8795,0.867,0.0,0.0,0.0,0.0,0.0,0.0,0.0,0.0,0.0,0.0,0.0,0.0,0.9079,0.971,1.0061,1.0333,1.0567,1.0466,1.032,1.0194,0.9925,0.9677,0.9398,0.0,0.0,0.0,0.0,0.0,0.0,0.0,0.0,0.0,0.0,0.0,0.0,0.0,0.0,0.0,0.0,0.0,0.0,0.0,0.0,0.0,0.0,0.0,0.0,0.0,1.0938,0.0,0.0,0.0,0.0,0.0,0.0,0.0,0.0,0.0,0.0,0.0,0.9888,0.9889,1.0039,1.017,1.0306,1.0339,1.0383,0.0,0.0,0.0,0.0,0.0,0.0,0.0,0.0,0.0,0.0,0.0,0.0,0.0,0.0,1.0643,0.9937,0.9847,0.9888,0.9888,0.0,0.0,0.0,0.0,0.0,0.0,0.0,0.0,0.0,0.0,0.0,0.0,0.0,0.0,0.0,0.0,0.8747,0.0,0.0,0.0,0.0,0.0,0.0,0.0,0.0,0.8725,0.8854,0.8954,0.885,0.8908,0.0,0.8971,0.8788,0.0,0.0,0.0,0.0,0.0,0.0,0.0,0.0,0.9182,0.9782,1.0099,1.04,1.0672,1.0582,1.0408,1.019,0.9885,0.9616,0.9412,0.9397,0.9325,0.0,0.0,0.0,0.0,0.0,0.0,0.0,0.0,0.0,0.0,0.0,0.0,0.0,0.0,0.0,0.0,0.0,0.0,0.0,0.0,0.0,0.0,0.0,1.085,0.0,0.0,0.0,0.0,0.0,0.0,0.0,0.0,0.0,0.9929,0.976,0.9713,1.0012,1.0022,1.0091,1.0365,0.0,0.0,0.0,0.0,0.0,0.0,0.0,1.041,1.0223,1.0221,1.0345,1.0466,1.0744,1.0899,1.0899,0.0,0.0,1.026,1.0225,1.0288,1.0288,1.0404,1.0515,1.0607,1.0708,1.0806,0.0,0.0,0.0,0.0,0.0,0.0,0.0,0.0,0.8926,0.9026,0.0,0.897,0.0,0.0,0.0,0.0,0.0,0.8832,0.0,0.0,0.9069,0.912,0.912,0.9156,0.9137,0.9141,0.9331,0.929,0.9099,0.8582,0.0,0.0,0.0,0.0,0.0,0.0,0.9283,0.9636,1.0142,1.049,1.0684,1.0715,1.0521,1.022,0.9673,0.942,0.9408,0.9418,0.9393,0.9412,0.983,0.0,0.0,0.0,0.0,0.0,0.0,0.0,0.0,0.0,0.0,0.0,0.0,0.0,0.0,0.0,0.0,0.0,0.0,0.0,0.0,1.056,0.0,0.0,0.0,0.0,0.0,0.0,0.0,0.0,0.0,0.0,0.9897,0.9746,0.9802,1.0324,0.0,0.0,0.0,0.0,1.0399,1.0446,1.0438,1.0498,1.0672,1.0874,1.0927,1.072,0.0,0.0,1.0753,1.0724,1.0761,1.0745,1.0785,1.0838,1.1163,1.107,1.098,1.098,1.0878,1.0814,1.0988,1.1094,1.111,0.96,0.0,0.0,0.0,0.0,0.952,0.9432,0.9247,0.9269,0.9212,0.9113,0.8904,0.0,0.0,0.0,0.0,0.0,0.0,0.9176,0.9066,0.9461,0.9661,0.9689,0.982,0.9885,0.9873,0.9652,0.9522,0.9433,0.9057,0.8767,0.8589,0.0,0.0,0.0,0.0,0.9547,1.0019,1.029,1.049,1.0715,1.0719,1.0553,1.0198,0.9762,0.9551,0.9551,0.9547,0.9547,0.9547,0.9669,0.0,0.0,0.0,0.0,0.0,0.0,0.0,0.0,0.0,0.0,0.0,0.0,0.0,0.0,0.0,0.0,0.0,0.0,0.0,1.0507,1.0433,1.031,0.0,0.0,0.0,0.0,0.0,0.0,0.0,0.0,0.0,1.0084,0.995,0.9916,0.0,0.0,1.03,1.0574,1.0619,1.0708,1.0928,0.0,0.0,0.0,1.0964,1.098,1.0927,1.1175,1.133,1.1277,1.1407,1.1504,1.158,1.1549,1.1577,1.1878,1.1499,1.1183,1.1134,1.1373,1.162,1.1715,1.1829,1.1869,1.0065,1.0018,0.9765,0.966,0.9728,0.9728,0.9675,0.9594,0.9523,0.946,0.9393,0.9145,0.9054,0.9027,0.8948,0.0,0.0,0.0,0.9535,0.9429,0.9811,1.0019,1.0027,1.0133,1.0186,1.02,0.9945,0.9839,0.9835,0.9624,0.9449,0.9242,0.0,0.0,0.921,0.9563,0.986,1.0182,1.0412,1.0586,1.0719,1.0627,1.0489,1.0274,0.9916,0.973,0.9701,0.964,0.9599,0.9599,0.9599,0.9723,0.0,0.0,0.0,0.0,0.0,0.0,0.0,0.0,0.0,0.0,0.0,1.0486,0.0,0.0,0.0,0.0,1.0342,1.0216,1.0093,1.0097,0.0,0.0,0.0,0.0,0.0,0.0,0.0,0.9604,0.9844,1.0117,1.0361,1.0274,1.03,1.0483,1.0443,1.0528,1.0854,0.0,1.1005,1.1264,1.1334,1.1321,1.1322,1.1318,1.1256,1.1136,1.1275,1.1355,1.1248,1.1335,1.1437,1.152,1.1497,1.1544,1.1752,1.1509,1.1366,1.1431,1.157,1.1705,1.1783,1.1885,1.1943,1.0085,1.0003,0.9386,0.9334,0.9644,0.9644,0.9762,0.9917,0.9738,0.9758,0.9901,0.9571,0.9437,0.9424,0.9441,0.0,0.9461,0.9791,0.9929,0.9937,1.0145,1.0231,1.0257,1.0231,1.0257,1.0261,1.0219,1.0211,1.0206,1.019,1.0101,0.993,0.962,0.9477,0.9477,0.993,1.0194,1.0215,1.0544,1.0719,1.0688,1.0494,1.0401,1.0381,1.0071,0.9876,0.9885,0.9688,0.9599,0.9599,0.9599,0.9727,0.9949,0.0,0.0,0.0,0.0,0.0,0.0,0.0,0.0,0.0,0.0,0.0,0.0,0.0,0.0,0.0,1.0117,0.0,0.9628,0.9599,0.0,0.0,0.0,0.9607,0.962,0.9786,0.9888,0.9879,0.0,0.0,1.0572,0.0,1.071,1.0908,1.0842,1.0831,1.1142,1.1183,1.128,1.1433,1.1461,1.1518,1.1571,1.1607,1.1509,1.1256,1.1239,1.114,1.0899,1.0815,1.0819,1.0887,1.093,1.1004,1.1022,1.1266,1.1477,1.1625,1.1465,1.1346,1.1537,1.1574,1.1619,0.7273,0.7256,0.7005,0.8103,1.0038,1.0064,1.0084,1.0147,1.008,1.0084,1.0109,0.9885,0.971,0.9547,0.9726,0.9783,0.9799,1.011,1.0276,1.0288,1.0485,1.0566,1.0566,1.0593,1.0593,1.0558,1.0432,1.0345,1.0336,1.0259,1.0192,1.0129,1.0152,1.0034,0.9803,1.0056,1.0255,1.0345,1.0582,1.0719,1.0684,1.0494,1.0341,1.0255,1.0031,0.9848,0.9668,0.9648,0.9599,0.9599,0.9599,0.9653,0.9698,0.9702,0.0,0.0,0.0,0.0,0.0,0.0,0.0,0.0,0.0,1.0068,1.0379,0.0,0.9805,0.0,0.9846,0.9653,0.9599,0.9599,0.0,0.0,0.9599,0.9656,0.9811,0.986,0.986,0.9742,0.9934,0.9991,0.98,0.9925,1.0119,1.0429,1.0837,1.1065,1.1077,1.1255,1.1408,1.1351,1.1331,1.129,1.1088,1.1035,1.1035,1.094,1.091,1.088,1.0819,1.0793,1.0826,1.0972,1.0931,1.0953,1.1145,1.0986,1.0825,1.1035,1.1361,1.1672,1.1713,1.1717,1.1666,0.6418,0.6409,0.6254,0.7418,0.9359,0.9264,0.9523,1.0026,1.0026,0.9979,0.9866,0.9698,0.957,0.9503,0.9814,0.9985,1.0104,1.0488,1.063,1.0532,1.0723,1.0799,1.0699,1.0799,1.0818,1.0842,1.072,1.06,1.0523,1.0448,1.0426,1.0426,1.0497,1.0448,1.0284,1.0373,1.0448,1.055,1.0639,1.0719,1.0688,1.0498,1.0357,1.0282,1.0026,0.9843,0.9746,0.9644,0.9599,0.9599,0.9599,0.9599,0.9599,0.9599,0.9599,0.0,0.0,0.0,0.0,0.0,0.0,0.0,0.0,0.0,0.0,0.0,0.9677,0.0,0.9702,0.9599,0.9599,0.9672,0.9717,0.9717,0.9689,0.9701,0.9792,0.9764,0.969,0.9633,0.9789,0.9864,0.9771,0.9865,0.9986,1.0123,1.0536,1.0827,1.0904,1.1077,1.1168,1.1106,1.1091,1.1027,1.0819,1.0793,1.0759,1.0607,1.0577,1.0547,1.0365,0.9872,0.9721,1.0319,1.0016,0.9869,1.0545,1.0584,1.0482,1.0668,1.0955,1.1195,1.121,1.1267,1.1218,0.5987,0.6011,0.5808,0.6501,0.7712,0.7539,0.8392,0.988,0.9852,0.9766,0.9591,0.9465,0.941,0.9462,0.9865,1.012,1.0331,1.0703,1.0826,1.0661,1.0842,1.0826,1.0636,1.0842,1.0876,1.0884,1.0912,1.0803,1.0622,1.0642,1.0682,1.0651,1.0651,1.0647,1.0651,1.0651,1.0682,1.0719,1.0719,1.0719,1.0688,1.0498,1.0397,1.0361,1.0067,0.9897,0.9847,0.968,0.9599,0.9599,0.9599,0.9554,0.9402,0.9402,0.9352,0.0,0.92,0.0,0.0,0.0,0.0,0.0,0.0,0.0,0.0,0.9599,0.9611,0.9636,0.9661,0.9644,0.9672,0.9781,0.987,0.9874,0.9753,0.9672,0.9643,0.9583,0.949,0.9481,0.9645,0.9817,0.9872,0.9965,0.9915,0.9824,0.9972,1.0244,1.0528,1.0666,1.0729,1.0721,1.0687,1.0573,1.0297,1.0331,1.0176,0.9812,0.9535,0.9633,0.9238,0.8376,0.8011,0.8912,0.8648,0.8505,0.955,0.9999,1.0246,1.0373,1.0453,1.0514,1.0596,1.0702,1.0714,0.2886,0.2854,0.2846,0.3487,0.4583,0.4654,0.6793,1.0208,1.0211,1.0164,1.0148,0.9967,0.9943,1.0118,1.0205,1.0267,1.0326,1.0385,1.0419,1.0387,1.0415,1.0415,1.0384,1.0415,1.036,1.0211,1.0461,1.0417,1.013,1.0411,1.048,1.0376,1.0379,1.0379,1.0379,0.0,0.0,0.0,1.0719,1.0719,1.0711,1.0498,1.0336,1.0243,1.0027,0.0,0.9685,0.962,0.9599,0.9599,0.9599,0.0,0.0,0.0,0.0,0.0,0.0,0.0,0.0,0.0,0.0,0.0,0.9082,0.9599,0.9599,0.9599,0.966,0.9823,0.9839,0.9921,1.0046,0.9854,0.9744,0.9722,0.9544,0.9429,0.9526,0.9517,0.9476,0.9428,0.9444,0.9389,0.92,0.9116,0.9203,0.9313,0.9365,0.9495,0.961,1.0054,1.0332,1.0246,1.0015,0.9569,0.859,0.8465,0.813,0.709,0.6724,0.6783,0.6785,0.654,0.6294,0.6754,0.7324,0.7927,0.8295,0.9145,0.9876,0.9947,1.0025,1.0211,1.0566,1.0664,1.0721,0.2021,0.0,0.2008,0.2702,0.0,0.3863,0.5509,0.8174,0.8741,0.9296,0.9867,0.9734,0.9741,0.987,0.9986,1.0117,1.0223,1.034,1.038,1.0328,1.0373,1.0384,1.0303,1.0377,1.0328,1.025,1.0424,1.0379,1.0157,1.0328,1.037,1.0297,1.0197,1.0197,1.0297,1.0226,1.0302,1.0608,1.0682,1.0719,1.0707,1.0436,1.0257,1.0182,0.0,0.0,0.0,0.0,0.0,0.0,0.0,0.0,0.0,0.0,0.0,0.6251,0.6201,0.6149,0.6024,0.652,0.6797,0.6847,0.7892,0.8847,0.9504,0.9554,0.9553,0.9591,0.961,0.9649,0.9735,0.9659,0.9602,0.9606,0.9465,0.9388,0.943,0.9305,0.9204,0.9165,0.9161,0.9075,0.8937,0.8909,0.8936,0.9032,0.9077,0.8851,0.8474,0.92,0.9665,0.8982,0.8904,0.8387,0.7213,0.6914,0.6764,0.6064,0.59,0.5892,0.5896,0.5345,0.51,0.5712,0.5988,0.6263,0.7673,0.844,0.9074,0.9702,0.9964,1.0133,1.0488,1.0605,1.0633,0.2028,0.2008,0.2008,0.259,0.357,0.357,0.4306,0.5617,0.0,0.0,0.0,0.8754,0.8754,0.8805,0.9273,0.955,0.9728,1.0179,1.0307,1.0206,1.0326,1.0337,1.0236,1.0329,1.0372,1.0347,1.0376,1.0333,1.0175,1.0233,1.02,1.016,1.0014,1.0018,1.0157,1.0047,1.0137,1.0358,1.0497,1.0527,1.0547,1.0242,1.0074,1.0074,0.9526,0.8816,0.7965,0.7736,0.7223,0.6321,0.6298,0.6224,0.5999,0.5972,0.5799,0.5402,0.5379,0.5252,0.5049,0.5225,0.5406,0.5601,0.6574,0.7738,0.9045,0.9356,0.9422,0.9358,0.9316,0.9358,0.9387,0.9445,0.9469,0.9476,0.9379,0.932,0.9296,0.9075,0.8933,0.8909,0.8937,0.8909,0.8909,0.8909,0.8799,0.8605,0.8504,0.8156,0.726,0.7823,0.8253,0.7469,0.7389,0.706,0.5918,0.5551,0.5485,0.5065,0.5068,0.5223,0.5071,0.4306,0.4091,0.4795,0.4398,0.4977,0.6693,0.7551,0.827,0.9457,0.9863,1.0109,1.0409,1.0493,1.0548,0.2012,0.2008,0.2008,0.2099,0.2284,0.2253,0.2989,0.4268,0.5445,0.6133,0.6371,0.6264,0.6273,0.6467,0.7622,0.8181,0.8259,0.9391,0.9893,0.0,0.9889,0.9893,0.9879,0.9893,0.9844,0.9764,0.9965,0.9954,0.9755,0.9926,0.993,0.9719,0.9676,0.9669,0.9722,0.9908,0.9974,0.9892,0.9913,0.9926,0.9923,0.9711,0.9579,0.9541,0.8429,0.7734,0.7578,0.6737,0.6102,0.5722,0.5927,0.5552,0.4425,0.435,0.39,0.2998,0.2899,0.2899,0.2873,0.3699,0.4632,0.5572,0.5851,0.6477,0.769,0.874,0.9384,0.9454,0.9396,0.9566,0.9696,0.9541,0.9387,0.9391,0.914,0.8968,0.8992,0.8881,0.8826,0.8826,0.8909,0.8799,0.8685,0.8743,0.8325,0.7598,0.7235,0.6899,0.5993,0.5901,0.606,0.5948,0.5993,0.5542,0.4487,0.4186,0.3814,0.2672,0.2703,0.2859,0.2894,0.2647,0.2525,0.2591,0.3296,0.3997,0.4671,0.6416,0.7595,0.8282,0.9026,0.9817,1.0205,1.0373,1.0534,0.1438,0.1468,0.1456,0.1451,0.1483,0.1668,0.216,0.2896,0.3456,0.4523,0.5859,0.5855,0.5829,0.5955,0.654,0.6815,0.6846,0.7429,0.767,0.7734,0.844,0.8778,0.8839,0.9451,0.9788,0.9727,0.9814,0.9773,0.9615,0.9727,0.9686,0.9519,0.9486,0.9486,0.9453,0.89,0.8604,0.8639,0.9476,0.9882,0.9816,0.9594,0.9207,0.8609,0.7849,0.6888,0.5683,0.5203,0.4645,0.3934,0.3997,0.3792,0.3246,0.3196,0.2878,0.2311,0.2235,0.2183,0.2027,0.2466,0.2967,0.3514,0.4154,0.4733,0.5287,0.6502,0.7499,0.812,0.819,0.852,0.923,0.9213,0.913,0.913,0.8995,0.8909,0.8826,0.8266,0.7931,0.7851,0.7371,0.7005,0.7008,0.7008,0.6869,0.62,0.5699,0.5003,0.4472,0.3941,0.3806,0.4354,0.4589,0.4131,0.3028,0.2783,0.2527,0.1964,0.1947,0.1933,0.1947,0.1952,0.196,0.2004,0.2529,0.3111,0.3693,0.4794,0.5888,0.6832,0.729,0.805,0.8891,0.9848,1.0508,0.1011,0.1009,0.0994,0.1019,0.1019,0.1266,0.1544,0.1761,0.1853,0.302,0.4765,0.4981,0.5012,0.504,0.5314,0.5437,0.5498,0.5774,0.5896,0.6018,0.6966,0.7459,0.7551,0.8468,0.893,0.893,0.893,0.8875,0.8785,0.8754,0.8694,0.8545,0.8532,0.8561,0.8529,0.7584,0.7078,0.7225,0.8378,0.8935,0.8813,0.8665,0.8142,0.7317,0.6805,0.5762,0.4085,0.3759,0.323,0.2398,0.2316,0.234,0.2318,0.2322,0.2231,0.2047,0.2024,0.1917,0.1731,0.1704,0.1707,0.1741,0.2572,0.3114,0.3208,0.4057,0.526,0.6465,0.6755,0.7118,0.7845,0.8069,0.8125,0.8097,0.8125,0.7983,0.8014,0.7263,0.6733,0.6619,0.5919,0.5472,0.5389,0.5389,0.5333,0.4944,0.3942,0.3245,0.3079,0.2354,0.2284,0.2848,0.329,0.3015,0.1958,0.1889,0.1927,0.1821,0.1872,0.1902,0.1894,0.1902,0.1914,0.1999,0.2008,0.2406,0.3264,0.3815,0.4436,0.5382,0.5949,0.6498,0.7521,0.8936,1.0149,0.0979,0.1008,0.0963,0.1019,0.0988,0.1019,0.1081,0.1143,0.142,0.1636,0.2067,0.2221,0.2438,0.253,0.3571,0.4091,0.4182,0.5345,0.5804,0.5804,0.6018,0.611,0.611,0.6263,0.6263,0.6353,0.6383,0.6494,0.6428,0.6365,0.6195,0.5965,0.5954,0.6044,0.5994,0.6032,0.5932,0.5774,0.5932,0.5934,0.5813,0.5797,0.5735,0.5624,0.4496,0.378,0.3507,0.2732,0.2125,0.1806,0.2015,0.2015,0.1806,0.178,0.1781,0.1759,0.1759,0.1731,0.1705,0.1704,0.1745,0.1797,0.1912,0.2009,0.2008,0.2124,0.3129,0.4916,0.55,0.5639,0.5723,0.5834,0.5975,0.6031,0.5975,0.5723,0.5836,0.5639,0.5556,0.5556,0.5308,0.5389,0.5111,0.5111,0.4804,0.3858,0.2912,0.2186,0.2158,0.199,0.1823,0.1995,0.2029,0.2014,0.1802,0.1812,0.185,0.1869,0.188,0.1892,0.1879,0.1896,0.194,0.196,0.2008,0.2161,0.2437,0.2991,0.3895,0.4262,0.5031,0.6068,0.6551,0.7604,0.8892,0.0407,0.041,0.0404,0.0525,0.0679,0.071,0.0834,0.1019,0.1143,0.1204,0.1235,0.1544,0.1791,0.2038,0.256,0.2774,0.2836,0.3358,0.3603,0.3665,0.4337,0.4734,0.4795,0.5559,0.5904,0.5891,0.5902,0.5814,0.5739,0.5656,0.5559,0.5506,0.5517,0.5571,0.559,0.4958,0.4567,0.4507,0.3776,0.3317,0.3464,0.466,0.5055,0.4357,0.3804,0.3212,0.2546,0.2102,0.1866,0.1757,0.1821,0.1847,0.1757,0.1758,0.1766,0.1755,0.1758,0.1758,0.1758,0.1758,0.1763,0.1803,0.1804,0.181,0.1793,0.1795,0.227,0.3107,0.3914,0.4582,0.5222,0.5389,0.5389,0.5389,0.5389,0.5361,0.5389,0.4749,0.4331,0.4305,0.3719,0.3302,0.3274,0.3274,0.3079,0.2577,0.2047,0.1823,0.1795,0.1795,0.1795,0.1795,0.1795,0.1799,0.1812,0.1814,0.1821,0.1828,0.1832,0.1814,0.1843,0.1865,0.1914,0.1945,0.1993,0.2004,0.2038,0.2284,0.2813,0.3173,0.3887,0.4862,0.5031,0.6148,0.7498,0.0,0.0,0.0,0.0124,0.034,0.0371,0.0494,0.071,0.0803,0.0865,0.0896,0.1204,0.1514,0.173,0.1915,0.2008,0.2008,0.2008,0.2008,0.2099,0.2989,0.3379,0.3459,0.431,0.4801,0.4794,0.4749,0.4684,0.4571,0.45,0.4423,0.4448,0.4496,0.4567,0.4563,0.3633,0.322,0.3163,0.2248,0.1808,0.2054,0.3507,0.3997,0.3211,0.3086,0.2689,0.1851,0.1801,0.179,0.1789,0.1741,0.1739,0.1787,0.179,0.1799,0.1791,0.1795,0.1795,0.1795,0.1795,0.1795,0.1795,0.1795,0.1795,0.1795,0.1795,0.1795,0.1935,0.2605,0.3525,0.4221,0.4416,0.4414,0.4414,0.4414,0.4416,0.4305,0.3553,0.3107,0.3024,0.2465,0.1795,0.1823,0.1907,0.1935,0.1879,0.1823,0.1795,0.1795,0.1795,0.1795,0.1795,0.1795,0.1795,0.1795,0.1797,0.1795,0.1795,0.18,0.1811,0.1804,0.1832,0.1883,0.1913,0.1943,0.1962,0.1961,0.1994,0.2066,0.2191,0.2775,0.3521,0.3561,0.4702,0.581,0.0,0.0,0.0,0.0,0.0,0.0,0.0,0.0124,0.0401,0.0525,0.0556,0.0865,0.1019,0.1112,0.1668,0.1977,0.1977,0.1977,0.1977,0.1977,0.2098,0.2052,0.1994,0.2053,0.2143,0.235,0.2387,0.2277,0.2177,0.2147,0.2076,0.2105,0.2227,0.2154,0.2221,0.2185,0.1974,0.2018,0.1889,0.1801,0.1808,0.1969,0.2096,0.2008,0.1923,0.1907,0.1795,0.1793,0.1792,0.1793,0.1788,0.1789,0.1792,0.1791,0.1793,0.1795,0.1767,0.1795,0.1767,0.1739,0.1739,0.1767,0.1711,0.1767,0.1711,0.1711,0.1711,0.1795,0.1851,0.2046,0.213,0.2381,0.2269,0.2242,0.2102,0.213,0.2102,0.2213,0.1906,0.1963,0.1907,0.1795,0.1795,0.1795,0.1795,0.1795,0.1795,0.1795,0.1795,0.1795,0.1795,0.1795,0.1795,0.1795,0.1795,0.1795,0.1795,0.1795,0.1797,0.1802,0.1796,0.1816,0.1834,0.1853,0.1912,0.1931,0.1907,0.1949,0.1994,0.2061,0.2061,0.2406,0.2636,0.347,0.4461,0.0,0.0,0.0,0.0,0.0,0.0,0.0,0.0,0.0124,0.0185,0.0247,0.0525,0.0679,0.071,0.1143,0.1359,0.139,0.1575,0.1668,0.1696,0.1681,0.1677,0.162,0.1441,0.1285,0.1265,0.132,0.1287,0.1286,0.1256,0.126,0.1329,0.1524,0.1611,0.162,0.1795,0.1894,0.1859,0.1864,0.1864,0.1853,0.1864,0.187,0.1867,0.1821,0.1795,0.1795,0.1795,0.1795,0.1795,0.1795,0.1795,0.1795,0.1795,0.1711,0.1514,0.1486,0.1402,0.1234,0.1234,0.1206,0.1234,0.1234,0.1234,0.1234,0.1234,0.1206,0.1234,0.1234,0.1234,0.1318,0.157,0.1795,0.1795,0.1795,0.1767,0.1795,0.1795,0.1795,0.1795,0.1795,0.1795,0.1795,0.1795,0.1795,0.1795,0.1795,0.1795,0.1795,0.1795,0.1795,0.1795,0.1795,0.1795,0.1795,0.1795,0.1795,0.1795,0.1796,0.1797,0.1811,0.1802,0.182,0.1826,0.1852,0.1902,0.1909,0.1914,0.1932,0.1946,0.1948,0.1962,0.2003,0.2762,0.3324,0.0,0.0,0.0,0.0,0.0,0.0,0.0,0.0,0.0,0.0,0.0,0.0247,0.034,0.0371,0.0587,0.0649,0.071,0.1112,0.1328,0.1358,0.1344,0.1338,0.1273,0.1071,0.0948,0.0928,0.0963,0.0935,0.0905,0.0875,0.0908,0.0974,0.1229,0.1317,0.1301,0.1448,0.1556,0.1567,0.1569,0.157,0.1564,0.157,0.1565,0.1577,0.1544,0.1611,0.1781,0.1688,0.1655,0.1627,0.1542,0.1514,0.1514,0.1514,0.1402,0.1206,0.1177,0.1093,0.0925,0.0897,0.0897,0.0897,0.0897,0.0897,0.0897,0.0897,0.0897,0.0897,0.0897,0.0897,0.0953,0.1262,0.1514,0.1514,0.1514,0.1542,0.1627,0.1627,0.1683,0.1767,0.1795,0.1795,0.1795,0.1795,0.1795,0.1795,0.1795,0.1795,0.1795,0.1795,0.1795,0.1795,0.1795,0.1795,0.1795,0.1795,0.1795,0.1795,0.1795,0.1795,0.1798,0.1789,0.18,0.1804,0.1818,0.1868,0.188,0.1883,0.1896,0.1883,0.19,0.1914,0.1957,0.197,0.2561,0.0,0.0,0.0,0.0,0.0,0.0,0.0,0.0,0.0,0.0,0.0,0.0,0.0,0.0,0.0,0.0,0.0185,0.0678,0.0985,0.0985,0.1013,0.0967,0.0917,0.0825,0.0825,0.08,0.0869,0.0875,0.0816,0.0815,0.0851,0.0923,0.0956,0.095,0.0905,0.0965,0.0958,0.098,0.0987,0.0957,0.0887,0.0988,0.1012,0.0958,0.0951,0.1208,0.1725,0.1471,0.1318,0.129,0.1093,0.0897,0.0953,0.0981,0.0925,0.0897,0.0897,0.0897,0.0841,0.0813,0.0785,0.0785,0.0841,0.0785,0.0757,0.0785,0.0785,0.0785,0.0785,0.0841,0.0813,0.0869,0.0925,0.0925,0.1009,0.1093,0.1262,0.1318,0.143,0.1683,0.1767,0.1795,0.1795,0.1795,0.1795,0.1795,0.1795,0.1795,0.1795,0.1795,0.1795,0.1795,0.1795,0.1795,0.1795,0.1795,0.1795,0.1795,0.1795,0.1795,0.1795,0.1806,0.1808,0.1812,0.1794,0.1842,0.1853,0.1857,0.1868,0.1885,0.1875,0.1895,0.1912,0.1956,0.1969,-0.2678,-0.2555,-0.1726,-0.1388,-0.1233,-0.0401,0.0,0.0,0.0,0.0,0.0,0.0,0.0,0.0,0.0,0.0,0.0,0.0244,0.0425,0.0636,0.0654,0.0649,0.0588,0.0408,0.0293,0.0269,0.0271,0.0,0.0,0.0,0.0304,0.0339,0.0556,0.0612,0.0574,0.0784,0.0872,0.09,0.0872,0.0872,0.09,0.0943,0.094,0.0893,0.0883,0.1023,0.1168,0.1082,0.101,0.1037,0.0953,0.0897,0.0869,0.0897,0.0785,0.0589,0.0561,0.0448,0.0,0.0,0.0,0.0,0.0,0.028,0.028,0.0,0.0,0.0,0.0,0.028,0.028,0.028,0.0476,0.0841,0.0897,0.0897,0.1037,0.1177,0.1318,0.1458,0.1655,0.1795,0.1795,0.1795,0.1795,0.1795,0.1795,0.1795,0.1795,0.1795,0.1795,0.1795,0.1795,0.1795,0.1795,0.1795,0.1795,0.1795,0.1795,0.1795,0.1795,0.1795,0.1795,0.1797,0.1807,0.1815,0.1825,0.1836,0.1849,0.1853,0.1838,0.1863,0.1892,0.1911,0.1955,-0.3907,-0.3815,-0.3048,-0.271,-0.2618,-0.1756,0.0,-0.1356,-0.0925,-0.0741,0.0,0.0,0.0,0.0,0.0,0.0,0.0,0.0,0.012,0.0297,0.0325,0.0323,0.0295,0.0117,0.0,0.0,0.0,0.0,0.0,0.0,0.0,0.0,0.0216,0.0307,0.0274,0.0456,0.0548,0.0578,0.0548,0.0548,0.0579,0.0614,0.0613,0.0574,0.0568,0.0561,0.0555,0.0572,0.0621,0.0674,0.0617,0.0561,0.0561,0.0561,0.0476,0.0336,0.0252,0.0168,0.0,0.0,0.0,0.0,0.0,0.0,0.0,0.0,0.0,0.0,0.0,0.0,0.0,0.0,0.0,0.0504,0.0533,0.0617,0.0729,0.0981,0.1121,0.1206,0.143,0.157,0.1627,0.1767,0.1795,0.1795,0.1795,0.1795,0.1795,0.1795,0.1795,0.1795,0.1795,0.1795,0.1795,0.1795,0.1795,0.1795,0.1795,0.1795,0.1795,0.1795,0.1795,0.1795,0.1801,0.1802,0.1811,0.1823,0.1806,0.1806,0.1812,0.1847,0.188,0.1897,0.1912,-0.4182,-0.4122,-0.403,-0.3999,-0.3999,-0.3753,-0.3598,-0.3569,-0.2618,-0.2096,-0.185,-0.0833,0.0,0.0,0.0,0.0,0.0,0.0,0.0,0.0,0.0,0.0,0.0,0.0,0.0,0.0,0.0,0.0,0.0,0.0,0.0,0.0,0.0,0.0,0.0,0.0,0.0,0.0,0.0,0.0,0.0,0.0,0.0,0.0,0.0,0.0,0.0,0.0,0.0171,0.0309,0.0,0.0,0.0,0.0,0.0,0.0,0.0,0.0,0.0,0.0,0.0,0.0,0.0,0.0,0.0,0.0,0.0,0.0,0.0,0.0,0.0,0.0,0.0,0.0,0.0,0.0,0.0364,0.0673,0.0841,0.0925,0.1121,0.129,0.1318,0.1542,0.1683,0.1739,0.1767,0.1795,0.1795,0.1795,0.1795,0.1795,0.1795,0.1795,0.1795,0.1795,0.1795,0.1795,0.1795,0.1795,0.1795,0.1795,0.1795,0.1795,0.1795,0.1795,0.1798,0.1811,0.1792,0.1796,0.1814,0.1873,0.1899,0.1891,0.191,-0.7072,-0.6761,-0.5782,-0.5383,-0.5199,-0.4367,-0.3937,-0.3876,-0.36,-0.3416,-0.3109,-0.2034,-0.148,-0.1388,0.0,0.0,0.0,0.0,0.0,0.0,0.0,0.0,0.0,0.0,0.0,0.0,0.0,0.0,0.0,0.0,0.0,0.0,0.0,0.0,0.0,0.0,0.0,0.0,0.0,0.0,0.0,0.0,0.0,0.0,0.0,0.0,0.0,0.0,0.0,0.0112,0.0,0.0,0.0,0.0,0.0,0.0,0.0,0.0,0.0,0.0,0.0,0.0,0.0,0.0,0.0,0.0,0.0,0.0,0.0,0.0,0.0,0.0,0.0,0.0,0.0,0.0,0.0,0.0336,0.0533,0.0561,0.0813,0.0953,0.1065,0.1234,0.143,0.1486,0.1627,0.1795,0.1795,0.1795,0.1795,0.1795,0.1795,0.1795,0.1795,0.1795,0.1795,0.1795,0.1795,0.1795,0.1795,0.1795,0.1795,0.1795,0.1795,0.1795,0.1795,0.1802,0.1808,0.179,0.1812,0.1868,0.1874,0.19,0.1915,-0.8214,-0.7841,-0.7041,-0.6733,-0.6641,-0.59,-0.5565,-0.5441,-0.495,-0.4737,-0.4461,-0.3355,-0.2801,-0.2678,0.0,0.0,-0.1648,-0.1644,0.0,0.0,0.0,0.0,0.0,0.0,0.0,0.0,0.0,0.0,0.0,0.0,0.0,0.0,0.0,0.0,0.0,0.0,0.0,0.0,0.0,0.0,0.0,0.0,0.0,0.0,0.0,0.0,0.0,0.0,0.0,0.0,0.0,0.0,0.0,0.0,0.0,0.0,0.0,0.0,0.0,0.0,0.0,0.0,0.0,0.0,0.0,0.0,0.0,0.0,0.0,0.0,0.0,0.0,0.0,0.0,0.0,0.0,0.0,0.0,0.0224,0.0,0.0504,0.0701,0.0701,0.0953,0.1149,0.129,0.1458,0.1627,0.1739,0.1767,0.1795,0.1795,0.1795,0.1795,0.1795,0.1795,0.1795,0.1795,0.1795,0.1795,0.1795,0.1795,0.1795,0.1795,0.1795,0.1795,0.1795,0.18,0.1811,0.1796,0.1814,0.1837,0.1872,0.1907,0.1952,-0.8244,-0.7964,-0.7903,-0.7903,-0.7841,-0.7872,-0.7594,-0.7594,-0.658,-0.609,-0.5812,-0.4674,-0.4152,-0.4091,-0.3629,-0.3756,-0.3746,-0.3483,-0.3595,-0.3187,-0.2508,-0.1591,0.0,0.0,0.0,0.0,0.0,0.0,0.0,0.0,0.0,0.0,0.0,0.0,0.0,0.0,0.0,0.0,0.0,0.0,0.0,0.0,0.0,0.0,0.0,0.0,0.0,0.0,0.0,0.0,0.0,0.0,0.0,0.0,0.0,0.0,0.0,0.0,0.0,0.0,0.0,0.0,0.0,0.0,0.0,0.0,0.0,0.0,0.0,0.0,0.0,0.0,0.0,0.0,0.0,0.0,0.0,0.0,0.0,0.0,0.0,0.0336,0.0448,0.0645,0.0925,0.0981,0.1177,0.1458,0.1627,0.1739,0.1767,0.1795,0.1795,0.1795,0.1795,0.1795,0.1795,0.1795,0.1795,0.1795,0.1795,0.1795,0.1795,0.1795,0.1795,0.1795,0.1795,0.1803,0.1812,0.1832,0.185,0.1872,0.1898,0.1934,0.1958,-0.858,-0.8275,-0.8027,-0.7903,-0.7903,-0.7903,-0.7903,-0.7872,-0.7594,-0.7347,-0.7131,-0.6027,-0.5504,-0.5443,-0.4577,-0.3897,-0.4119,-0.4129,-0.3884,-0.3743,-0.3659,-0.3246,-0.2397,-0.1078,0.0,0.0,0.0,0.0,0.0,0.0,0.0,0.0,0.0,0.0,0.0,0.0,0.0,0.0,0.0,0.0,0.0,0.0,0.0,0.0,0.0,0.0,0.0,0.0,0.0,0.0,0.0,0.0,0.0,0.0,0.0,0.0,0.0,0.0,0.0,0.0,0.0,0.0,0.0,0.0,0.0,0.0,0.0,0.0,0.0,0.0,0.0,0.0,0.0,0.0,0.0,0.0,0.0,0.0,0.0,0.0,0.0,0.0,0.0,0.0336,0.0533,0.0645,0.0925,0.1262,0.1458,0.1627,0.1683,0.1683,0.1795,0.1795,0.1795,0.1795,0.1795,0.1795,0.1795,0.1795,0.1795,0.1795,0.1795,0.1795,0.1795,0.1795,0.1795,0.1797,0.1805,0.1831,0.1855,0.1878,0.1902,0.1936,0.1961,-0.8705,-0.8369,-0.8027,-0.7903,-0.7903,-0.7903,-0.7903,-0.7903,-0.7903,-0.7903,-0.7764,-0.7026,-0.6782,-0.679,-0.6076,-0.572,-0.5635,-0.5538,-0.5199,-0.4845,-0.4634,-0.4291,-0.3636,-0.249,-0.1546,-0.1011,0.0,-0.0665,0.0,0.0,0.0,0.0,0.0,0.0,0.0,0.0,0.0,0.0,0.0,0.0,0.0,0.0,0.0,0.0,0.0,0.0,0.0,0.0,0.0,0.0,0.0,0.0,0.0,0.0,0.0,0.0,0.0,0.0,0.0,0.0,0.0,0.0,0.0,0.0,0.0,0.0,0.0,0.0,0.0,0.0,0.0,0.0,0.0,0.0,0.0,0.0,0.0,0.0,0.0,0.0,0.0,0.0,0.0,0.0,0.0308,0.0476,0.0561,0.0869,0.1177,0.1318,0.1458,0.1542,0.1711,0.1767,0.1795,0.1795,0.1795,0.1795,0.1795,0.1795,0.1795,0.1795,0.1795,0.1795,0.1795,0.1795,0.1795,0.1797,0.1798,0.1813,0.1838,0.1872,0.1902,0.1926,0.1951,-0.872,-0.8404,-0.8047,-0.7892,-0.7881,-0.7892,-0.7903,-0.7903,-0.7903,-0.7903,-0.7881,-0.7752,-0.758,-0.7741,-0.76,-0.7617,-0.7504,-0.728,-0.6543,-0.5981,-0.5852,-0.5391,-0.4724,-0.4365,-0.369,-0.2482,-0.2274,-0.169,-0.1005,0.0,0.0,0.0,0.0,0.0,0.0,0.0,0.0,0.0,0.0,0.0,0.0,0.0,0.0,0.0,0.0,0.0,0.0,0.0,0.0,0.0,0.0,0.0,0.0,0.0,0.0,0.0,0.0,0.0,0.0,0.0,0.0,0.0,0.0,0.0,0.0,0.0,0.0,0.0,0.0,0.0,0.0,0.0,0.0,0.0,0.0,0.0,0.0,0.0,0.0,0.0,0.0,0.0,0.0,0.0,0.0,0.028,0.0364,0.0476,0.0785,0.1037,0.1206,0.1374,0.1514,0.1739,0.1767,0.1795,0.1795,0.1795,0.1795,0.1795,0.1795,0.1795,0.1795,0.1795,0.1795,0.1795,0.1795,0.1795,0.1797,0.1801,0.1827,0.1868,0.1894,0.1884,0.1941,-0.8787,-0.8603,-0.8105,-0.7818,-0.7752,-0.7862,-0.79,-0.7903,-0.7894,-0.79,-0.7875,-0.778,-0.7693,-0.7695,-0.7603,-0.7522,-0.75,-0.7401,-0.7256,-0.6956,-0.693,-0.6647,-0.6405,-0.6294,-0.5864,-0.4884,-0.4105,-0.3411,-0.2785,-0.2248,-0.1601,-0.1419,-0.0617,0.0,0.0,0.0,0.0,0.0,0.0,0.0,0.0,0.0,0.0,0.0,0.0,0.0,0.0,0.0,0.0,0.0,0.0,0.0,0.0,0.0,0.0,0.0,0.0,0.0,0.0,0.0,0.0,0.0,0.0,0.0,0.0,0.0,0.0,0.0,0.0,0.0,0.0,0.0,0.0,0.0,0.0,0.0,0.0,0.0,0.0,0.0,0.0,0.0,0.0,0.0,0.0,0.0,0.0252,0.0308,0.0476,0.0757,0.1009,0.1177,0.1346,0.157,0.1739,0.1795,0.1795,0.1795,0.1795,0.1795,0.1795,0.1795,0.1795,0.1795,0.1795,0.1795,0.1795,0.1795,0.1795,0.1797,0.1832,0.1869,0.1887,0.1907,0.1937,-0.8805,-0.8635,-0.8127,-0.7807,-0.7733,-0.7853,-0.7867,-0.7785,-0.7812,-0.7747,-0.7668,-0.757,-0.7522,-0.753,-0.7449,-0.7397,-0.7387,-0.735,-0.7331,-0.7311,-0.7359,-0.7351,-0.7247,-0.7354,-0.7021,-0.6384,-0.5854,-0.49,-0.387,-0.3287,-0.2707,-0.1942,-0.1295,-0.074,0.0,0.0,0.0,0.0,0.0,0.0,0.0,0.0,0.0,0.0,0.0,0.0,0.0,0.0,0.0,0.0,0.0,0.0,0.0,0.0,0.0,0.0,0.0,0.0,0.0,0.0,0.0,0.0,0.0,0.0,0.0,0.0,0.0,0.0,0.0,0.0,0.0,0.0,0.0,0.0,0.0,0.0,0.0,0.0,0.0,0.0,0.0,0.0,0.0,0.0,0.0,0.0,0.0,0.0,0.0,0.0448,0.0729,0.0925,0.1121,0.1458,0.1683,0.1767,0.1795,0.1795,0.1795,0.1795,0.1795,0.1795,0.1795,0.1795,0.1795,0.1795,0.1795,0.1795,0.1795,0.1799,0.1831,0.1831,0.1879,0.1902,0.1934,-0.8838,-0.8662,-0.8184,-0.7867,-0.7728,-0.7853,-0.7807,-0.7717,-0.7706,-0.7641,-0.7481,-0.7378,-0.737,-0.74,-0.7338,-0.7267,-0.729,-0.7226,-0.725,-0.7271,-0.7296,-0.7267,-0.7273,-0.7289,-0.7216,-0.7087,-0.7169,-0.6489,-0.5134,-0.4447,-0.3719,-0.3202,-0.2711,-0.1941,0.0,0.0,0.0,-0.0771,-0.0771,-0.074,-0.0463,-0.0401,-0.0216,0.0,0.0,0.0,0.0,0.0,0.0,0.0,0.0,0.0,0.0,0.0,0.0,0.0,0.0,0.0,0.0,0.0,0.0,0.0,0.0,0.0,0.0,0.0,0.0,0.0,0.0,0.0,0.0,0.0,0.0,0.0,0.0,0.0,0.0,0.0,0.0,0.0,0.0,0.0,0.0,0.0,0.0,0.0,0.0,0.0,0.0,0.0,0.042,0.0617,0.0897,0.1318,0.157,0.1739,0.1767,0.1795,0.1795,0.1795,0.1795,0.1795,0.1795,0.1795,0.1795,0.1795,0.1795,0.1797,0.1802,0.1812,0.1804,0.1826,0.1879,0.1911,0.1946,-0.8927,-0.8656,-0.8433,-0.8085,-0.7752,-0.7815,-0.7801,-0.7701,-0.7684,-0.763,-0.7481,-0.7359,-0.7308,-0.7326,-0.7267,-0.7215,-0.7204,-0.7201,-0.7198,-0.7226,-0.7223,-0.7231,-0.7237,-0.7265,-0.7305,-0.7316,-0.7554,-0.7512,-0.6654,-0.5928,-0.5533,-0.5015,-0.4092,-0.3475,-0.2955,-0.2832,-0.3446,-0.3354,-0.3322,-0.2801,-0.1942,-0.1757,-0.1172,0.0,0.0,0.0,0.0,0.0,0.0,0.0,0.0,0.0,0.0,0.0,0.0,0.0,0.0,0.0,0.0,0.0,0.0,0.0,0.0,0.0,0.0,0.0,0.0,0.0,0.0,0.0,0.0,0.0,0.0,0.0,0.0,0.0,0.0,0.0,0.0,0.0,0.0,0.0,0.0,0.0,0.0,0.0,0.0,0.0,0.0,0.0,0.0,0.0476,0.0673,0.1093,0.143,0.1598,0.1711,0.1767,0.1795,0.1795,0.1795,0.1795,0.1795,0.1795,0.1795,0.1795,0.1795,0.18,0.1809,0.1798,0.182,0.1866,0.1883,0.1919,0.1958,-0.8755,-0.8543,-0.8177,-0.7829,-0.7622,-0.7722,-0.7706,-0.7597,-0.7521,-0.7426,-0.7349,-0.726,-0.723,-0.7253,-0.7198,-0.7213,-0.721,-0.721,-0.721,-0.721,-0.7215,-0.722,-0.726,-0.7286,-0.733,-0.7449,-0.7595,-0.7671,-0.7419,-0.719,-0.6766,-0.5876,-0.532,-0.4521,-0.4275,-0.3968,-0.3876,-0.3845,-0.3815,-0.36,-0.3201,-0.2987,-0.2464,-0.1202,-0.1132,-0.0766,0.0,0.0,0.0,0.0,0.0,0.0,0.0,0.0,0.0,0.0,0.0,0.0,0.0,0.0,0.0,0.0,0.0,0.0,0.0,0.0,0.0,0.0,0.0,0.0,0.0,0.0,0.0,0.0,0.0,0.0,0.0,0.0,0.0,0.0,0.0,0.0,0.0,0.0,0.0,0.0,0.0,0.0,0.0,0.0,0.0,0.0392,0.0589,0.0841,0.1177,0.143,0.1598,0.1683,0.1795,0.1795,0.1795,0.1795,0.1795,0.1795,0.1795,0.1795,0.1795,0.18,0.1807,0.1834,0.1864,0.1884,0.1904,0.1936,0.1968,-0.8536,-0.8408,-0.7957,-0.7659,-0.75,-0.7619,-0.7584,-0.7438,-0.7357,-0.7271,-0.7207,-0.7215,-0.7215,-0.721,-0.7213,-0.721,-0.721,-0.721,-0.721,-0.721,-0.7198,-0.7225,-0.7278,-0.7335,-0.7424,-0.7568,-0.7695,-0.7744,-0.7774,-0.7671,-0.7258,-0.6429,-0.6488,-0.5965,-0.5257,-0.5134,-0.5257,-0.5257,-0.5195,-0.492,-0.449,-0.4399,-0.3621,-0.2875,-0.2344,-0.1976,-0.113,0.0,0.0,0.0,0.0,0.0,0.0,0.0,0.0,0.0,0.0,0.0,0.0,0.0,0.0,0.0,0.0,0.0,0.0,0.0,0.0,0.0,0.0,0.0,0.0,0.0,0.0,0.0,0.0,0.0,0.0,0.0,0.0,0.0,0.0,0.0,0.0,0.0,0.0,0.0,0.0,0.0,0.0,0.0,0.0,0.0,0.0448,0.0617,0.0841,0.1149,0.1346,0.1598,0.1739,0.1795,0.1795,0.1795,0.1795,0.1795,0.1795,0.1795,0.1795,0.1799,0.1807,0.1845,0.188,0.1905,0.193,0.1959,0.1974,-0.8312,-0.8305,-0.8058,-0.7781,-0.751,-0.7527,-0.7433,-0.7338,-0.7311,-0.726,-0.7193,-0.721,-0.721,-0.721,-0.721,-0.721,-0.721,-0.721,-0.721,-0.721,-0.7193,-0.7228,-0.73,-0.7411,-0.7527,-0.7676,-0.7777,-0.7864,-0.7886,-0.7878,-0.7811,-0.7747,-0.7408,-0.7564,-0.7347,-0.6917,-0.6978,-0.7008,-0.7008,-0.658,-0.6029,-0.5621,-0.5043,-0.4,-0.3713,-0.3664,-0.3524,-0.3059,-0.2506,-0.1616,-0.1246,-0.0826,0.0,0.0,0.0,0.0,0.0,0.0,0.0,0.0,0.0,0.0,0.0,0.0,0.0,0.0,0.0,0.0,0.0,0.0,0.0,0.0,0.0,0.0,0.0,0.0,0.0,0.0,0.0,0.0,0.0,0.0,0.0,0.0,0.0,0.0,0.0,0.0,0.0,0.0,0.0,0.0,0.0,0.042,0.0504,0.0785,0.1206,0.1486,0.1655,0.1739,0.1795,0.1795,0.1795,0.1795,0.1795,0.1795,0.1795,0.1797,0.1814,0.186,0.1894,0.1912,0.1939,0.1998,0.2007,-0.8015,-0.7825,-0.7615,-0.745,-0.7376,-0.7376,-0.7351,-0.7297,-0.7258,-0.7231,-0.721,-0.721,-0.721,-0.721,-0.721,-0.721,-0.721,-0.721,-0.721,-0.721,-0.7196,-0.7228,-0.7339,-0.7433,-0.7581,-0.7703,-0.7842,-0.7903,-0.7897,-0.7903,-0.7903,-0.7903,-0.7903,-0.7872,-0.7903,-0.7903,-0.7903,-0.7903,-0.7903,-0.7533,-0.738,-0.7067,-0.6439,-0.5121,-0.4974,-0.4531,-0.3828,-0.296,-0.2456,-0.1929,-0.1247,-0.0601,0.0,0.0,0.0,0.0,0.0,0.0,0.0,0.0,0.0,0.0,0.0,0.0,0.0,0.0,0.0,0.0,0.0,0.0,0.0,0.0,0.0,0.0,0.0,0.0,0.0,0.0,0.0,0.0,0.0,0.0,0.0,0.0,0.0,0.0,0.0,0.0,0.0,0.0,0.0,0.0,0.0,0.0,0.0364,0.0701,0.1093,0.1318,0.1542,0.1683,0.1767,0.1795,0.1795,0.1795,0.1795,0.1795,0.1795,0.1795,0.1821,0.1867,0.1894,0.1911,0.1971,0.2005,0.2008,-0.7875,-0.7628,-0.7351,-0.7258,-0.73,-0.7296,-0.7304,-0.7281,-0.7209,-0.721,-0.721,-0.721,-0.721,-0.721,-0.721,-0.721,-0.721,-0.721,-0.721,-0.721,-0.7196,-0.7228,-0.7339,-0.7433,-0.7584,-0.7703,-0.784,-0.7903,-0.7903,-0.7903,-0.7903,-0.7903,-0.7903,-0.7903,-0.7903,-0.7903,-0.7903,-0.7903,-0.7903,-0.7903,-0.7839,-0.7805,-0.7502,-0.6357,-0.6268,-0.5609,-0.4659,-0.3779,-0.2859,-0.2081,-0.1229,-0.0492,0.0,0.0,0.0,0.0,0.0,0.0,0.0,0.0,0.0,0.0,0.0,0.0,0.0,0.0,0.0,0.0,0.0,0.0,0.0,0.0,0.0,0.0,0.0,0.0,0.0,0.0,0.0,0.0,0.0,0.0,0.0,0.0,0.0,0.0,0.0,0.0,0.0,0.0,0.0,0.0,0.0,0.0,0.0252,0.0533,0.0841,0.1121,0.1346,0.1598,0.1711,0.1767,0.1795,0.1795,0.1795,0.1795,0.1795,0.1797,0.1831,0.1874,0.1933,0.1965,0.1978,0.2008,0.2008,-0.7922,-0.7777,-0.7411,-0.7303,-0.7316,-0.7239,-0.723,-0.7267,-0.7234,-0.721,-0.721,-0.721,-0.721,-0.721,-0.721,-0.721,-0.721,-0.721,-0.721,-0.721,-0.7213,-0.7256,-0.7331,-0.7448,-0.757,-0.7698,-0.7837,-0.7903,-0.7903,-0.7903,-0.7903,-0.7903,-0.7903,-0.7903,-0.7903,-0.7903,-0.7903,-0.7903,-0.7903,-0.7903,-0.7903,-0.79,-0.7607,-0.7347,-0.725,-0.6563,-0.5387,-0.4643,-0.3577,-0.2125,-0.1473,-0.0757,0.0,0.0,0.0,0.0,0.0,0.0,0.0,0.0,0.0,0.0,0.0,0.0,0.0,0.0,0.0,0.0,0.0,0.0,0.0,0.0,0.0,0.0,0.0,0.0,0.0,0.0,0.0,0.0,0.0,0.0,0.0,0.0,0.0,0.0,0.0,0.0,0.0,0.0,0.0,0.0,0.0,0.0,0.0,0.0,0.0561,0.0841,0.1149,0.143,0.1655,0.1739,0.1767,0.1795,0.1796,0.1797,0.1798,0.18,0.1844,0.189,0.1967,0.1998,0.2006,0.2008,0.2008,-0.7651,-0.7448,-0.7362,-0.7403,-0.7535,-0.7358,-0.7258,-0.7214,-0.7201,-0.7213,-0.721,-0.721,-0.721,-0.721,-0.721,-0.721,-0.721,-0.721,-0.721,-0.721,-0.721,-0.7198,-0.7266,-0.7407,-0.7535,-0.7622,-0.7747,-0.7894,-0.7903,-0.79,-0.7903,-0.7903,-0.7903,-0.7903,-0.7903,-0.7903,-0.7903,-0.7903,-0.7903,-0.7903,-0.7903,-0.7861,-0.7766,-0.7611,-0.7649,-0.6889,-0.5564,-0.4906,-0.3576,-0.1963,-0.1276,0.0,0.0,0.0,0.0,0.0,0.0,0.0,0.0,0.0,0.0,0.0,0.0,0.0,0.0,0.0,0.0,0.0,0.0,0.0,0.0,0.0,0.0,0.0,0.0,0.0,0.0,0.0,0.0,0.0,0.0,0.0,0.0,0.0,0.0,0.0,0.0,0.0,0.0,0.0,0.0,0.0,0.0,0.0,0.0,0.0,0.0364,0.0589,0.0953,0.1318,0.1514,0.1685,0.177,0.18,0.18,0.18,0.1815,0.1834,0.1866,0.1907,0.1979,0.2005,0.2008,0.2008,0.2008,-0.7508,-0.7391,-0.7324,-0.7449,-0.7649,-0.7454,-0.7331,-0.7239,-0.7283,-0.7267,-0.7232,-0.722,-0.7218,-0.7224,-0.721,-0.721,-0.721,-0.721,-0.721,-0.721,-0.721,-0.719,-0.7256,-0.7347,-0.74,-0.7524,-0.7676,-0.784,-0.7837,-0.7883,-0.79,-0.7903,-0.7903,-0.7903,-0.7903,-0.7903,-0.7903,-0.7903,-0.7903,-0.7903,-0.7747,-0.7548,-0.736,-0.7425,-0.7157,-0.6308,-0.5184,-0.4091,-0.3006,-0.1617,0.0,0.0,0.0,0.0,0.0,0.0,0.0,0.0,0.0,0.0,0.0,0.0,0.0,0.0,0.0,0.0,0.0,0.0,0.0,0.0,0.0,0.0,0.0,0.0,0.0,0.0,0.0,0.0,0.0,0.0,0.0,0.0,0.0,0.0,0.0,0.0,0.0,0.0,0.0,0.0,0.0,0.0,0.0,0.0,0.0,0.0,0.0252,0.0364,0.0729,0.115,0.1438,0.1611,0.1722,0.1804,0.1804,0.1812,0.1814,0.1841,0.1897,0.1921,0.1979,0.1998,0.2006,0.2008,0.2008,-0.7553,-0.7481,-0.7357,-0.7446,-0.7657,-0.7541,-0.7427,-0.7324,-0.7422,-0.7398,-0.7204,-0.7274,-0.7241,-0.7221,-0.721,-0.721,-0.721,-0.721,-0.721,-0.721,-0.721,-0.7215,-0.7237,-0.727,-0.7351,-0.7422,-0.7578,-0.7741,-0.7722,-0.7853,-0.79,-0.7903,-0.7903,-0.7903,-0.7903,-0.7903,-0.7903,-0.7903,-0.7903,-0.7747,-0.7378,-0.6672,-0.6754,-0.6821,-0.6527,-0.5465,-0.4493,-0.3765,-0.235,0.0,0.0,0.0,0.0,0.0,0.0,0.0,0.0,0.0,0.0,0.0,0.0,0.0,0.0,0.0,0.0,0.0,0.0,0.0,0.0,0.0,0.0,0.0,0.0,0.0,0.0,0.0,0.0,0.0,0.0,0.0,0.0,0.0,0.0,0.0,0.0,0.0,0.0,0.0,0.0,0.0,0.0,0.0,0.0,0.0,0.0,0.0,0.0112,0.0252,0.0561,0.0927,0.1243,0.153,0.1638,0.1719,0.1778,0.1823,0.1856,0.1861,0.1895,0.1945,0.1985,0.1997,0.2008,0.2008,0.2008,-0.7331,-0.7351,-0.7319,-0.7449,-0.7679,-0.7663,-0.7549,-0.7446,-0.7395,-0.7305,-0.7254,-0.7253,-0.7229,-0.721,-0.721,-0.721,-0.721,-0.721,-0.721,-0.721,-0.7213,-0.7211,-0.726,-0.7281,-0.7351,-0.7452,-0.7595,-0.7684,-0.7714,-0.7837,-0.7894,-0.7903,-0.7903,-0.7903,-0.7903,-0.7903,-0.7897,-0.7894,-0.7894,-0.7492,-0.6914,-0.6211,-0.6333,-0.6343,-0.622,-0.512,-0.4206,-0.3873,-0.2473,0.0,0.0,0.0,0.0,0.0,0.0,0.0,0.0,0.0,0.0,0.0,0.0,0.0,0.0,0.0,0.0,0.0,0.0,0.0,0.0,0.0,0.0,0.0,0.0,0.0,0.0,0.0,0.0,0.0,0.0,0.0,0.0,0.0,0.0,0.0,0.0,0.0,0.0,0.0,0.0,0.0,0.0,0.0,0.0,0.0,0.0,0.0,0.0,0.014,0.0449,0.073,0.1015,0.1299,0.1522,0.167,0.1799,0.1847,0.1872,0.1909,0.1949,0.1947,0.1954,0.1998,0.2008,0.2008,0.2008,-0.7225,-0.7292,-0.7282,-0.7377,-0.7546,-0.7579,-0.7552,-0.7481,-0.7411,-0.7338,-0.7269,-0.7272,-0.7226,-0.7213,-0.721,-0.721,-0.721,-0.721,-0.721,-0.721,-0.721,-0.7218,-0.7244,-0.7274,-0.729,-0.7413,-0.7521,-0.7557,-0.7635,-0.7766,-0.784,-0.7903,-0.7903,-0.7903,-0.7903,-0.7897,-0.7837,-0.7864,-0.774,-0.7314,-0.6764,-0.6161,-0.6163,-0.6357,-0.6217,-0.5159,-0.4117,-0.3933,-0.2493,0.0,0.0,0.0,0.0,0.0,0.0,0.0,0.0,0.0,0.0,0.0,0.0,0.0,0.0,0.0,0.0,0.0,0.0,0.0,0.0,0.0,0.0,0.0,0.0,0.0,0.0,0.0,0.0,0.0,0.0,0.0,0.0,0.0,0.0,0.0,0.0,0.0,0.0,0.0,0.0,0.0,0.0,0.0,0.0,0.0,0.0,0.0,0.0,0.0,0.0308,0.059,0.0845,0.1156,0.1466,0.1685,0.1857,0.1877,0.1894,0.1935,0.1969,0.1963,0.1958,0.2,0.2008,0.2008,0.2008,-0.7245,-0.7281,-0.7239,-0.7252,-0.7319,-0.743,-0.7473,-0.75,-0.7435,-0.7372,-0.725,-0.7271,-0.7241,-0.7193,-0.721,-0.721,-0.721,-0.721,-0.721,-0.721,-0.721,-0.7209,-0.7231,-0.7201,-0.7278,-0.7313,-0.7385,-0.7527,-0.7508,-0.7619,-0.7812,-0.7894,-0.7903,-0.7903,-0.7903,-0.7903,-0.7872,-0.7837,-0.7793,-0.7558,-0.7035,-0.6591,-0.6343,-0.6957,-0.6317,-0.526,-0.4257,-0.3466,0.0,0.0,0.0,0.0,0.0,0.0,0.0,0.0,0.0,0.0,0.0,0.0,0.0,0.0,0.0,0.0,0.0,0.0,0.0,0.0,0.0,0.0,0.0,0.0,0.0,0.0,0.0,0.0,0.0,0.0,0.0,0.0,0.0,0.0,0.0,0.0,0.0,0.0,0.0,0.0,0.0,0.0,0.0,0.0,0.0,0.0,0.0,0.0,0.0,0.0,0.0,0.0511,0.0832,0.117,0.1467,0.1673,0.1889,0.19,0.192,0.1956,0.2007,0.2005,0.2002,0.2006,0.2008,0.2008,0.2008,-0.7198,-0.7234,-0.7266,-0.7284,-0.7308,-0.7338,-0.7351,-0.734,-0.7279,-0.7266,-0.7277,-0.7256,-0.7218,-0.719,-0.721,-0.721,-0.721,-0.721,-0.721,-0.721,-0.721,-0.722,-0.7247,-0.7231,-0.7286,-0.7399,-0.751,-0.7538,-0.7652,-0.7712,-0.7747,-0.7878,-0.7878,-0.7864,-0.7886,-0.7886,-0.7862,-0.7821,-0.7812,-0.7372,-0.6577,-0.6113,-0.585,-0.614,-0.5646,-0.5169,-0.4357,-0.3748,-0.2304,0.0,0.0,0.0,0.0,0.0,0.0,0.0,0.0,0.0,0.0,0.0,0.0,0.0,0.0,0.0,0.0,0.0,0.0,0.0,0.0,0.0,0.0,0.0,0.0,0.0,0.0,0.0,0.0,0.0,0.0,0.0,0.0,0.0,0.0,0.0,0.0,0.0,0.0,0.0,0.0,0.0,0.0,0.0,0.0,0.0,0.0,0.0,0.0,0.0,0.0,0.0,0.0,0.1281,0.1682,0.177,0.1891,0.1927,0.1938,0.1992,0.2007,0.2008,0.2008,0.2008,0.2008,0.2008,0.2008,-0.721,-0.7193,-0.7228,-0.7255,-0.7255,-0.7255,-0.7255,-0.7241,-0.7212,-0.7218,-0.7241,-0.7218,-0.721,-0.721,-0.721,-0.721,-0.721,-0.721,-0.721,-0.721,-0.7215,-0.7215,-0.7239,-0.7239,-0.7301,-0.7392,-0.7419,-0.7529,-0.7733,-0.7625,-0.7578,-0.7703,-0.7725,-0.7758,-0.7788,-0.7799,-0.7837,-0.7821,-0.7837,-0.7311,-0.6527,-0.6476,-0.645,-0.6475,-0.6277,-0.5689,-0.482,-0.4164,-0.2702,-0.1197,0.0,0.0,0.0,0.0,0.0,0.0,0.0,0.0,0.0,0.0,0.0,0.0,0.0,0.0,0.0,0.0,0.0,0.0,0.0,0.0,0.0,0.0,0.0,0.0,0.0,0.0,0.0,0.0,0.0,0.0,0.0,0.0,0.0,0.0,0.0,0.0,0.0,0.0,0.0,0.0,0.0,0.0,0.0,0.0,0.0,0.0,0.0,0.0,0.0,0.0,0.0824,0.1452,0.1881,0.1891,0.1932,0.1945,0.1959,0.2001,0.2007,0.2008,0.2008,0.2008,0.2008,0.2008,0.2008,-0.721,-0.721,-0.7213,-0.7213,-0.721,-0.7213,-0.7215,-0.7215,-0.721,-0.721,-0.7193,-0.7188,-0.721,-0.721,-0.721,-0.721,-0.721,-0.721,-0.721,-0.721,-0.721,-0.7229,-0.7242,-0.7269,-0.7313,-0.7354,-0.7381,-0.7484,-0.7663,-0.7503,-0.7449,-0.7484,-0.7565,-0.7616,-0.7679,-0.7725,-0.7758,-0.7771,-0.7802,-0.778,-0.769,-0.7695,-0.7477,-0.7487,-0.7501,-0.6956,-0.576,-0.4695,-0.3484,-0.1993,0.0,0.0,0.0,0.0,0.0,0.0,0.0,0.0,0.0,0.0,0.0,0.0,0.0,0.0,0.0,0.0,0.0,0.0,0.0,0.0,0.0,0.0,0.0,0.0,0.0,0.0,0.0,0.0,0.0,0.0,0.0,0.0,0.0,0.0,0.0,0.0,0.0,0.0,0.0,0.0,0.0,0.0,0.0,0.0,0.0,0.0,0.0,0.0,0.0,0.0,0.0832,0.1472,0.1871,0.1923,0.1965,0.1955,0.1961,0.1998,0.2003,0.2008,0.2008,0.2008,0.2008,0.2008,0.2008,-0.721,-0.721,-0.721,-0.721,-0.721,-0.721,-0.721,-0.721,-0.721,-0.721,-0.721,-0.721,-0.721,-0.721,-0.721,-0.721,-0.721,-0.721,-0.721,-0.721,-0.721,-0.721,-0.7218,-0.7277,-0.7357,-0.7403,-0.7427,-0.7479,-0.7511,-0.7465,-0.7454,-0.7476,-0.7717,-0.7744,-0.7703,-0.7752,-0.7837,-0.784,-0.7851,-0.7848,-0.7766,-0.772,-0.7633,-0.7603,-0.756,-0.6768,-0.5947,-0.5528,-0.4008,-0.2348,0.0,0.0,0.0,0.0,0.0,0.0,0.0,0.0,0.0,0.0,0.0,0.0,0.0,0.0,0.0,0.0,0.0,0.0,0.0,0.0,0.0,0.0,0.0,0.0,0.0,0.0,0.0,0.0,0.0,0.0,0.0,0.0,0.0,0.0,0.0,0.0,0.0,0.0,0.0,0.0,0.0,0.0,0.0,0.0,0.0,0.0,0.0,0.0,0.0,0.0,0.0938,0.153,0.1839,0.1947,0.1982,0.1999,0.2003,0.1999,0.2003,0.2008,0.2008,0.2008,0.2008,0.2008,0.2008]},{"header":{"parameterUnit":"m.s-1","parameterCategory":1,"la1":31.0,"la2":29.5877,"lo1":-88.7671,"lo2":-86.6584,"dy":0.0162,"dx":0.0185,"nx":115,"ny":88,"refTime":"2023-03-18T12:00:00:Z","depth":0,"parameterNumber":3,"parameterNumberName":"V-component_of_WINDS"},"data":[0.0,0.0,0.0,0.0,0.0,0.0,0.0,0.0,0.0,0.0,0.0,0.0,0.0,0.0,0.0,0.0,0.0,0.0,0.0,0.0,0.0,0.0,0.0,0.0,0.0,0.0,0.0,0.0,0.0,0.0,0.0,0.0,0.0,0.0,0.0,0.0,0.0,0.0,0.0,0.0,0.0,0.0,0.0,0.0,0.0,0.0,0.0,0.0,0.0,0.0,0.0,0.0,0.0,0.0,0.0,0.0,0.0,0.0,0.0,0.0,0.0,0.0,0.0,0.0,0.0,0.0,0.0,0.0,0.0,0.0,0.0,0.0,0.0,0.0,0.0,0.0,0.0,0.0,0.0,0.0,0.0,0.0,0.0,0.0,0.0,0.0,0.0,0.0,0.0,0.0,0.0,0.0,0.0,0.0,0.0,0.0,0.0,0.0,0.0,0.0,0.0,0.0,0.0,0.0,0.0,0.0,0.0,0.0,0.0,0.0,0.0,0.0,0.0,0.0,0.0,0.0,0.0,0.0,0.0,0.0,0.0,0.0,0.0,0.0,0.0,0.0,0.0,0.0,0.0,0.0,0.0,0.0,0.0,0.0,0.0,0.0,0.0,0.0,0.0,0.0,0.0,0.0,0.0,0.0,0.0,0.0,0.0,0.0,0.0,0.0,0.0,0.0,0.0,0.0,0.0,0.0,0.0,0.0,0.0,0.0,0.0,0.0,0.0,0.0,0.0,0.0,0.0,0.0,0.0,0.0,0.0,0.0,0.0,0.0,0.0,0.0,0.0,0.0,0.0,0.0,0.0,0.0,0.0,0.0,0.0,0.0,0.0,0.0,0.0,0.0,0.0,0.0,0.0,0.0,0.0,0.0,0.0,0.0,0.0,0.0,0.0,0.0,0.0,0.0,0.0,0.0,0.0,0.0,0.0,0.0,0.0,0.0,0.0,0.0,0.0,0.0,0.0,0.0,0.0,0.0,0.0,0.0,0.0,0.0,0.0,0.0,0.0,0.0,0.0,0.0,0.0,0.0,0.0,0.0,0.0,0.0,0.0,0.0,0.0,0.0,0.0,0.0,0.0,0.0,0.0,0.0,0.0,0.0,0.0,0.0,0.0,0.0,0.0,0.0,0.0,0.0,0.0,0.0,0.0,0.0,0.0,0.0,0.0,0.0,0.0,0.0,0.0,0.0,0.0,0.0,0.0,0.0,0.0,0.0,0.0,0.0,0.0,0.0,0.0,0.0,0.0,0.0,0.0,0.0,0.0,0.0,0.0,0.0,0.0,0.0,0.0,0.0,0.0,0.0,0.0,0.0,0.0,0.0,0.0,0.0,0.0,0.0,0.0,0.0,0.0,0.0,0.0,0.0,0.0,0.0,0.0,0.0,0.0,0.0,0.0,0.0,0.0,0.0,0.0,0.0,0.0,0.0,0.0,0.0,0.0,0.0,0.0,0.0,0.0,0.0,0.0,0.0,0.0,0.0,0.0,0.0,0.0,0.0,0.0,0.0,0.0,0.0,0.0,0.0,0.0,0.0,0.0,0.0,0.0,0.0,0.0,0.0,0.0,0.0,0.0,0.0,0.0,0.0,0.0,0.0,0.0,0.0,0.0,0.0,0.0,0.0,0.0,0.0,0.0,0.0,0.0,0.0,0.0,0.0,0.0,0.0,0.0,0.0,0.0,0.0,0.0,0.0,0.0,0.0,0.0,0.0,0.0,0.0,0.0,0.0,0.0,0.0,0.0,0.0,0.0,0.0,0.0,0.0,0.0,0.0,0.0,0.0,0.0,0.0,0.0,0.0,0.0,0.0,0.0,0.0,0.0,0.0,0.0,0.0,0.0,0.0,0.0,0.0,0.0,0.0,0.0,0.0,0.0,0.0,0.0,0.0,0.0,0.0,0.0,0.0,0.0,0.0,0.0,0.0,0.0,0.0,0.0,0.0,0.0,0.0,0.0,0.0,0.0,0.0,0.0,0.0,0.0,0.0,0.0,0.0,0.0,0.0,0.0,0.0,0.0,0.0,0.0,0.0,0.0,0.0,0.0,0.0,0.0,0.0,0.0,0.0,0.0,0.0,0.0,0.0,0.0,0.0,0.0,0.0,0.0,0.0,0.0,0.0,0.0,0.0,0.0,0.0,0.0,0.0,0.0,0.0,0.0,0.0,0.0,0.0,0.0,0.0,0.0,0.0,0.0,0.0,0.0,0.0,0.0,0.0,0.0,0.0,0.0,0.0,0.0,0.0,0.0,0.0,0.0,0.0,0.0,0.0,0.0,0.0,0.0,0.0,0.0,0.0,0.0,0.0,0.0,0.0,0.0,0.0,0.0,0.0,0.0,0.0,0.0,0.0,0.0,0.0,0.0,0.0,0.0,0.0,0.0,0.0,0.0,0.0,0.0,0.0,0.0,0.0,0.0,0.0,0.0,0.0,0.0,0.0,0.0,0.0,0.0,0.0,0.0,0.0,0.0,0.0,0.0,0.0,0.0,0.0,0.0,0.0,0.0,0.0,0.0,0.0,0.0,0.0,0.0,0.0,0.0,0.0,0.0,0.0,0.0,0.0,0.0,0.0,0.0,0.0,0.0,0.0,0.0,0.0,0.0,0.0,0.0,0.0,0.0,0.0,0.0,0.0,0.0,0.0,0.0,0.0,0.0,0.0,0.0,0.0,0.0,0.0,0.0,0.0,0.0,0.0,0.0,0.0,0.0,0.0,0.0,0.0,0.0,0.0,0.0,0.0,0.0,0.0,0.0,0.0,0.0,0.0,0.0,0.0,0.0,0.0,0.0,0.0,0.0,0.0,0.0,0.0,0.0,0.0,0.0,0.0,0.0,0.0,0.0,0.0,0.0,0.0,0.0,0.0,0.0,0.0,0.0,0.0,0.0,0.0,0.0,0.0,0.0,0.0,0.0,0.0,0.0,0.0,0.0,0.0,0.0,0.0,0.0,0.0,0.0,0.0,0.0,0.0,0.0,0.0,0.0,0.0,0.0,0.0,0.0,0.0,0.0,0.0,0.0,0.0,0.0,0.0,0.0,0.0,0.0,0.0,0.0,0.0,0.0,0.0,0.0,0.0,0.0,0.0,0.0,0.0,0.0,0.0,0.0,0.0,0.0,0.0,0.0,0.0,0.0,0.0,0.0,0.0,0.0,0.0,0.0,0.0,0.0,0.0,0.0,0.0,0.0,0.0,0.0,0.0,0.0,0.0,0.0,0.0,0.0,0.0,0.0,0.0,0.0,0.0,0.0,0.0,0.0,0.0,0.0,0.0,0.0,0.0,0.0,0.0,0.0,0.0,0.0,0.0,0.0,0.0,0.0,0.0,0.0,0.0,0.0,0.0,0.0,0.0,0.0,0.0,0.0,0.0,0.0,0.0,0.0,0.0,0.0,0.0,0.0,0.0,0.0,0.0,0.0,0.0,0.0,0.0,0.0,0.0,0.0,0.0,0.0,0.0,0.0,0.0,0.0,0.0,0.0,0.0,0.0,0.0,0.0,0.0,0.0,0.0,0.0,0.0,0.0,0.0,0.0,0.0,0.0,0.0,0.0,0.0,0.0,0.0,0.0,0.0,0.0,0.0,0.0,0.0,0.0,0.0,0.0,0.0,0.0,0.0,0.0,0.0,0.0,0.0,0.0,0.0,0.0,0.0,0.0,0.0,0.0,0.0,0.0,0.0,0.0,0.0,0.0,0.0,0.0,0.0,0.0,0.0,0.0,0.0,0.0,0.0,0.0,0.0,0.0,0.0,0.0,0.0,0.0,0.0,0.0,0.0,0.0,0.0,0.0,0.0,0.0,0.0,0.0,0.0,0.0,0.0,0.0,0.0,0.0,0.0,0.0,0.0,0.0,0.0,0.0,0.0,0.0,0.0,0.0,0.0,0.0,0.0,0.0,0.0,0.0,0.0,0.0,0.0,0.0,0.0,0.0,0.0,0.0,0.0,0.0,0.0,0.0,0.0,0.0,0.0,0.0,0.0,0.0,0.0,0.0,0.0,0.0,0.0,0.0,0.0,0.0,0.0,0.0,0.0,0.0,0.0,0.0,0.0,0.0,0.0,0.0,0.0,0.0,0.0,0.0,0.0,0.0,0.0,0.0,0.0,0.0,0.0,0.0,0.0,0.0,0.0,0.0,0.0,0.0,0.0,0.0,0.0,0.0,0.0,0.0,0.0,0.0,0.0,0.0,0.0,0.0,0.0,0.0,0.0,0.0,0.0,0.0,0.0,0.0,0.0,0.0,0.0,0.0,0.0,0.0,0.0,0.0,0.0,0.0,0.0,3.2866,0.0,0.0,0.0,0.0,0.0,0.0,0.0,0.0,0.0,0.0,0.0,0.0,0.0,0.0,0.0,0.0,0.0,0.0,0.0,0.0,0.0,0.0,0.0,0.0,0.0,0.0,0.0,0.0,0.0,0.0,0.0,0.0,0.0,0.0,0.0,0.0,0.0,0.0,0.0,0.0,0.0,0.0,0.0,0.0,0.0,0.0,0.0,0.0,0.0,0.0,0.0,0.0,0.0,0.0,0.0,0.0,0.0,0.0,0.0,0.0,0.0,0.0,0.0,0.0,0.0,0.0,0.0,0.0,0.0,0.0,0.0,0.0,0.0,0.0,0.0,0.0,0.0,0.0,0.0,0.0,0.0,0.0,0.0,0.0,0.0,0.0,0.0,0.0,0.0,0.0,0.0,0.0,0.0,0.0,0.0,0.0,0.0,0.0,0.0,0.0,0.0,0.0,0.0,0.0,0.0,0.0,0.0,0.0,0.0,0.0,3.0617,3.0617,3.1021,3.1833,3.3049,0.0,0.0,0.0,0.0,0.0,0.0,0.0,0.0,0.0,0.0,0.0,0.0,0.0,0.0,0.0,0.0,0.0,0.0,0.0,0.0,0.0,0.0,0.0,0.0,0.0,0.0,0.0,0.0,0.0,0.0,0.0,0.0,0.0,0.0,0.0,0.0,0.0,0.0,0.0,0.0,0.0,0.0,0.0,0.0,0.0,0.0,0.0,0.0,0.0,0.0,0.0,0.0,0.0,0.0,0.0,0.0,0.0,0.0,0.0,0.0,0.0,0.0,0.0,0.0,0.0,0.0,0.0,0.0,0.0,0.0,0.0,0.0,0.0,0.0,0.0,0.0,0.0,0.0,0.0,0.0,0.0,0.0,0.0,0.0,0.0,0.0,0.0,0.0,0.0,0.0,0.0,0.0,0.0,0.0,0.0,0.0,0.0,0.0,0.0,0.0,0.0,0.0,0.0,0.0,0.0,0.0,0.0,0.0,0.0,0.0,0.0,0.0,3.1485,3.2109,3.2837,0.0,0.0,0.0,0.0,0.0,0.0,0.0,0.0,0.0,0.0,0.0,0.0,0.0,0.0,0.0,0.0,0.0,0.0,0.0,0.0,0.0,0.0,0.0,0.0,0.0,0.0,0.0,0.0,0.0,0.0,0.0,0.0,0.0,0.0,0.0,0.0,0.0,0.0,0.0,0.0,0.0,0.0,0.0,0.0,0.0,0.0,0.0,0.0,0.0,0.0,0.0,0.0,0.0,0.0,0.0,0.0,0.0,0.0,0.0,0.0,0.0,0.0,0.0,0.0,0.0,0.0,0.0,0.0,0.0,0.0,0.0,0.0,0.0,0.0,0.0,0.0,0.0,0.0,0.0,0.0,0.0,0.0,0.0,0.0,0.0,0.0,0.0,0.0,0.0,0.0,0.0,0.0,0.0,0.0,0.0,0.0,0.0,0.0,0.0,0.0,0.0,0.0,0.0,0.0,0.0,0.0,0.0,0.0,0.0,0.0,3.0946,3.1659,3.1753,0.0,3.2154,0.0,0.0,0.0,0.0,0.0,0.0,0.0,0.0,0.0,0.0,0.0,0.0,0.0,0.0,0.0,0.0,0.0,0.0,0.0,0.0,0.0,0.0,0.0,0.0,0.0,0.0,0.0,0.0,0.0,0.0,0.0,0.0,0.0,0.0,0.0,0.0,0.0,0.0,0.0,0.0,0.0,0.0,0.0,0.0,0.0,0.0,0.0,0.0,0.0,0.0,0.0,0.0,0.0,0.0,0.0,0.0,0.0,0.0,0.0,0.0,0.0,0.0,0.0,0.0,0.0,0.0,0.0,0.0,0.0,0.0,0.0,0.0,0.0,0.0,0.0,0.0,0.0,0.0,0.0,0.0,0.0,0.0,0.0,0.0,0.0,0.0,0.0,0.0,0.0,0.0,0.0,0.0,0.0,0.0,0.0,0.0,0.0,0.0,0.0,0.0,0.0,0.0,0.0,0.0,0.0,0.0,0.0,0.0,0.0,0.0,3.0982,3.1794,3.28,3.3357,0.0,0.0,0.0,0.0,0.0,0.0,0.0,0.0,0.0,0.0,0.0,0.0,0.0,0.0,0.0,0.0,0.0,0.0,0.0,0.0,0.0,0.0,0.0,0.0,0.0,0.0,0.0,0.0,0.0,0.0,0.0,0.0,0.0,0.0,0.0,0.0,0.0,0.0,0.0,0.0,0.0,0.0,0.0,0.0,0.0,0.0,0.0,0.0,0.0,0.0,0.0,0.0,0.0,0.0,0.0,0.0,0.0,0.0,0.0,0.0,0.0,0.0,0.0,0.0,0.0,0.0,0.0,0.0,0.0,0.0,0.0,0.0,0.0,0.0,0.0,0.0,0.0,0.0,0.0,0.0,0.0,0.0,0.0,0.0,0.0,0.0,0.0,0.0,0.0,0.0,0.0,0.0,0.0,0.0,0.0,0.0,0.0,0.0,0.0,0.0,0.0,0.0,0.0,0.0,0.0,0.0,0.0,0.0,0.0,0.0,3.104,3.1449,3.2471,3.3267,3.3789,3.4024,0.0,0.0,0.0,0.0,0.0,0.0,0.0,0.0,0.0,0.0,0.0,0.0,0.0,0.0,0.0,0.0,0.0,0.0,0.0,0.0,0.0,0.0,0.0,0.0,0.0,0.0,0.0,0.0,0.0,0.0,0.0,0.0,0.0,0.0,0.0,0.0,0.0,0.0,0.0,0.0,0.0,0.0,0.0,0.0,0.0,0.0,0.0,0.0,0.0,0.0,0.0,0.0,0.0,0.0,0.0,0.0,0.0,0.0,0.0,0.0,0.0,0.0,0.0,0.0,0.0,0.0,0.0,0.0,0.0,0.0,0.0,0.0,0.0,0.0,0.0,0.0,0.0,0.0,0.0,0.0,0.0,0.0,0.0,0.0,0.0,0.0,0.0,0.0,0.0,0.0,0.0,0.0,0.0,0.0,0.0,0.0,0.0,0.0,0.0,0.0,0.0,0.0,0.0,0.0,0.0,0.0,0.0,0.0,3.2834,3.2138,3.2549,3.4137,3.2742,3.2314,0.0,0.0,0.0,0.0,0.0,0.0,0.0,0.0,0.0,0.0,0.0,0.0,0.0,0.0,0.0,0.0,0.0,0.0,0.0,0.0,0.0,0.0,0.0,0.0,0.0,0.0,0.0,0.0,0.0,0.0,0.0,0.0,0.0,0.0,0.0,0.0,0.0,0.0,0.0,0.0,0.0,0.0,0.0,0.0,0.0,0.0,0.0,0.0,0.0,0.0,0.0,0.0,0.0,0.0,0.0,0.0,0.0,0.0,0.0,0.0,0.0,0.0,0.0,0.0,0.0,0.0,0.0,0.0,0.0,0.0,0.0,0.0,0.0,0.0,0.0,0.0,0.0,0.0,0.0,0.0,0.0,0.0,0.0,0.0,0.0,0.0,0.0,0.0,0.0,0.0,0.0,0.0,0.0,0.0,0.0,0.0,0.0,0.0,0.0,0.0,0.0,0.0,0.0,0.0,0.0,0.0,0.0,0.0,0.0,3.1325,3.1525,3.2169,3.3327,3.335,3.3224,0.0,0.0,0.0,0.0,0.0,0.0,0.0,0.0,0.0,0.0,0.0,0.0,0.0,0.0,0.0,0.0,0.0,0.0,0.0,0.0,0.0,0.0,0.0,0.0,0.0,0.0,0.0,0.0,0.0,0.0,0.0,0.0,0.0,0.0,0.0,0.0,0.0,0.0,0.0,0.0,0.0,0.0,0.0,0.0,0.0,0.0,0.0,0.0,0.0,0.0,0.0,0.0,0.0,0.0,0.0,0.0,0.0,0.0,0.0,0.0,0.0,0.0,0.0,0.0,0.0,0.0,0.0,0.0,0.0,0.0,0.0,0.0,0.0,0.0,0.0,0.0,0.0,0.0,0.0,0.0,0.0,0.0,0.0,0.0,0.0,0.0,0.0,0.0,0.0,0.0,0.0,0.0,0.0,0.0,0.0,0.0,0.0,0.0,0.0,0.0,0.0,0.0,0.0,0.0,0.0,0.0,0.0,0.0,0.0,3.0835,0.0,3.2119,3.3201,3.3048,3.294,0.0,0.0,0.0,0.0,0.0,0.0,0.0,0.0,0.0,0.0,0.0,0.0,0.0,0.0,0.0,0.0,0.0,0.0,0.0,0.0,0.0,0.0,0.0,0.0,0.0,0.0,0.0,0.0,0.0,0.0,0.0,0.0,0.0,0.0,0.0,0.0,0.0,0.0,0.0,0.0,0.0,0.0,0.0,0.0,0.0,0.0,0.0,0.0,0.0,0.0,0.0,0.0,0.0,0.0,0.0,0.0,0.0,0.0,0.0,0.0,0.0,0.0,0.0,0.0,0.0,0.0,0.0,0.0,0.0,0.0,0.0,0.0,0.0,0.0,0.0,0.0,0.0,0.0,0.0,0.0,0.0,0.0,0.0,0.0,0.0,0.0,0.0,0.0,0.0,0.0,0.0,0.0,0.0,0.0,0.0,0.0,0.0,0.0,0.0,0.0,0.0,0.0,0.0,0.0,0.0,0.0,0.0,0.0,3.072,3.1602,3.1736,3.2513,3.4064,3.1828,3.1272,0.0,0.0,0.0,0.0,0.0,0.0,0.0,0.0,0.0,0.0,0.0,0.0,0.0,0.0,0.0,0.0,0.0,0.0,0.0,0.0,0.0,0.0,0.0,0.0,0.0,0.0,0.0,0.0,0.0,0.0,0.0,0.0,0.0,0.0,0.0,0.0,0.0,0.0,0.0,0.0,0.0,0.0,0.0,0.0,0.0,0.0,0.0,0.0,0.0,0.0,0.0,0.0,0.0,0.0,0.0,0.0,0.0,0.0,0.0,0.0,0.0,0.0,0.0,0.0,0.0,0.0,0.0,0.0,0.0,0.0,0.0,0.0,0.0,0.0,0.0,0.0,0.0,0.0,0.0,0.0,0.0,0.0,0.0,0.0,0.0,0.0,0.0,0.0,0.0,0.0,0.0,0.0,0.0,0.0,0.0,0.0,0.0,0.0,0.0,0.0,0.0,0.0,0.0,0.0,0.0,0.0,0.0,0.0,0.0,3.0456,3.1062,3.2254,3.3901,3.2131,3.1942,0.0,0.0,0.0,0.0,0.0,0.0,0.0,0.0,0.0,0.0,0.0,0.0,0.0,0.0,0.0,0.0,0.0,0.0,0.0,0.0,0.0,0.0,0.0,0.0,0.0,0.0,0.0,0.0,0.0,0.0,0.0,0.0,0.0,0.0,0.0,0.0,0.0,0.0,0.0,0.0,0.0,0.0,0.0,0.0,0.0,0.0,0.0,0.0,0.0,0.0,0.0,0.0,0.0,0.0,0.0,0.0,0.0,0.0,0.0,0.0,0.0,0.0,0.0,0.0,0.0,0.0,0.0,0.0,0.0,0.0,0.0,0.0,0.0,0.0,0.0,0.0,0.0,0.0,0.0,0.0,0.0,0.0,0.0,0.0,0.0,0.0,0.0,0.0,0.0,0.0,0.0,0.0,0.0,0.0,0.0,0.0,0.0,0.0,0.0,0.0,0.0,0.0,0.0,0.0,0.0,0.0,0.0,0.0,0.0,3.1345,3.1623,3.2469,3.3876,3.2573,3.2266,3.3138,0.0,0.0,0.0,0.0,0.0,0.0,0.0,0.0,0.0,0.0,0.0,0.0,0.0,0.0,0.0,0.0,0.0,0.0,0.0,0.0,0.0,0.0,0.0,0.0,0.0,0.0,0.0,0.0,0.0,0.0,0.0,0.0,0.0,0.0,0.0,0.0,0.0,0.0,0.0,0.0,0.0,0.0,0.0,0.0,0.0,0.0,0.0,0.0,0.0,0.0,0.0,0.0,0.0,0.0,0.0,0.0,0.0,0.0,0.0,0.0,0.0,0.0,0.0,0.0,0.0,0.0,0.0,0.0,0.0,0.0,0.0,0.0,0.0,0.0,0.0,0.0,0.0,0.0,0.0,0.0,0.0,0.0,0.0,0.0,0.0,0.0,0.0,0.0,0.0,0.0,0.0,0.0,0.0,0.0,0.0,0.0,0.0,0.0,0.0,0.0,0.0,0.0,0.0,0.0,0.0,0.0,0.0,0.0,3.3856,3.3413,3.3528,3.4128,3.3178,3.2394,0.0,0.0,0.0,0.0,0.0,0.0,0.0,0.0,0.0,0.0,0.0,0.0,0.0,0.0,0.0,0.0,0.0,0.0,0.0,0.0,0.0,0.0,0.0,0.0,0.0,0.0,0.0,0.0,0.0,0.0,0.0,0.0,0.0,0.0,0.0,0.0,0.0,0.0,0.0,0.0,0.0,0.0,0.0,0.0,0.0,0.0,0.0,0.0,0.0,0.0,0.0,0.0,0.0,0.0,0.0,0.0,0.0,0.0,0.0,0.0,0.0,0.0,0.0,0.0,0.0,0.0,0.0,0.0,0.0,0.0,0.0,0.0,0.0,0.0,0.0,0.0,0.0,0.0,0.0,0.0,0.0,0.0,0.0,0.0,0.0,0.0,0.0,0.0,0.0,0.0,0.0,0.0,0.0,0.0,0.0,0.0,0.0,0.0,0.0,0.0,0.0,0.0,0.0,0.0,0.0,0.0,0.0,0.0,0.0,3.5623,3.7186,3.7909,3.7585,3.4892,3.4285,0.0,0.0,0.0,0.0,0.0,0.0,0.0,0.0,0.0,0.0,0.0,0.0,0.0,0.0,0.0,0.0,0.0,0.0,0.0,0.0,0.0,0.0,0.0,0.0,0.0,0.0,0.0,0.0,0.0,0.0,0.0,0.0,0.0,0.0,0.0,0.0,0.0,0.0,0.0,0.0,0.0,0.0,0.0,0.0,0.0,0.0,0.0,0.0,0.0,0.0,0.0,0.0,0.0,0.0,0.0,0.0,0.0,0.0,0.0,0.0,0.0,0.0,0.0,0.0,0.0,0.0,0.0,0.0,0.0,0.0,0.0,0.0,0.0,0.0,0.0,0.0,0.0,0.0,0.0,0.0,0.0,0.0,0.0,0.0,0.0,0.0,0.0,0.0,0.0,0.0,0.0,0.0,0.0,0.0,0.0,0.0,0.0,0.0,0.0,0.0,0.0,0.0,0.0,0.0,0.0,0.0,0.0,0.0,3.6146,3.7871,4.0321,4.1428,4.107,3.7994,3.6573,0.0,0.0,0.0,0.0,0.0,0.0,0.0,0.0,0.0,0.0,0.0,0.0,0.0,0.0,0.0,0.0,0.0,0.0,0.0,0.0,0.0,0.0,0.0,0.0,0.0,0.0,0.0,0.0,0.0,0.0,0.0,0.0,0.0,0.0,0.0,0.0,0.0,0.0,0.0,0.0,0.0,0.0,0.0,0.0,0.0,0.0,0.0,0.0,0.0,0.0,0.0,0.0,0.0,0.0,0.0,0.0,0.0,0.0,0.0,0.0,0.0,0.0,0.0,0.0,0.0,0.0,0.0,0.0,0.0,0.0,0.0,0.0,0.0,0.0,0.0,0.0,0.0,0.0,0.0,0.0,0.0,0.0,0.0,0.0,0.0,0.0,0.0,0.0,0.0,0.0,0.0,0.0,0.0,0.0,0.0,0.0,0.0,0.0,0.0,0.0,0.0,0.0,0.0,0.0,0.0,0.0,0.0,0.0,3.8441,4.037,4.2778,4.4067,4.4092,4.1505,3.905,0.0,0.0,0.0,0.0,0.0,0.0,0.0,0.0,0.0,0.0,0.0,0.0,0.0,0.0,0.0,0.0,0.0,0.0,0.0,0.0,0.0,0.0,0.0,0.0,0.0,0.0,0.0,0.0,0.0,0.0,0.0,0.0,0.0,0.0,0.0,0.0,0.0,0.0,0.0,0.0,0.0,0.0,0.0,0.0,0.0,0.0,0.0,0.0,0.0,0.0,0.0,0.0,0.0,0.0,0.0,0.0,0.0,0.0,0.0,0.0,0.0,0.0,0.0,0.0,0.0,0.0,0.0,0.0,0.0,0.0,0.0,0.0,0.0,0.0,0.0,0.0,0.0,0.0,0.0,0.0,0.0,0.0,0.0,0.0,0.0,0.0,0.0,0.0,0.0,0.0,0.0,0.0,0.0,0.0,0.0,0.0,0.0,0.0,0.0,0.0,0.0,0.0,0.0,0.0,0.0,0.0,0.0,0.0,3.9104,4.2153,4.3934,4.5207,4.5919,4.2773,4.0803,0.0,0.0,0.0,0.0,0.0,0.0,0.0,0.0,0.0,0.0,0.0,0.0,0.0,0.0,0.0,0.0,0.0,0.0,0.0,0.0,0.0,0.0,0.0,0.0,0.0,0.0,0.0,0.0,0.0,0.0,0.0,0.0,0.0,0.0,0.0,0.0,0.0,0.0,0.0,0.0,0.0,0.0,0.0,0.0,0.0,0.0,0.0,0.0,3.9439,0.0,0.0,0.0,0.0,0.0,0.0,0.0,0.0,0.0,0.0,0.0,0.0,0.0,0.0,0.0,0.0,0.0,0.0,0.0,0.0,0.0,0.0,0.0,0.0,0.0,0.0,0.0,0.0,0.0,0.0,0.0,0.0,0.0,0.0,0.0,0.0,0.0,0.0,0.0,0.0,0.0,0.0,0.0,0.0,0.0,0.0,0.0,0.0,0.0,0.0,0.0,0.0,0.0,0.0,0.0,0.0,0.0,0.0,0.0,4.0315,4.3281,4.457,4.5437,4.5846,4.4183,4.2633,0.0,0.0,0.0,0.0,0.0,0.0,0.0,0.0,0.0,0.0,0.0,0.0,0.0,0.0,0.0,0.0,0.0,0.0,0.0,0.0,0.0,0.0,0.0,0.0,0.0,0.0,0.0,0.0,0.0,0.0,0.0,0.0,0.0,0.0,0.0,0.0,0.0,0.0,0.0,0.0,0.0,0.0,0.0,0.0,0.0,0.0,0.0,0.0,0.0,0.0,0.0,0.0,0.0,0.0,0.0,0.0,0.0,0.0,0.0,0.0,0.0,0.0,0.0,0.0,0.0,0.0,0.0,0.0,0.0,0.0,0.0,0.0,0.0,0.0,0.0,0.0,0.0,0.0,0.0,0.0,0.0,0.0,0.0,0.0,0.0,0.0,0.0,0.0,0.0,0.0,0.0,0.0,0.0,0.0,0.0,0.0,0.0,0.0,0.0,0.0,0.0,0.0,0.0,0.0,0.0,0.0,0.0,3.8861,4.1303,4.426,4.4991,4.5359,4.5474,4.5349,4.3982,4.1258,0.0,0.0,0.0,0.0,0.0,0.0,0.0,0.0,0.0,0.0,0.0,0.0,0.0,0.0,0.0,0.0,0.0,0.0,0.0,0.0,0.0,0.0,0.0,0.0,0.0,0.0,0.0,0.0,0.0,0.0,0.0,0.0,0.0,0.0,0.0,0.0,0.0,0.0,3.6576,3.7633,0.0,0.0,0.0,0.0,0.0,0.0,0.0,0.0,3.7824,0.0,0.0,0.0,0.0,0.0,0.0,0.0,0.0,0.0,0.0,0.0,0.0,0.0,0.0,0.0,0.0,0.0,0.0,0.0,0.0,0.0,0.0,0.0,0.0,0.0,0.0,0.0,0.0,0.0,0.0,0.0,0.0,0.0,0.0,0.0,0.0,0.0,0.0,0.0,0.0,0.0,0.0,0.0,0.0,0.0,0.0,0.0,0.0,0.0,0.0,0.0,0.0,0.0,0.0,0.0,0.0,3.9389,3.858,4.0692,4.5922,4.5569,4.5627,4.6227,4.5598,4.365,4.0597,0.0,0.0,0.0,0.0,0.0,0.0,0.0,0.0,0.0,0.0,0.0,0.0,0.0,0.0,0.0,0.0,0.0,0.0,0.0,0.0,0.0,0.0,0.0,0.0,0.0,0.0,0.0,0.0,0.0,0.0,0.0,0.0,0.0,0.0,0.0,0.0,0.0,0.0,0.0,3.9218,4.0322,0.0,0.0,0.0,0.0,0.0,0.0,0.0,0.0,3.9827,0.0,0.0,0.0,0.0,0.0,0.0,0.0,0.0,0.0,0.0,0.0,0.0,0.0,0.0,0.0,0.0,0.0,0.0,0.0,0.0,0.0,0.0,0.0,0.0,0.0,0.0,0.0,0.0,0.0,0.0,0.0,0.0,0.0,0.0,0.0,0.0,0.0,0.0,0.0,0.0,0.0,0.0,0.0,0.0,0.0,0.0,0.0,0.0,0.0,0.0,0.0,0.0,0.0,0.0,0.0,3.8623,3.981,4.2144,4.5717,4.5493,4.5474,4.5837,4.4621,4.2952,0.0,0.0,0.0,0.0,0.0,0.0,0.0,0.0,0.0,0.0,0.0,0.0,0.0,0.0,0.0,0.0,0.0,0.0,0.0,0.0,0.0,0.0,0.0,0.0,0.0,0.0,0.0,0.0,0.0,0.0,0.0,0.0,0.0,0.0,0.0,0.0,0.0,0.0,0.0,0.0,3.8452,3.9562,4.048,0.0,0.0,0.0,0.0,0.0,0.0,4.0328,4.0764,0.0,0.0,0.0,0.0,0.0,0.0,0.0,0.0,0.0,0.0,0.0,0.0,0.0,0.0,0.0,0.0,0.0,0.0,0.0,0.0,0.0,0.0,0.0,0.0,0.0,0.0,0.0,0.0,0.0,0.0,0.0,0.0,0.0,0.0,0.0,0.0,0.0,0.0,0.0,0.0,0.0,0.0,0.0,0.0,0.0,0.0,0.0,0.0,0.0,0.0,0.0,0.0,0.0,0.0,0.0,3.7899,4.1112,4.361,4.5225,4.5455,4.5474,4.5283,4.3997,4.2697,0.0,0.0,0.0,0.0,0.0,0.0,0.0,0.0,0.0,0.0,0.0,0.0,0.0,0.0,0.0,0.0,0.0,0.0,0.0,0.0,0.0,0.0,0.0,0.0,0.0,0.0,0.0,0.0,0.0,0.0,0.0,0.0,0.0,0.0,0.0,0.0,0.0,0.0,0.0,0.0,0.0,3.9634,4.1529,4.1157,0.0,0.0,0.0,0.0,4.0875,4.1374,0.0,0.0,0.0,0.0,0.0,0.0,0.0,0.0,0.0,0.0,0.0,0.0,0.0,0.0,0.0,0.0,0.0,0.0,0.0,0.0,0.0,0.0,0.0,0.0,0.0,0.0,0.0,0.0,0.0,0.0,0.0,0.0,0.0,0.0,0.0,0.0,0.0,0.0,0.0,0.0,0.0,0.0,0.0,0.0,0.0,0.0,0.0,0.0,0.0,0.0,0.0,0.0,0.0,0.0,0.0,0.0,3.8742,4.1355,4.3561,4.522,4.5984,4.6023,4.5321,4.5111,4.3862,0.0,0.0,0.0,0.0,0.0,0.0,0.0,0.0,0.0,0.0,0.0,0.0,0.0,0.0,0.0,0.0,0.0,0.0,0.0,0.0,0.0,0.0,0.0,0.0,0.0,0.0,0.0,0.0,0.0,0.0,0.0,0.0,0.0,0.0,0.0,0.0,0.0,0.0,0.0,0.0,0.0,4.3914,4.3561,4.3363,4.3084,0.0,0.0,4.262,4.3341,4.3537,0.0,0.0,0.0,0.0,0.0,0.0,0.0,0.0,0.0,0.0,0.0,0.0,0.0,0.0,0.0,0.0,0.0,0.0,0.0,0.0,0.0,0.0,0.0,0.0,0.0,0.0,0.0,0.0,0.0,0.0,0.0,0.0,0.0,0.0,0.0,0.0,0.0,0.0,0.0,0.0,0.0,0.0,0.0,0.0,0.0,0.0,0.0,0.0,0.0,0.0,0.0,0.0,0.0,0.0,0.0,3.7327,3.8961,4.2372,4.4746,4.5946,4.6328,4.6347,4.599,4.415,4.2821,0.0,0.0,0.0,0.0,0.0,0.0,0.0,0.0,0.0,0.0,0.0,0.0,0.0,0.0,0.0,0.0,0.0,0.0,0.0,0.0,0.0,0.0,0.0,0.0,0.0,0.0,0.0,0.0,0.0,0.0,0.0,0.0,0.0,0.0,0.0,0.0,0.0,0.0,0.0,0.0,0.0,0.0,4.4429,4.4098,0.0,0.0,0.0,4.4857,4.5255,0.0,0.0,0.0,0.0,0.0,0.0,0.0,0.0,0.0,0.0,0.0,0.0,0.0,0.0,0.0,0.0,0.0,0.0,0.0,0.0,0.0,0.0,0.0,0.0,0.0,0.0,0.0,0.0,0.0,0.0,0.0,0.0,0.0,0.0,0.0,0.0,0.0,0.0,0.0,0.0,0.0,0.0,0.0,0.0,0.0,0.0,0.0,0.0,0.0,0.0,0.0,0.0,0.0,0.0,0.0,0.0,0.0,3.9609,4.3753,4.6118,4.65,4.6729,4.6724,4.6462,4.3654,0.0,0.0,0.0,0.0,0.0,0.0,0.0,0.0,0.0,0.0,0.0,0.0,0.0,0.0,0.0,0.0,0.0,0.0,0.0,0.0,0.0,0.0,0.0,0.0,0.0,0.0,0.0,3.6997,0.0,0.0,0.0,0.0,0.0,0.0,0.0,0.0,0.0,0.0,0.0,0.0,0.0,0.0,4.3937,4.5272,4.489,4.5009,0.0,0.0,4.6424,4.6424,4.715,4.7137,0.0,0.0,0.0,0.0,0.0,0.0,0.0,0.0,0.0,0.0,0.0,0.0,0.0,0.0,0.0,0.0,0.0,0.0,0.0,0.0,0.0,0.0,0.0,0.0,0.0,0.0,0.0,0.0,0.0,0.0,0.0,0.0,0.0,0.0,0.0,0.0,0.0,0.0,0.0,0.0,0.0,0.0,0.0,0.0,0.0,0.0,0.0,0.0,0.0,0.0,0.0,0.0,0.0,0.0,0.0,4.1437,4.5482,4.7259,4.6571,4.7297,4.7335,4.6495,4.4751,4.3475,0.0,0.0,0.0,0.0,0.0,0.0,0.0,0.0,0.0,0.0,0.0,0.0,0.0,0.0,0.0,0.0,0.0,0.0,0.0,0.0,0.0,0.0,0.0,0.0,0.0,0.0,0.0,0.0,0.0,0.0,0.0,0.0,0.0,0.0,0.0,0.0,0.0,0.0,0.0,0.0,0.0,4.6121,4.637,4.6304,4.659,0.0,0.0,4.6505,4.6498,4.7229,4.7193,4.5483,0.0,0.0,0.0,0.0,0.0,0.0,0.0,0.0,0.0,0.0,0.0,0.0,0.0,0.0,0.0,0.0,0.0,0.0,0.0,0.0,0.0,0.0,0.0,0.0,0.0,0.0,0.0,0.0,0.0,0.0,0.0,0.0,0.0,0.0,0.0,0.0,0.0,0.0,0.0,0.0,0.0,0.0,0.0,0.0,0.0,0.0,0.0,0.0,0.0,0.0,0.0,0.0,0.0,4.0922,4.2316,4.5922,4.7895,4.8086,4.7908,4.7641,4.7316,4.5158,4.359,0.0,0.0,0.0,0.0,0.0,0.0,0.0,0.0,0.0,0.0,0.0,0.0,0.0,0.0,0.0,0.0,0.0,0.0,0.0,0.0,0.0,0.0,0.0,0.0,0.0,0.0,0.0,0.0,3.9148,3.9602,4.1245,0.0,0.0,0.0,0.0,0.0,0.0,0.0,0.0,0.0,0.0,4.6628,4.7169,4.7209,0.0,0.0,4.8709,4.8418,4.7458,4.8028,4.7851,4.5614,4.5532,0.0,0.0,0.0,0.0,0.0,0.0,0.0,0.0,0.0,0.0,0.0,0.0,0.0,0.0,0.0,0.0,0.0,0.0,0.0,0.0,0.0,0.0,0.0,0.0,0.0,0.0,0.0,0.0,0.0,0.0,0.0,0.0,0.0,0.0,0.0,0.0,0.0,0.0,0.0,0.0,0.0,0.0,0.0,0.0,0.0,0.0,0.0,0.0,0.0,0.0,0.0,0.0,4.1237,4.3133,4.6222,4.822,4.9066,4.8506,4.8061,4.7755,4.5597,4.3857,0.0,0.0,0.0,0.0,0.0,0.0,0.0,0.0,0.0,0.0,0.0,0.0,0.0,0.0,0.0,0.0,0.0,0.0,0.0,0.0,0.0,0.0,0.0,0.0,0.0,0.0,0.0,0.0,4.0883,4.1525,4.2701,0.0,0.0,0.0,0.0,0.0,0.0,0.0,0.0,0.0,0.0,4.7066,4.765,4.7732,4.7959,4.8615,4.893,4.8703,4.7578,4.8124,4.7933,4.5665,0.0,0.0,0.0,0.0,0.0,0.0,0.0,0.0,0.0,0.0,0.0,0.0,0.0,0.0,0.0,0.0,0.0,0.0,0.0,0.0,0.0,0.0,0.0,0.0,0.0,0.0,0.0,0.0,0.0,0.0,3.495,0.0,0.0,0.0,0.0,0.0,0.0,0.0,0.0,0.0,0.0,0.0,0.0,0.0,0.0,0.0,0.0,0.0,0.0,0.0,0.0,0.0,0.0,4.1523,4.3968,4.6508,4.822,4.9085,4.9085,4.864,4.7813,4.6156,4.4479,4.2766,0.0,0.0,0.0,0.0,0.0,0.0,0.0,0.0,0.0,0.0,0.0,0.0,0.0,0.0,0.0,0.0,0.0,0.0,0.0,0.0,0.0,0.0,0.0,0.0,0.0,0.0,4.235,4.3172,4.37,0.0,0.0,0.0,0.0,0.0,0.0,0.0,0.0,0.0,0.0,4.719,4.7682,4.7783,4.7807,4.7865,4.7884,4.7201,4.6628,4.6609,4.7278,4.724,0.0,0.0,0.0,0.0,0.0,0.0,0.0,0.0,0.0,0.0,0.0,0.0,0.0,0.0,0.0,0.0,0.0,0.0,0.0,0.0,0.0,0.0,0.0,0.0,0.0,0.0,0.0,3.6654,3.6692,0.0,0.0,0.0,0.0,0.0,0.0,0.0,0.0,0.0,0.0,0.0,3.848,3.9109,0.0,0.0,0.0,0.0,0.0,0.0,0.0,0.0,0.0,0.0,0.0,0.0,4.2598,4.5559,4.7081,4.8481,4.9849,4.9371,4.8684,4.7832,4.6691,4.5286,4.3628,0.0,0.0,0.0,0.0,0.0,0.0,0.0,0.0,0.0,0.0,0.0,0.0,0.0,0.0,0.0,0.0,0.0,0.0,0.0,0.0,0.0,0.0,0.0,0.0,0.0,4.4073,0.0,0.0,0.0,0.0,0.0,0.0,0.0,0.0,0.0,0.0,0.0,4.554,4.6399,4.6727,4.7338,4.8487,4.864,4.885,0.0,0.0,0.0,0.0,0.0,0.0,0.0,0.0,0.0,0.0,0.0,0.0,0.0,0.0,5.0073,4.6748,4.6328,4.6519,4.6519,0.0,0.0,0.0,0.0,0.0,0.0,0.0,0.0,0.0,0.0,0.0,0.0,0.0,0.0,0.0,0.0,3.8171,0.0,0.0,0.0,0.0,0.0,0.0,0.0,0.0,3.9457,4.0249,4.0286,4.0869,4.1136,0.0,4.0783,4.0263,0.0,0.0,0.0,0.0,0.0,0.0,0.0,0.0,4.3315,4.6023,4.7513,4.8926,5.0206,4.9786,4.8965,4.7813,4.638,4.5119,4.4045,4.3169,4.2725,0.0,0.0,0.0,0.0,0.0,0.0,0.0,0.0,0.0,0.0,0.0,0.0,0.0,0.0,0.0,0.0,0.0,0.0,0.0,0.0,0.0,0.0,0.0,4.4979,0.0,0.0,0.0,0.0,0.0,0.0,0.0,0.0,0.0,4.5611,4.5428,4.5818,4.7232,4.715,4.7474,4.8894,0.0,0.0,0.0,0.0,0.0,0.0,0.0,4.8844,4.7966,4.8086,4.8539,4.9371,5.0411,5.1137,5.1137,0.0,0.0,4.8397,4.8105,4.8271,4.8271,4.8945,4.9601,4.9901,5.0378,5.0837,0.0,0.0,0.0,0.0,0.0,0.0,0.0,0.0,3.9051,3.9489,0.0,3.9342,0.0,0.0,0.0,0.0,0.0,3.9533,0.0,0.0,4.2101,4.2908,4.2908,4.2961,4.2985,4.3004,4.3663,4.3591,4.2693,3.9528,0.0,0.0,0.0,0.0,0.0,0.0,4.3673,4.5455,4.7843,4.9486,5.0264,5.0277,4.95,4.7826,4.5387,4.4083,4.4025,4.3264,4.281,4.2786,4.3553,0.0,0.0,0.0,0.0,0.0,0.0,0.0,0.0,0.0,0.0,0.0,0.0,0.0,0.0,0.0,0.0,0.0,0.0,0.0,0.0,4.5068,0.0,0.0,0.0,0.0,0.0,0.0,0.0,0.0,0.0,0.0,4.6437,4.5851,4.6238,4.8703,0.0,0.0,0.0,0.0,4.9186,4.9276,4.9238,4.9524,5.0206,5.1022,5.127,5.0436,0.0,0.0,5.0588,5.0455,5.0627,5.055,5.0741,5.099,5.2658,5.2079,5.1519,5.1519,5.1041,5.0875,5.1557,5.2053,5.227,4.3304,0.0,0.0,0.0,0.0,4.144,4.158,4.1602,4.1597,4.177,4.1971,4.1117,0.0,0.0,0.0,0.0,0.0,0.0,4.2597,4.2201,4.4393,4.5449,4.5463,4.6074,4.638,4.6323,4.5411,4.48,4.4499,4.2383,4.1027,4.0406,0.0,0.0,0.0,0.0,4.4795,4.701,4.8411,4.9486,5.0277,5.0296,4.9513,4.7851,4.5927,4.4934,4.4934,4.4675,4.4555,4.4555,4.4768,0.0,0.0,0.0,0.0,0.0,0.0,0.0,0.0,0.0,0.0,0.0,0.0,0.0,0.0,0.0,0.0,0.0,0.0,0.0,4.5061,4.5078,4.5106,0.0,0.0,0.0,0.0,0.0,0.0,0.0,0.0,0.0,4.7316,4.6686,4.6653,0.0,0.0,4.8329,4.9748,4.9958,5.0378,5.155,0.0,0.0,0.0,5.1442,5.1519,5.127,5.2435,5.3301,5.3053,5.3524,5.4123,5.4626,5.4333,5.4467,5.588,5.4244,5.2614,5.2524,5.3651,5.4817,5.5116,5.5651,5.6142,4.6601,4.5072,4.3708,4.3351,4.3656,4.3656,4.3868,4.4185,4.3861,4.3914,4.4188,4.3023,4.2483,4.2469,4.1987,0.0,0.0,0.0,4.4737,4.436,4.6156,4.701,4.7049,4.7545,4.7794,4.7731,4.6787,4.629,4.6271,4.5277,4.4336,4.3482,0.0,0.0,4.3329,4.4751,4.6265,4.7775,4.8984,4.9805,5.0296,4.9996,4.9347,4.8334,4.6653,4.5774,4.576,4.5474,4.5283,4.5283,4.5283,4.5256,0.0,0.0,0.0,0.0,0.0,0.0,0.0,0.0,0.0,0.0,0.0,4.4102,0.0,0.0,0.0,0.0,4.4798,4.5148,4.5175,4.5194,0.0,0.0,0.0,0.0,0.0,0.0,0.0,4.5062,4.6189,4.7469,4.8615,4.8334,4.8329,4.9188,4.8997,4.9398,5.1066,0.0,5.1773,5.3135,5.332,5.3263,5.3123,5.3104,5.3097,5.3103,5.3912,5.4593,5.4675,5.5096,5.5593,5.5995,5.604,5.6269,5.7283,5.6256,5.5249,5.4956,5.6085,5.7213,5.7596,5.8093,5.854,4.9431,4.9168,4.6005,4.4999,4.5493,4.5493,4.5927,4.6533,4.5812,4.5908,4.6457,4.4909,4.4159,4.4102,4.4178,0.0,4.4274,4.5941,4.671,4.6748,4.7603,4.8004,4.7998,4.8004,4.7998,4.8017,4.7946,4.7908,4.7889,4.7813,4.7393,4.659,4.5138,4.435,4.435,4.659,4.7832,4.7927,4.9475,5.0296,5.0283,4.9505,4.9066,4.897,4.7379,4.6462,4.638,4.5703,4.5283,4.5283,4.5283,4.5275,4.5227,0.0,0.0,0.0,0.0,0.0,0.0,0.0,0.0,0.0,0.0,0.0,0.0,0.0,0.0,0.0,4.517,0.0,4.5297,4.5283,0.0,0.0,0.0,4.5321,4.5378,4.6042,4.6519,4.6601,0.0,0.0,5.0008,0.0,5.0657,5.1594,5.1009,5.1091,5.2702,5.2893,5.3212,5.4078,5.4212,5.4479,5.5027,5.5199,5.518,5.5172,5.5395,5.5375,5.5423,5.5479,5.5498,5.5684,5.6233,5.6775,5.6871,5.7958,5.8872,5.7947,5.8138,5.8539,5.9179,5.937,5.9601,5.2368,5.2252,5.0848,4.9082,4.7226,4.7221,4.7316,4.7483,4.7297,4.7316,4.7431,4.638,4.5559,4.5034,4.5635,4.5903,4.5979,4.769,4.8473,4.8531,4.9328,4.971,4.971,4.9704,4.9704,4.9671,4.9079,4.8798,4.876,4.8138,4.7693,4.7526,4.7761,4.7207,4.5998,4.7182,4.8118,4.8798,4.9786,5.0296,5.0264,4.9505,4.8779,4.8118,4.7068,4.6208,4.5607,4.5392,4.5283,4.5283,4.5283,4.5291,4.5262,4.5281,0.0,0.0,0.0,0.0,0.0,0.0,0.0,0.0,0.0,4.472,4.507,0.0,4.5039,0.0,4.523,4.5291,4.5283,4.5283,0.0,0.0,4.5283,4.555,4.6156,4.6385,4.6765,4.7487,4.8286,4.8972,4.9408,5.0041,5.1018,5.243,5.2387,5.2619,5.3693,5.3816,5.4103,5.4873,5.5077,5.5185,5.5425,5.5476,5.5476,5.5474,5.548,5.5486,5.5498,5.5523,5.5696,5.6284,5.6073,5.6348,5.7504,5.7694,5.7704,5.8122,5.9133,6.0048,6.0259,6.0278,6.0367,5.3975,5.3898,5.309,5.1756,5.0189,4.983,4.9423,4.9004,4.9004,4.8775,4.8359,4.7536,4.6905,4.6579,4.7313,4.7876,4.831,4.9606,5.0415,5.0774,5.0854,5.1078,5.1438,5.1078,5.0894,5.0869,5.0436,5.0002,4.9639,4.9156,4.8921,4.8921,4.9385,4.9156,4.8252,4.8672,4.9156,4.9633,5.0054,5.0296,5.0283,4.9524,4.8856,4.8372,4.7169,4.6309,4.5851,4.5493,4.5283,4.5283,4.5283,4.5283,4.5283,4.5283,4.5283,0.0,0.0,0.0,0.0,0.0,0.0,0.0,0.0,0.0,0.0,0.0,4.5286,0.0,4.5281,4.5283,4.5283,4.5627,4.5837,4.5837,4.6202,4.6638,4.7078,4.7463,4.7897,4.8426,4.9212,4.9874,5.027,5.0749,5.1522,5.2848,5.2966,5.3366,5.4506,5.475,5.4891,5.5362,5.5444,5.5437,5.5498,5.5523,5.551,5.5539,5.5545,5.5551,5.5585,5.5635,5.584,5.6189,5.6264,5.6508,5.7419,5.763,5.7787,5.8627,5.9468,6.0039,6.0116,6.0423,6.071,5.4948,5.4887,5.4123,5.367,5.3391,5.2804,5.1884,5.0826,5.0831,5.039,4.9629,4.8837,4.855,4.8679,4.9316,5.0022,5.0776,5.1457,5.219,5.2841,5.2126,5.219,5.2866,5.2126,5.172,5.1619,5.1613,5.1237,5.0516,5.0472,5.0524,5.065,5.065,5.0631,5.065,5.065,5.0524,5.0296,5.0296,5.0296,5.0283,4.9524,4.9047,4.8875,4.736,4.6437,4.6328,4.5665,4.5283,4.5283,4.5283,4.5312,4.5324,4.5324,4.5334,0.0,4.5346,0.0,0.0,0.0,0.0,0.0,0.0,0.0,0.0,4.5283,4.534,4.5455,4.5449,4.5493,4.5627,4.6262,4.6683,4.6702,4.7406,4.794,4.8066,4.8735,4.925,4.9351,5.0056,5.0798,5.1384,5.1565,5.1913,5.2686,5.2837,5.3322,5.4799,5.5031,5.5038,5.5318,5.5464,5.5526,5.5558,5.5571,5.558,5.5645,5.5674,5.5696,5.5763,5.584,5.5894,5.5876,5.6391,5.6907,5.6879,5.7437,5.8107,5.864,5.8904,5.925,5.9712,6.0308,6.0762,5.6234,5.6217,5.606,5.5515,5.4789,5.5273,5.4343,5.2513,5.2532,5.2442,5.2206,5.1426,5.145,5.2053,5.2195,5.2362,5.251,5.2658,5.283,5.2975,5.2811,5.2811,5.2956,5.2811,5.2384,5.1776,5.1706,5.1635,5.1513,5.1457,5.1802,5.246,5.2479,5.2479,5.2479,0.0,0.0,0.0,5.0296,5.0296,5.0258,4.9524,4.876,4.8061,4.7049,0.0,4.5564,4.5378,4.5283,4.5283,4.5283,0.0,0.0,0.0,0.0,0.0,0.0,0.0,0.0,0.0,0.0,0.0,4.527,4.5283,4.5283,4.5283,4.5569,4.6214,4.629,4.6552,4.7264,4.7504,4.7627,4.7651,4.7846,4.8227,4.8865,4.9106,4.9472,5.0256,5.0492,5.0661,5.0874,5.0889,5.1211,5.1985,5.2114,5.2508,5.3479,5.3596,5.3782,5.4454,5.5212,5.5688,5.5808,5.5807,5.5857,5.5978,5.6024,5.5997,5.6016,5.6045,5.6054,5.602,5.6106,5.6182,5.6129,5.6155,5.6368,5.6415,5.7036,5.8094,6.0114,6.0671,6.08,5.6976,0.0,5.6605,5.6244,0.0,5.6117,5.5626,5.4488,5.4044,5.3574,5.3075,5.2682,5.2721,5.3094,5.3072,5.3286,5.3684,5.3661,5.3872,5.424,5.3834,5.3891,5.4265,5.3853,5.3445,5.3042,5.3008,5.2778,5.2404,5.237,5.2581,5.2973,5.2615,5.2615,5.2973,5.2609,5.1937,5.0998,5.0524,5.0296,5.0239,4.9098,4.8258,4.7775,0.0,0.0,0.0,0.0,0.0,0.0,0.0,0.0,0.0,0.0,0.0,4.5747,4.5753,4.5741,4.5757,4.567,4.5649,4.5642,4.5928,4.6052,4.5941,4.5931,4.631,4.714,4.7235,4.7427,4.7848,4.8282,4.8552,4.8571,4.8977,4.9449,4.9818,4.9901,5.0119,5.0523,5.0663,5.0658,5.0683,5.0688,5.0842,5.1221,5.1313,5.1511,5.2029,5.2679,5.3449,5.44,5.5244,5.57,5.549,5.5804,5.5842,5.5647,5.5841,5.6058,5.6097,5.6152,5.6175,5.6116,5.6087,5.6057,5.5921,5.585,5.5909,5.6279,5.6689,5.7651,5.9671,6.0146,6.03,5.719,5.6624,5.6605,5.6503,5.6352,5.6352,5.6281,5.6087,0.0,0.0,0.0,5.3567,5.3567,5.3697,5.3618,5.3986,5.4649,5.4586,5.494,5.5574,5.4877,5.4934,5.5569,5.4896,5.447,5.4336,5.433,5.3941,5.3275,5.3264,5.325,5.3198,5.259,5.2609,5.3179,5.2604,5.2149,5.1926,5.0882,5.0337,5.0293,4.884,4.8037,4.8037,4.6435,4.5621,4.5757,4.5618,4.5603,4.5698,4.572,4.5731,4.5761,4.5745,4.5786,4.5855,4.5877,4.5872,4.5875,4.5856,4.5893,4.6028,4.6589,4.6865,4.667,4.6769,4.7233,4.8142,4.821,4.8281,4.8435,4.902,4.9433,4.9472,5.0146,5.0594,5.0618,5.0658,5.0664,5.0688,5.0683,5.0688,5.0688,5.0688,5.0707,5.074,5.0817,5.0775,5.1049,5.2151,5.3231,5.3998,5.4738,5.5254,5.5152,5.5426,5.5687,5.5453,5.5825,5.6164,5.6197,5.6281,5.6297,5.6222,5.6274,5.6186,5.6027,5.5938,5.6172,5.6895,5.7024,5.7517,5.9031,5.9511,5.9819,5.6722,5.6605,5.6605,5.6582,5.6555,5.6557,5.6444,5.6186,5.5279,5.5168,5.5652,5.4976,5.5054,5.568,5.5554,5.5573,5.568,5.5559,5.5572,0.0,5.5552,5.5572,5.5673,5.5572,5.5124,5.4503,5.4427,5.437,5.4287,5.4216,5.4235,5.4253,5.4182,5.4143,5.4273,5.412,5.3651,5.2891,5.1297,5.0478,5.0459,4.9526,4.8994,4.8942,4.75,4.6688,4.6694,4.6112,4.5767,4.5776,4.579,4.5837,4.5959,4.5966,4.6026,4.6133,4.6159,4.6159,4.6141,4.6043,4.6253,4.6857,4.702,4.7017,4.6893,4.7444,4.8137,4.8919,4.905,4.9355,5.0026,5.0255,5.0343,5.0362,5.0547,5.0697,5.0673,5.0693,5.0702,5.0702,5.0688,5.0707,5.0707,5.0717,5.0767,5.0841,5.0875,5.0902,5.1115,5.1794,5.2424,5.2712,5.3375,5.4151,5.4719,5.5115,5.5416,5.6265,5.6263,5.6314,5.6391,5.6383,5.6428,5.6523,5.6408,5.6284,5.6212,5.604,5.6267,5.69,5.6985,5.7508,5.9007,5.9394,5.9742,5.7306,5.7247,5.6798,5.6602,5.6621,5.6616,5.656,5.643,5.6007,5.5911,5.6042,5.5709,5.5751,5.6071,5.6045,5.6013,5.6009,5.5954,5.5902,5.5913,5.585,5.5818,5.5808,5.5728,5.5511,5.5164,5.5129,5.4899,5.453,5.447,5.4239,5.3813,5.3799,5.3799,5.3785,5.3364,5.3195,5.3229,5.1916,5.0985,5.05,4.9648,4.9224,4.9293,4.8193,4.7689,4.7788,4.7037,4.6644,4.6729,4.6273,4.6251,4.6782,4.6805,4.706,4.7561,4.7604,4.7606,4.7613,4.7553,4.7662,4.7996,4.8396,4.8598,4.8521,4.8768,4.9257,5.0029,5.0116,5.024,5.0571,5.0633,5.0648,5.0648,5.0692,5.0688,5.0702,5.0757,5.0791,5.0823,5.0835,5.0848,5.0867,5.0867,5.0886,5.0952,5.1011,5.1084,5.1113,5.151,5.199,5.2397,5.3122,5.361,5.3841,5.4225,5.4473,5.4535,5.4887,5.5357,5.5747,5.5903,5.6118,5.6507,5.6506,5.6418,5.6344,5.6202,5.6314,5.6404,5.6563,5.7052,5.7974,5.885,5.9787,5.7901,5.7823,5.6964,5.6612,5.6612,5.6607,5.6619,5.6613,5.661,5.6443,5.6224,5.6225,5.6222,5.62,5.6155,5.6143,5.6138,5.611,5.6097,5.6084,5.5974,5.595,5.5938,5.5826,5.5794,5.5794,5.5794,5.5446,5.4887,5.4694,5.413,5.3383,5.3306,5.3301,5.3286,5.2916,5.2868,5.3085,5.2341,5.1496,5.0625,4.9937,4.9649,4.9699,4.9002,4.8684,4.8833,4.8095,4.7684,4.7752,4.715,4.711,4.7717,4.7795,4.8093,4.8707,4.8806,4.879,4.8797,4.8798,4.8876,4.909,4.9601,5.002,5.021,5.0149,5.0312,5.0821,5.0882,5.0852,5.0784,5.0769,5.076,5.0764,5.076,5.0763,5.0778,5.0871,5.0924,5.0919,5.0966,5.0996,5.1005,5.1005,5.1011,5.105,5.1157,5.1225,5.1255,5.1352,5.1668,5.2168,5.2847,5.3098,5.2757,5.3248,5.35,5.2976,5.362,5.4459,5.5085,5.5338,5.567,5.6371,5.6605,5.6531,5.639,5.6316,5.6369,5.6541,5.6602,5.6758,5.7616,5.8699,5.965,5.7902,5.7765,5.6964,5.6612,5.6612,5.6612,5.6611,5.6609,5.6603,5.6578,5.6544,5.6538,5.6549,5.6525,5.6371,5.6297,5.627,5.6152,5.6107,5.6107,5.6084,5.6074,5.6074,5.6057,5.6057,5.6028,5.6024,5.5913,5.5606,5.5063,5.4375,5.3654,5.3557,5.3566,5.365,5.4255,5.3893,5.2457,5.2321,5.1829,5.1017,5.0882,5.083,5.0842,5.0131,4.9759,4.9759,4.9064,4.8664,4.8677,4.8591,4.8571,4.8677,4.8678,4.8717,4.8855,4.8835,4.8797,4.8837,4.8798,4.9188,4.9889,5.0061,5.0429,5.1113,5.1206,5.1154,5.1053,5.0993,5.0978,5.0969,5.0956,5.0959,5.0953,5.0959,5.0969,5.0975,5.0978,5.0987,5.0987,5.1033,5.1005,5.1034,5.1034,5.1063,5.1163,5.1284,5.136,5.1361,5.1368,5.1413,5.1504,5.164,5.1992,5.243,5.2723,5.2975,5.3522,5.3834,5.4186,5.4675,5.5143,5.5552,5.6118,5.6605,5.658,5.6529,5.6483,5.6585,5.693,5.7142,5.7434,5.8344,5.9004,5.9495,5.744,5.7791,5.6971,5.6619,5.6617,5.6617,5.6615,5.6612,5.6609,5.6608,5.6607,5.6619,5.6612,5.6584,5.6504,5.6475,5.6472,5.6423,5.6389,5.6385,5.6278,5.6227,5.6222,5.6131,5.588,5.5469,5.5861,5.532,5.4032,5.353,5.3167,5.2937,5.3329,5.3853,5.4322,5.4286,5.3889,5.3188,5.2756,5.2356,5.1974,5.1332,5.1039,5.1084,5.0815,5.0699,5.0698,5.0014,4.9555,4.9539,4.9087,4.9047,4.9539,4.9559,4.9793,5.0262,5.034,5.034,5.034,5.034,5.0477,5.0847,5.0866,5.1042,5.1355,5.1394,5.1356,5.1253,5.1159,5.1084,5.1022,5.1005,5.1005,5.1005,5.1005,5.1008,5.1005,5.1069,5.1106,5.1128,5.1174,5.1241,5.1243,5.1243,5.1255,5.1322,5.1385,5.1393,5.1394,5.1394,5.1394,5.1394,5.1394,5.1511,5.1882,5.1941,5.2136,5.2351,5.2448,5.2762,5.3601,5.4265,5.481,5.5689,5.6195,5.6507,5.6604,5.6555,5.6629,5.6982,5.6918,5.7,5.7868,5.8192,5.8427,5.7305,5.7715,5.6973,5.6621,5.662,5.662,5.6619,5.6617,5.6615,5.6614,5.6614,5.6608,5.662,5.6614,5.6608,5.6605,5.6605,5.6605,5.6605,5.6582,5.6444,5.6246,5.6046,5.5928,5.5574,5.5143,5.5324,5.4565,5.2908,5.2758,5.2882,5.3174,5.3757,5.4242,5.4555,5.4077,5.3614,5.3148,5.2804,5.2586,5.2284,5.1776,5.1505,5.158,5.1372,5.1316,5.1392,5.0788,5.0456,5.0437,4.9852,4.9794,5.0398,5.0456,5.073,5.1297,5.1394,5.1394,5.1394,5.1394,5.1394,5.1394,5.1394,5.1394,5.1394,5.1394,5.1394,5.1389,5.1321,5.1207,5.1135,5.1118,5.1099,5.1099,5.1099,5.1118,5.1128,5.1205,5.1253,5.1278,5.1327,5.1394,5.1393,5.139,5.1389,5.1391,5.1393,5.1394,5.1394,5.1394,5.1394,5.1394,5.1394,5.1394,5.1394,5.1472,5.1394,5.1394,5.1531,5.1863,5.2469,5.3289,5.3932,5.4791,5.565,5.6177,5.6157,5.6215,5.6505,5.6539,5.6494,5.6551,5.7194,5.7346,5.7696,5.7871,5.7754,5.6953,5.6621,5.6621,5.6621,5.6621,5.6621,5.662,5.6619,5.6618,5.6614,5.6612,5.661,5.6616,5.6606,5.6606,5.6606,5.6606,5.6606,5.6543,5.6134,5.5374,5.5333,5.531,5.5204,5.4674,5.419,5.3901,5.3902,5.4355,5.5096,5.515,5.4821,5.4271,5.4116,5.3205,5.209,5.2466,5.2391,5.1785,5.2287,5.2614,5.2559,5.182,5.139,5.1394,5.1355,5.1316,5.1336,5.1199,5.1238,5.1316,5.1297,5.1336,5.1394,5.1395,5.1394,5.1395,5.1396,5.1396,5.1395,5.1397,5.1395,5.1397,5.1397,5.1397,5.1394,5.1392,5.1365,5.1362,5.1331,5.1336,5.1357,5.1363,5.1362,5.1363,5.1339,5.1371,5.1388,5.139,5.1394,5.1394,5.1394,5.1394,5.1394,5.1394,5.1394,5.1394,5.1394,5.1394,5.1394,5.1394,5.1394,5.1394,5.1394,5.1394,5.1394,5.1472,5.1609,5.2235,5.284,5.3347,5.3913,5.4752,5.5298,5.5475,5.5806,5.6215,5.6368,5.6368,5.6531,5.6814,5.7239,5.7483,5.7051,5.7031,5.6738,5.6621,5.6621,5.6621,5.6621,5.6621,5.6621,5.6621,5.662,5.6619,5.6617,5.6617,5.6609,5.6605,5.6604,5.6619,5.6616,5.6537,5.6029,5.5893,5.6031,5.504,5.4789,5.52,5.4984,5.4848,5.4829,5.4829,5.4985,5.5355,5.5858,5.5699,5.4976,5.4834,5.4225,5.3229,5.3385,5.3366,5.3073,5.3366,5.3541,5.3463,5.2136,5.1394,5.1394,5.1394,5.1394,5.1394,5.1394,5.1394,5.1394,5.1394,5.1397,5.1384,5.1385,5.1387,5.1391,5.1391,5.1392,5.1391,5.1391,5.1391,5.1391,5.1391,5.1392,5.1391,5.1391,5.1391,5.1389,5.1402,5.1394,5.1394,5.1394,5.1395,5.1394,5.1394,5.1394,5.1394,5.1394,5.1394,5.1394,5.1394,5.1394,5.1394,5.1394,5.1394,5.1394,5.1394,5.1394,5.1394,5.1394,5.1394,5.1394,5.1394,5.1394,5.1394,5.1433,5.1472,5.1863,5.243,5.2957,5.3113,5.3874,5.4478,5.4674,5.481,5.5337,5.5728,5.5786,5.6177,5.6488,5.6847,5.6895,5.6621,5.6621,5.6621,5.6621,5.6621,5.6621,5.6621,5.6621,5.6621,5.6621,5.6621,5.662,5.662,5.662,5.6618,5.6617,5.6617,5.661,5.6605,5.6566,5.598,5.5746,5.5552,5.454,5.4308,5.4855,5.5187,5.5304,5.5305,5.5305,5.5461,5.5773,5.6334,5.6156,5.5453,5.5293,5.4861,5.4196,5.4274,5.4294,5.4098,5.4294,5.4118,5.3512,5.2419,5.1811,5.1825,5.1554,5.1399,5.14,5.1403,5.1384,5.1384,5.1384,5.1387,5.1392,5.1393,5.1395,5.1398,5.1398,5.1398,5.1398,5.1398,5.1398,5.1398,5.1398,5.1398,5.1398,5.1398,5.1398,5.1397,5.1391,5.1384,5.1384,5.1384,5.1403,5.14,5.14,5.1398,5.1395,5.1394,5.1394,5.1394,5.1394,5.1394,5.1394,5.1394,5.1394,5.1394,5.1394,5.1394,5.1394,5.1394,5.1394,5.1394,5.1394,5.1394,5.1394,5.1394,5.1394,5.1492,5.2039,5.2352,5.2488,5.2879,5.3502,5.3834,5.3932,5.4283,5.4772,5.528,5.569,5.604,5.6411,5.6543,5.6601,5.6582,5.6601,5.6601,5.6601,5.6601,5.6621,5.6621,5.6621,5.6621,5.6621,5.6621,5.6621,5.6621,5.6621,5.6621,5.6601,5.6519,5.6456,5.6437,5.626,5.5421,5.425,5.3997,5.4017,5.4291,5.4934,5.5305,5.5404,5.5365,5.5696,5.6418,5.6535,5.6164,5.5305,5.5265,5.4894,5.4425,5.4835,5.4835,5.4231,5.4874,5.458,5.3194,5.2804,5.272,5.2686,5.1854,5.1389,5.139,5.1395,5.1398,5.1397,5.1397,5.1398,5.1398,5.1398,5.1398,5.1399,5.14,5.14,5.14,5.1399,5.14,5.1401,5.14,5.14,5.14,5.14,5.1399,5.14,5.1399,5.1398,5.1398,5.1396,5.1395,5.1391,5.1389,5.1386,5.1398,5.1395,5.1394,5.1394,5.1394,5.1394,5.1394,5.1394,5.1394,5.1394,5.1394,5.1394,5.1394,5.1394,5.1394,5.1394,5.1394,5.1394,5.1394,5.1394,5.1394,5.1394,5.1726,5.1765,5.1902,5.2176,5.2761,5.3073,5.319,5.3502,5.3971,5.4557,5.5124,5.5612,5.6001,5.6372,5.6401,5.6407,5.6497,5.6526,5.6529,5.658,5.6621,5.6601,5.6621,5.6621,5.6621,5.6621,5.6621,5.6621,5.6621,5.6601,5.6562,5.6034,5.5701,5.5524,5.4527,5.4078,5.3942,5.3416,5.3749,5.4765,5.5155,5.5625,5.5996,5.5605,5.5741,5.6444,5.6618,5.6129,5.5368,5.5287,5.511,5.4973,5.5149,5.5149,5.4973,5.5754,5.5617,5.4582,5.3938,5.3584,5.3522,5.2196,5.1435,5.1396,5.1397,5.1398,5.1399,5.1398,5.14,5.1383,5.1384,5.1385,5.1387,5.1387,5.1387,5.1387,5.1387,5.1386,5.1386,5.1387,5.1387,5.1387,5.1387,5.1386,5.1386,5.1386,5.1384,5.1399,5.1398,5.1398,5.1396,5.1393,5.1389,5.1385,5.1399,5.1394,5.1394,5.1394,5.1394,5.1394,5.1394,5.1394,5.1394,5.1394,5.1394,5.1394,5.1394,5.1394,5.1394,5.1394,5.1394,5.1394,5.1394,5.1394,5.1394,5.1394,5.1394,5.1472,5.1746,5.198,5.2273,5.2585,5.2936,5.3073,5.3484,5.4206,5.5045,5.5592,5.5981,5.631,5.6316,5.6402,5.6419,5.6424,5.6476,5.6484,5.6507,5.6555,5.6577,5.6562,5.6582,5.6621,5.6621,5.6621,5.6406,5.6074,5.5508,5.4941,5.4472,5.41,5.3827,5.4042,5.3847,5.4141,5.5176,5.5625,5.6055,5.6543,5.6094,5.6055,5.6523,5.6621,5.6366,5.582,5.5779,5.5778,5.5778,5.5798,5.5778,5.5895,5.6325,5.6188,5.5368,5.4763,5.4177,5.3532,5.2419,5.1734,5.146,5.1402,5.1384,5.1384,5.1384,5.1384,5.1386,5.1386,5.1386,5.1387,5.1387,5.1387,5.1387,5.1387,5.1387,5.1387,5.1387,5.1387,5.1387,5.1387,5.1387,5.1387,5.1387,5.1387,5.1384,5.1384,5.1402,5.1401,5.1397,5.1394,5.1392,5.1386,5.1402,5.14,5.1395,5.1394,5.1394,5.1394,5.1394,5.1394,5.1394,5.1394,5.1394,5.1394,5.1394,5.1394,5.1394,5.1394,5.1394,5.1394,5.1394,5.1394,5.1394,5.1394,5.1394,5.157,5.1609,5.1863,5.2195,5.2527,5.2547,5.2723,5.3718,5.4694,5.5182,5.5631,5.627,5.6294,5.6301,5.6303,5.6303,5.632,5.6311,5.6332,5.6424,5.6484,5.6513,5.6556,5.6601,5.6601,5.6601,5.625,5.5508,5.5351,5.4609,5.4004,5.4316,5.4785,5.4336,5.4746,5.5156,5.5566,5.6074,5.6445,5.6582,5.6367,5.6543,5.6582,5.6601,5.6601,5.6484,5.6562,5.6504,5.6484,5.6504,5.6504,5.6523,5.6562,5.6269,5.5469,5.5273,5.457,5.3418,5.2812,5.2226,5.1522,5.1387,5.1387,5.1387,5.1387,5.1387,5.1387,5.1387,5.1387,5.1387,5.1387,5.1387,5.1387,5.1387,5.1387,5.1387,5.1387,5.1387,5.1387,5.1387,5.1387,5.1387,5.1387,5.1387,5.1387,5.1387,5.1387,5.1385,5.1402,5.1399,5.1398,5.1394,5.139,5.1389,5.1403,5.1398,5.1396,5.1395,5.1394,5.1394,5.1394,5.1394,5.1394,5.1394,5.1394,5.1394,5.1394,5.1394,5.1394,5.1394,5.1394,5.1394,5.1394,5.1394,5.1394,5.1394,5.1394,5.1492,5.1863,5.2118,5.2254,5.2781,5.3639,5.4381,5.5006,5.5553,5.6079,5.6078,5.6188,5.6227,5.6244,5.6276,5.6308,5.6312,5.633,5.6361,5.6379,5.6467,5.6523,5.6526,5.6582,5.6445,5.6074,5.5586,5.5176,5.4765,5.5,5.5215,5.5,5.5176,5.5625,5.6113,5.5879,5.5957,5.6504,5.6055,5.6055,5.6601,5.6621,5.6621,5.6621,5.6621,5.6621,5.6621,5.6621,5.6621,5.6621,5.6621,5.6523,5.6269,5.5664,5.5117,5.4473,5.3359,5.2305,5.1484,5.1387,5.1387,5.1406,5.1426,5.1445,5.1387,5.1387,5.1387,5.1387,5.1387,5.1387,5.1387,5.1387,5.1387,5.1387,5.1387,5.1387,5.1387,5.1387,5.1387,5.1387,5.1387,5.1387,5.1387,5.1387,5.1387,5.1387,5.1386,5.1384,5.1384,5.14,5.1397,5.1395,5.1391,5.1386,5.1385,5.14,5.1394,5.1394,5.1394,5.1394,5.1394,5.1394,5.1394,5.1394,5.1394,5.1394,5.1394,5.1394,5.1394,5.1394,5.1394,5.1394,5.1394,5.1394,5.1394,5.1414,5.159,5.1765,5.2059,5.2703,5.3502,5.4518,5.528,5.5709,5.6002,5.6016,5.6083,5.6101,5.6112,5.6136,5.619,5.6182,5.6228,5.6266,5.6288,5.6365,5.6395,5.6401,5.6445,5.623,5.5933,5.5796,5.5137,5.418,5.4473,5.5078,5.5547,5.5566,5.5742,5.6406,5.5723,5.584,5.6387,5.6055,5.6172,5.6523,5.6621,5.6621,5.6621,5.6621,5.6621,5.6621,5.6621,5.6621,5.6621,5.6621,5.6601,5.6523,5.6035,5.5625,5.4726,5.3398,5.2305,5.168,5.1699,5.1797,5.1484,5.1777,5.1777,5.1465,5.1387,5.1387,5.1387,5.1387,5.1387,5.1387,5.1387,5.1387,5.1387,5.1387,5.1387,5.1387,5.1387,5.1387,5.1387,5.1387,5.1387,5.1387,5.1387,5.1387,5.1387,5.1387,5.1386,5.1387,5.1384,5.1401,5.1401,5.1397,5.1393,5.139,5.1385,5.14,5.1396,5.1395,5.1394,5.1394,5.1394,5.1394,5.1394,5.1394,5.1394,5.1394,5.1394,5.1394,5.1394,5.1394,5.1394,5.1394,5.1394,5.1394,5.1414,5.1531,5.1863,5.2254,5.2762,5.3445,5.446,5.5475,5.5903,5.5998,5.5999,5.6008,5.6008,5.6016,5.6012,5.6031,5.6031,5.6119,5.6175,5.6184,5.6251,5.6292,5.6297,5.6309,5.5909,5.5303,5.5946,5.4843,5.4047,5.4063,5.5035,5.5683,5.5488,5.5547,5.5957,5.5527,5.5762,5.6211,5.6387,5.6562,5.6621,5.6621,5.6621,5.6621,5.6621,5.6621,5.6621,5.6621,5.6621,5.6621,5.6621,5.6621,5.6582,5.6543,5.5742,5.4531,5.3359,5.25,5.1582,5.2305,5.2226,5.1738,5.2344,5.2187,5.1582,5.1387,5.1387,5.1445,5.1523,5.1601,5.1641,5.1621,5.1523,5.1601,5.1543,5.1387,5.1387,5.1387,5.1387,5.1387,5.1387,5.1387,5.1387,5.1387,5.1387,5.1387,5.1387,5.1387,5.1387,5.1387,5.1386,5.1385,5.1402,5.1398,5.1397,5.1393,5.1385,5.14,5.1396,5.1395,5.1394,5.1394,5.1394,5.1394,5.1394,5.1394,5.1394,5.1394,5.1394,5.1394,5.1394,5.1394,5.1394,5.1394,5.1394,5.1414,5.1629,5.1902,5.2448,5.2975,5.36,5.4342,5.5396,5.6079,5.5947,5.5993,5.601,5.6008,5.6008,5.6008,5.6008,5.6012,5.6031,5.6044,5.6052,5.6162,5.6196,5.6202,5.62,5.6173,5.5844,5.5981,5.5548,5.4814,5.5367,5.5041,5.4909,5.4911,5.5039,5.4941,5.5176,5.543,5.5742,5.6328,5.6621,5.6621,5.6621,5.6621,5.6621,5.6621,5.6621,5.6621,5.6621,5.6621,5.6621,5.6621,5.6621,5.6621,5.6621,5.6094,5.5117,5.418,5.332,5.2715,5.2598,5.2656,5.2461,5.2598,5.2363,5.1719,5.1426,5.1387,5.1504,5.1933,5.2402,5.2324,5.2305,5.2422,5.2363,5.1777,5.1484,5.1387,5.1387,5.1387,5.1387,5.1387,5.1387,5.1387,5.1387,5.1387,5.1387,5.1387,5.1387,5.1387,5.1387,5.1387,5.1387,5.1386,5.1384,5.1402,5.1398,5.1391,5.1385,5.14,5.1398,5.1398,5.1394,5.1394,5.1394,5.1394,5.1394,5.1394,5.1394,5.1394,5.1394,5.1394,5.1394,5.1394,5.1394,5.1394,5.1414,5.1472,5.1687,5.2429,5.3132,5.3776,5.4459,5.5435,5.6157,5.5948,5.5999,5.601,5.6008,5.6008,5.6008,5.6008,5.6008,5.6008,5.6008,5.5909,5.5711,5.5741,5.6055,5.5764,5.5585,5.5358,5.4701,5.4616,5.4688,5.504,5.4519,5.4116,5.4318,5.449,5.4522,5.5,5.5426,5.5937,5.6289,5.6621,5.6621,5.6621,5.6621,5.6621,5.6621,5.6621,5.6621,5.6621,5.6621,5.6621,5.6621,5.6621,5.6621,5.6562,5.6191,5.5293,5.4883,5.418,5.3555,5.332,5.3105,5.2891,5.3066,5.2832,5.2168,5.1562,5.1426,5.1562,5.1816,5.2226,5.2695,5.2715,5.2695,5.2656,5.2226,5.1816,5.1523,5.1387,5.1387,5.1387,5.1387,5.1387,5.1387,5.1387,5.1387,5.1387,5.1387,5.1387,5.1387,5.1387,5.1387,5.1387,5.1387,5.1386,5.1384,5.1384,5.1399,5.1393,5.1389,5.1385,5.1383,5.1397,5.1395,5.1394,5.1394,5.1394,5.1394,5.1394,5.1394,5.1394,5.1394,5.1394,5.1394,5.1394,5.1394,5.1414,5.1453,5.1492,5.1921,5.2624,5.36,5.4459,5.5142,5.5864,5.5847,5.5816,5.5928,5.593,5.5853,5.593,5.6008,5.6008,5.6008,5.6008,5.5853,5.5161,5.5244,5.5518,5.4946,5.4628,5.4249,5.3491,5.3527,5.4065,5.398,5.3538,5.3326,5.3592,5.4034,5.4787,5.4836,5.5306,5.5811,5.6445,5.6562,5.6601,5.6621,5.6621,5.6621,5.6621,5.6621,5.6621,5.6621,5.6621,5.6621,5.6621,5.6621,5.6621,5.6582,5.6308,5.5703,5.5332,5.4922,5.4277,5.4219,5.3808,5.3457,5.332,5.3398,5.25,5.1738,5.1445,5.1523,5.1797,5.2344,5.2891,5.3125,5.3164,5.3203,5.2832,5.2305,5.1855,5.1562,5.1387,5.1387,5.1387,5.1387,5.1387,5.1387,5.1387,5.1387,5.1387,5.1387,5.1387,5.1387,5.1387,5.1387,5.1387,5.1387,5.1386,5.1385,5.1384,5.14,5.1396,5.1392,5.1388,5.1384,5.1396,5.1395,5.1394,5.1394,5.1394,5.1394,5.1394,5.1394,5.1394,5.1394,5.1394,5.1394,5.1394,5.1394,5.1414,5.1472,5.157,5.2312,5.3502,5.4244,5.4811,5.5571,5.548,5.4896,5.5683,5.5625,5.5161,5.5718,5.5988,5.6008,5.595,5.5988,5.5814,5.5137,5.4735,5.4755,5.4097,5.3734,5.3579,5.308,5.2883,5.3061,5.3085,5.2944,5.2167,5.2928,5.3272,5.3155,5.3652,5.4307,5.4851,5.5658,5.6442,5.6545,5.6579,5.6601,5.6601,5.6621,5.6621,5.6621,5.6621,5.6621,5.6621,5.6621,5.6621,5.6621,5.6621,5.6484,5.625,5.5683,5.5215,5.5098,5.5098,5.4902,5.4297,5.3476,5.2715,5.2187,5.166,5.1406,5.1621,5.2656,5.3398,5.3926,5.4121,5.459,5.4375,5.3516,5.2637,5.2226,5.1719,5.1387,5.1387,5.1387,5.1387,5.1387,5.1387,5.1387,5.1387,5.1387,5.1387,5.1387,5.1387,5.1387,5.1387,5.1387,5.1387,5.1387,5.1386,5.1386,5.1384,5.1401,5.1396,5.1393,5.1389,5.1402,5.1396,5.1394,5.1394,5.1394,5.1394,5.1394,5.1394,5.1394,5.1394,5.1394,5.1394,5.1394,5.1394,5.1394,5.1414,5.1472,5.2448,5.3522,5.4049,5.4596,5.5454,5.5398,5.4713,5.562,5.5548,5.5026,5.5659,5.5756,5.5393,5.5369,5.5122,5.4561,5.3865,5.3734,5.3792,5.3212,5.2844,5.2767,5.2298,5.2163,5.2225,5.2573,5.2515,5.1563,5.2535,5.2225,5.2228,5.2919,5.3977,5.4492,5.5743,5.6361,5.6509,5.6528,5.6558,5.6582,5.6621,5.6601,5.6601,5.6601,5.6601,5.6601,5.6601,5.6601,5.6621,5.6621,5.6621,5.6523,5.6308,5.5488,5.4805,5.4629,5.4141,5.3516,5.3144,5.293,5.3008,5.2148,5.1641,5.1855,5.2637,5.2695,5.3281,5.3828,5.418,5.4199,5.3457,5.2598,5.2051,5.1816,5.1387,5.1387,5.1387,5.1387,5.1387,5.1387,5.1387,5.1387,5.1387,5.1387,5.1387,5.1387,5.1387,5.1387,5.1387,5.1387,5.1387,5.1387,5.1387,5.1387,5.1385,5.1401,5.1398,5.1394,5.1385,5.1398,5.1395,5.1394,5.1394,5.1394,5.1394,5.1394,5.1394,5.1394,5.1394,5.1394,5.1394,5.1394,5.1394,5.1394,5.1511,5.2429,5.3269,5.3815,5.4459,5.5396,5.5215,5.4689,5.5592,5.5539,5.4987,5.5659,5.5548,5.4909,5.4832,5.4368,5.3444,5.2709,5.2651,5.2863,5.2418,5.1916,5.1873,5.1211,5.1385,5.1738,5.1912,5.1916,5.1954,5.207,5.1962,5.1862,5.3112,5.4065,5.4564,5.5721,5.6264,5.6393,5.6439,5.647,5.6523,5.6523,5.6543,5.6538,5.6538,5.6538,5.656,5.6561,5.6581,5.6601,5.6621,5.6621,5.6601,5.625,5.5586,5.4707,5.4121,5.3476,5.2324,5.2422,5.3418,5.4355,5.2812,5.2344,5.2285,5.2207,5.2324,5.2812,5.3125,5.3652,5.3867,5.3652,5.2637,5.168,5.1387,5.1387,5.1387,5.1387,5.1387,5.1387,5.1387,5.1387,5.1387,5.1387,5.1387,5.1387,5.1387,5.1387,5.1387,5.1387,5.1387,5.1387,5.1387,5.1387,5.1387,5.1387,5.1385,5.1402,5.1398,5.1389,5.1402,5.1396,5.1395,5.1394,5.1394,5.1394,5.1394,5.1394,5.1394,5.1394,5.1394,5.1394,5.1394,5.1472,5.1609,5.1902,5.2488,5.3113,5.3795,5.4713,5.5728,5.4627,5.4651,5.5594,5.5547,5.4944,5.5606,5.5509,5.4793,5.4677,5.4291,5.3227,5.2573,5.2206,5.2124,5.1501,5.1134,5.1057,5.1037,5.1018,5.1211,5.1192,5.125,5.1289,5.1896,5.2186,5.2264,5.3749,5.409,5.4438,5.5524,5.6173,5.6261,5.6316,5.6319,5.6387,5.6394,5.634,5.6345,5.6328,5.6395,5.649,5.6496,5.6531,5.6582,5.6543,5.6562,5.6465,5.6015,5.5273,5.5039,5.4336,5.3945,5.3594,5.2969,5.3262,5.3574,5.3223,5.2578,5.2637,5.2383,5.2246,5.2754,5.3711,5.4765,5.4648,5.4121,5.3066,5.1543,5.1406,5.1387,5.1387,5.1387,5.1387,5.1387,5.1387,5.1387,5.1387,5.1387,5.1387,5.1387,5.1387,5.1387,5.1387,5.1387,5.1387,5.1387,5.1387,5.1387,5.1387,5.1387,5.1387,5.1384,5.1402,5.1395,5.1386,5.1401,5.1397,5.1395,5.1394,5.1394,5.1394,5.1394,5.1394,5.1394,5.1394,5.1394,5.1394,5.1531,5.1804,5.2313,5.2937,5.3424,5.3932,5.4947,5.6079,5.3388,5.3937,5.4922,5.4834,5.4233,5.4948,5.4832,5.4058,5.3517,5.284,5.2082,5.166,5.1447,5.1405,5.1018,5.0917,5.0898,5.0898,5.0898,5.0898,5.0937,5.1173,5.166,5.2051,5.236,5.3212,5.4039,5.4581,5.4734,5.5316,5.6117,5.6197,5.6214,5.6264,5.6283,5.6306,5.6312,5.6314,5.6316,5.633,5.6374,5.6405,5.643,5.6511,5.6082,5.6167,5.625,5.5762,5.5019,5.4765,5.4492,5.3926,5.3164,5.2969,5.3516,5.3105,5.2949,5.2695,5.2656,5.2246,5.207,5.2226,5.3144,5.3867,5.4277,5.4199,5.3535,5.2285,5.166,5.1426,5.1387,5.1387,5.1387,5.1387,5.1387,5.1387,5.1387,5.1387,5.1387,5.1387,5.1387,5.1387,5.1387,5.1387,5.1387,5.1387,5.1387,5.1387,5.1387,5.1387,5.1387,5.1385,5.1383,5.1399,5.1393,5.1386,5.1401,5.1398,5.1394,5.1394,5.1394,5.1394,5.1394,5.1394,5.1394,5.1394,5.1394,5.1531,5.1746,5.2526,5.3385,5.3951,5.4537,5.5435,5.6352,5.2415,5.3088,5.4046,5.4069,5.3579,5.4213,5.3962,5.3134,5.2554,5.1738,5.1076,5.0937,5.0937,5.0898,5.0917,5.0898,5.0898,5.0898,5.0898,5.0898,5.1018,5.1409,5.1993,5.2399,5.3037,5.3846,5.4755,5.5103,5.5316,5.5685,5.6075,5.6156,5.613,5.6168,5.62,5.6211,5.62,5.62,5.6206,5.623,5.6266,5.6293,5.6192,5.602,5.579,5.5707,5.5985,5.5351,5.4492,5.4297,5.3848,5.3027,5.2031,5.2422,5.2754,5.2461,5.2246,5.2266,5.2129,5.1836,5.1465,5.1738,5.2383,5.3516,5.3574,5.3769,5.3418,5.2285,5.1777,5.1445,5.1387,5.1387,5.1387,5.1387,5.1387,5.1387,5.1387,5.1387,5.1387,5.1387,5.1387,5.1387,5.1387,5.1387,5.1387,5.1387,5.1387,5.1387,5.1387,5.1387,5.1387,5.1387,5.1385,5.1402,5.1399,5.1393,5.1389,5.1401,5.1396,5.1394,5.1394,5.1394,5.1394,5.1394,5.1394,5.1394,5.1394,5.1511,5.1746,5.2839,5.3834,5.4556,5.5279,5.6098,5.6528,5.2115,5.2254,5.3123,5.346,5.344,5.3556,5.3095,5.2418,5.2225,5.166,5.0979,5.0898,5.0898,5.0898,5.0898,5.0898,5.0898,5.0898,5.0898,5.0898,5.0979,5.1428,5.2148,5.2941,5.3772,5.4619,5.5335,5.5737,5.5892,5.5834,5.602,5.601,5.6036,5.6035,5.6044,5.6079,5.6071,5.6067,5.6067,5.6119,5.6181,5.6125,5.5886,5.5461,5.5716,5.5896,5.5141,5.4387,5.4024,5.3843,5.311,5.2239,5.1738,5.1953,5.207,5.1816,5.1699,5.1777,5.1777,5.166,5.1465,5.1875,5.2637,5.3418,5.334,5.3691,5.3125,5.1992,5.1641,5.1426,5.1387,5.1387,5.1387,5.1387,5.1387,5.1387,5.1387,5.1387,5.1387,5.1387,5.1387,5.1387,5.1387,5.1387,5.1387,5.1387,5.1387,5.1387,5.1387,5.1387,5.1387,5.1387,5.1387,5.1385,5.1384,5.14,5.1392,5.1385,5.1399,5.1396,5.1394,5.1394,5.1394,5.1394,5.1394,5.1394,5.1394,5.1472,5.1941,5.3268,5.4244,5.4752,5.5513,5.6332,5.6585,5.1331,5.14,5.1727,5.2186,5.2689,5.2689,5.2515,5.2128,5.1641,5.125,5.0898,5.0898,5.0898,5.0898,5.0898,5.0898,5.0898,5.0898,5.0898,5.0898,5.0999,5.1428,5.2221,5.3095,5.3942,5.4813,5.5582,5.6008,5.5969,5.6008,5.6008,5.6008,5.6008,5.6012,5.6008,5.6008,5.6008,5.6008,5.6008,5.6039,5.6059,5.604,5.5703,5.5075,5.4461,5.4891,5.4749,5.3688,5.3576,5.3559,5.3149,5.2438,5.1719,5.1914,5.1894,5.1601,5.1543,5.1738,5.2012,5.1836,5.1621,5.2207,5.2832,5.3301,5.334,5.3437,5.3047,5.2285,5.166,5.1426,5.1426,5.1406,5.1387,5.1387,5.1484,5.1562,5.1562,5.166,5.1621,5.1699,5.1523,5.1387,5.1387,5.1387,5.1387,5.1387,5.1387,5.1387,5.1387,5.1387,5.1387,5.1387,5.1387,5.1387,5.1385,5.1401,5.1395,5.1389,5.1403,5.1398,5.1395,5.1394,5.1394,5.1394,5.1394,5.1394,5.1394,5.1394,5.2136,5.3463,5.4225,5.4713,5.557,5.6527,5.6605,5.0977,5.1232,5.1292,5.1641,5.2148,5.1912,5.197,5.2012,5.1293,5.0898,5.0898,5.0898,5.0898,5.0898,5.0898,5.0898,5.0898,5.0898,5.0898,5.0898,5.0999,5.1428,5.2221,5.3095,5.3962,5.4813,5.5563,5.6008,5.6008,5.6008,5.6008,5.6008,5.6008,5.6008,5.6008,5.6008,5.6008,5.6008,5.6008,5.6008,5.5997,5.5982,5.5353,5.473,5.4229,5.4222,5.4273,5.3617,5.3439,5.371,5.3658,5.3103,5.2558,5.2246,5.2422,5.2226,5.2031,5.2226,5.2637,5.2695,5.2461,5.3027,5.3516,5.3808,5.3711,5.3418,5.3164,5.2598,5.1933,5.1504,5.166,5.1875,5.1933,5.2031,5.25,5.2617,5.2344,5.2285,5.2129,5.2051,5.1875,5.1777,5.1387,5.1406,5.1426,5.1426,5.1387,5.1387,5.1387,5.1387,5.1387,5.1387,5.1387,5.1387,5.1386,5.1384,5.1399,5.1394,5.1389,5.1401,5.1397,5.1395,5.1394,5.1394,5.1394,5.1394,5.1414,5.1453,5.2429,5.3678,5.4497,5.5395,5.5766,5.6605,5.6605,5.1286,5.2039,5.2112,5.2167,5.2264,5.1308,5.1447,5.1916,5.1269,5.0898,5.0898,5.0898,5.0898,5.0898,5.0898,5.0898,5.0898,5.0898,5.0898,5.0898,5.0917,5.1424,5.2163,5.2995,5.3865,5.4774,5.5543,5.6008,5.6008,5.6008,5.6008,5.6008,5.6008,5.6008,5.6008,5.6008,5.6008,5.6008,5.6008,5.6008,5.6008,5.5988,5.5221,5.4428,5.4382,5.443,5.4088,5.3745,5.367,5.4079,5.3984,5.3412,5.2715,5.2734,5.3027,5.3418,5.293,5.3144,5.3828,5.3887,5.3945,5.3828,5.4082,5.4394,5.4101,5.3828,5.3594,5.3008,5.2266,5.2109,5.2344,5.2656,5.2676,5.2812,5.3281,5.3379,5.3086,5.2969,5.2832,5.2422,5.2422,5.2363,5.1758,5.1406,5.1465,5.1445,5.1406,5.1406,5.1426,5.1387,5.1387,5.1387,5.1387,5.1387,5.1387,5.1387,5.1384,5.1399,5.1393,5.1386,5.1399,5.1396,5.1395,5.1394,5.1433,5.1472,5.1492,5.1531,5.2819,5.4127,5.5473,5.6332,5.6566,5.6605,5.6605,5.1387,5.2166,5.2178,5.2883,5.3614,5.2356,5.1641,5.1331,5.1037,5.0917,5.0898,5.0898,5.0898,5.0898,5.0898,5.0898,5.0898,5.0898,5.0898,5.0898,5.0898,5.1018,5.1699,5.2705,5.3614,5.4233,5.5122,5.595,5.6008,5.5988,5.6008,5.6008,5.6008,5.6008,5.6008,5.6008,5.6008,5.6008,5.6008,5.6008,5.6008,5.5935,5.5475,5.4372,5.4643,5.4626,5.4364,5.4035,5.4101,5.4496,5.4379,5.3652,5.3086,5.3066,5.3379,5.3535,5.3144,5.3984,5.4785,5.5176,5.5078,5.4668,5.4394,5.457,5.4043,5.3984,5.3769,5.3613,5.3183,5.3183,5.3496,5.3555,5.3555,5.3574,5.3808,5.3808,5.3672,5.3691,5.3574,5.291,5.2637,5.2383,5.1914,5.1992,5.2051,5.1933,5.1914,5.1621,5.1543,5.1445,5.1387,5.1387,5.1387,5.1387,5.1387,5.1387,5.1385,5.1403,5.1397,5.1389,5.1384,5.1476,5.1493,5.155,5.155,5.155,5.198,5.2507,5.3424,5.4615,5.5785,5.6527,5.6605,5.6605,5.6605,5.1585,5.2589,5.2322,5.3212,5.4426,5.325,5.2163,5.1505,5.1618,5.1501,5.1053,5.1173,5.1153,5.0995,5.0898,5.0898,5.0898,5.0898,5.0898,5.0898,5.0898,5.096,5.1424,5.2279,5.2863,5.3536,5.4619,5.5563,5.5543,5.5872,5.5988,5.6008,5.6008,5.6008,5.6008,5.6008,5.6008,5.6008,5.6008,5.6008,5.601,5.5919,5.5668,5.5009,5.4828,5.4834,5.4775,5.4652,5.4507,5.4898,5.4707,5.4023,5.3613,5.3281,5.3633,5.3711,5.4433,5.5156,5.5781,5.6094,5.582,5.5254,5.4902,5.4902,5.4785,5.4746,5.457,5.4414,5.4258,5.4297,5.4375,5.4394,5.4355,5.4375,5.4609,5.4629,5.4238,5.4258,5.459,5.3867,5.332,5.2871,5.2402,5.2578,5.2793,5.2617,5.2441,5.209,5.1699,5.1523,5.1406,5.1387,5.1387,5.1387,5.1387,5.1387,5.1386,5.1385,5.1401,5.1413,5.1679,5.1811,5.1749,5.1668,5.1648,5.1902,5.2781,5.3542,5.4322,5.5005,5.5785,5.6332,5.6546,5.6605,5.6605,5.1894,5.3227,5.2554,5.3192,5.4484,5.3869,5.3057,5.2322,5.3018,5.243,5.1057,5.1757,5.1525,5.0975,5.0898,5.0898,5.0898,5.0898,5.0898,5.0898,5.0898,5.0937,5.1289,5.1935,5.2515,5.3018,5.3923,5.5084,5.4948,5.5659,5.5988,5.6008,5.6008,5.6008,5.6008,5.6008,5.6008,5.6008,5.6008,5.601,5.604,5.6108,5.5764,5.5303,5.5142,5.5179,5.5169,5.5145,5.5204,5.5351,5.5332,5.4746,5.4082,5.3262,5.4062,5.498,5.6055,5.6289,5.6426,5.6562,5.6543,5.6113,5.6152,5.6426,5.6191,5.5527,5.5195,5.5098,5.498,5.5098,5.5176,5.5137,5.5078,5.5371,5.5742,5.543,5.4863,5.498,5.5488,5.5273,5.4785,5.4277,5.3633,5.3574,5.3457,5.3183,5.2949,5.2558,5.2129,5.1562,5.1445,5.1387,5.1387,5.1387,5.1387,5.1387,5.1386,5.1386,5.1423,5.1476,5.1801,5.195,5.1771,5.1651,5.1727,5.2214,5.3151,5.4148,5.5124,5.5708,5.598,5.6312,5.6605,5.6605,5.6605,5.1552,5.2515,5.2283,5.3212,5.4639,5.4523,5.3927,5.3192,5.2825,5.2186,5.1819,5.1405,5.1231,5.0898,5.0898,5.0898,5.0898,5.0898,5.0898,5.0898,5.0917,5.1312,5.166,5.2012,5.2515,5.3231,5.4039,5.4677,5.489,5.5543,5.595,5.6008,5.6008,5.6008,5.6008,5.6008,5.5969,5.595,5.595,5.5965,5.6059,5.6142,5.5853,5.5675,5.5669,5.5722,5.5779,5.5823,5.5941,5.6113,5.6191,5.5605,5.4082,5.4824,5.5957,5.6074,5.6484,5.6601,5.6621,5.6621,5.6621,5.6426,5.6055,5.6152,5.6113,5.5976,5.5566,5.5371,5.5644,5.5801,5.5781,5.5742,5.5664,5.582,5.6113,5.5957,5.5488,5.5664,5.6113,5.5762,5.5332,5.5019,5.4453,5.4297,5.4121,5.3808,5.3457,5.3047,5.25,5.1894,5.1484,5.1406,5.1387,5.1387,5.1387,5.1387,5.1387,5.1406,5.1424,5.1479,5.167,5.1761,5.1657,5.1868,5.2332,5.2897,5.36,5.4654,5.5806,5.5747,5.5962,5.6332,5.6605,5.6605,5.6605,5.1409,5.209,5.1815,5.2492,5.3691,5.414,5.3947,5.3444,5.2941,5.2418,5.1718,5.154,5.1211,5.0917,5.0898,5.0898,5.0898,5.0898,5.0898,5.0898,5.0898,5.1153,5.1544,5.1757,5.1873,5.2743,5.3517,5.3985,5.4329,5.5041,5.5563,5.6008,5.6008,5.6008,5.6008,5.5969,5.576,5.5737,5.5735,5.5792,5.5842,5.597,5.599,5.5791,5.5925,5.615,5.6236,5.6249,5.639,5.6445,5.6406,5.5703,5.4609,5.5527,5.5996,5.6035,5.6426,5.6543,5.6621,5.6621,5.6621,5.6289,5.5547,5.5625,5.5859,5.5898,5.5488,5.5234,5.5957,5.6465,5.6387,5.6308,5.6191,5.6094,5.623,5.6387,5.6367,5.6406,5.6211,5.5879,5.5605,5.5351,5.5117,5.5,5.4941,5.4883,5.4355,5.3574,5.2891,5.209,5.1641,5.1406,5.1387,5.1387,5.1426,5.1484,5.1504,5.1504,5.1405,5.1481,5.1634,5.1667,5.1678,5.2336,5.319,5.3737,5.4244,5.5415,5.6372,5.6216,5.6079,5.639,5.6605,5.6605,5.6605,5.1347,5.2012,5.1308,5.1602,5.2283,5.3076,5.3386,5.3362,5.3115,5.2453,5.1385,5.1738,5.1525,5.0979,5.0898,5.0898,5.0898,5.0898,5.0898,5.0898,5.0898,5.1095,5.125,5.1037,5.1579,5.183,5.255,5.3772,5.342,5.4213,5.5369,5.595,5.6008,5.6008,5.6008,5.6008,5.5795,5.5543,5.5668,5.576,5.5296,5.543,5.5675,5.5168,5.5442,5.5905,5.6049,5.6163,5.6269,5.6172,5.5879,5.5371,5.5508,5.5332,5.541,5.5762,5.6328,5.6523,5.6621,5.6621,5.6465,5.5937,5.5039,5.4902,5.5,5.5254,5.4902,5.5449,5.6191,5.6387,5.6348,5.6406,5.6367,5.6289,5.6328,5.6348,5.6308,5.6406,5.6445,5.6211,5.6152,5.5937,5.5937,5.582,5.5488,5.5723,5.5293,5.4277,5.3476,5.2578,5.1992,5.1601,5.1445,5.1504,5.1699,5.1758,5.1719,5.1641,5.168,5.2048,5.2591,5.2291,5.1717,5.2864,5.4088,5.44,5.4986,5.6001,5.6585,5.6527,5.6449,5.6546,5.6605,5.6605,5.6605,5.1018,5.1269,5.1699,5.2032,5.2206,5.2418,5.2515,5.2438,5.1796,5.1699,5.1776,5.1424,5.1153,5.096,5.0898,5.0898,5.0898,5.0898,5.0898,5.0898,5.0898,5.1173,5.1563,5.125,5.1637,5.2647,5.344,5.385,5.4445,5.4871,5.5122,5.5834,5.5834,5.5737,5.5892,5.5892,5.5718,5.5427,5.5586,5.5528,5.5058,5.4443,5.4236,5.442,5.4866,5.4933,5.4984,5.4892,5.5558,5.6074,5.5664,5.5723,5.623,5.5664,5.5723,5.6191,5.6445,5.6562,5.6621,5.6543,5.6348,5.5586,5.4687,5.4043,5.3848,5.4141,5.4687,5.5527,5.6152,5.625,5.6308,5.6426,5.6543,5.6465,5.6406,5.6328,5.623,5.6406,5.6601,5.6621,5.6621,5.6621,5.6621,5.6465,5.6191,5.5859,5.5488,5.4824,5.4219,5.3437,5.2617,5.2148,5.1621,5.1621,5.1973,5.2246,5.2324,5.2519,5.2676,5.3086,5.3535,5.3363,5.3157,5.4072,5.5006,5.5181,5.5493,5.6156,5.6585,5.6605,5.6605,5.6605,5.6605,5.6605,5.6605,5.0898,5.0979,5.1428,5.1621,5.1621,5.1621,5.1621,5.1525,5.1115,5.1153,5.1525,5.1153,5.0898,5.0898,5.0898,5.0898,5.0898,5.0898,5.0898,5.0898,5.0937,5.1134,5.1308,5.1505,5.195,5.2805,5.2999,5.3575,5.5026,5.4252,5.3923,5.4813,5.4967,5.52,5.5412,5.549,5.5543,5.5427,5.5543,5.53,5.4887,5.446,5.3991,5.4204,5.4306,5.441,5.4749,5.4822,5.5618,5.6257,5.6074,5.6113,5.6387,5.6172,5.6191,5.6426,5.6582,5.6621,5.6621,5.6504,5.6191,5.5351,5.4512,5.3906,5.3828,5.4082,5.3808,5.4648,5.6113,5.6406,5.6113,5.6113,5.6445,5.6543,5.6523,5.6484,5.6465,5.6523,5.6621,5.6621,5.6621,5.6621,5.6621,5.6601,5.6348,5.6191,5.5781,5.5371,5.4785,5.4433,5.3594,5.3027,5.2715,5.2598,5.3047,5.3183,5.3164,5.3379,5.3652,5.373,5.3958,5.4336,5.4733,5.5006,5.5337,5.5708,5.6098,5.6429,5.6585,5.6605,5.6605,5.6605,5.6605,5.6605,5.6605,5.0898,5.0898,5.0917,5.0917,5.0898,5.0917,5.0937,5.0937,5.0898,5.0898,5.0979,5.0941,5.0898,5.0898,5.0898,5.0898,5.0898,5.0898,5.0898,5.0898,5.0898,5.1033,5.1327,5.1718,5.2244,5.2535,5.2728,5.3463,5.4523,5.3598,5.3212,5.3463,5.3826,5.4194,5.4639,5.4967,5.52,5.5296,5.5292,5.5137,5.4933,5.4755,5.4272,5.4133,5.423,5.4676,5.509,5.5407,5.5966,5.6195,5.6172,5.6191,5.6348,5.6308,5.6504,5.6621,5.6621,5.6621,5.6621,5.6601,5.6074,5.5371,5.4531,5.4101,5.4023,5.3926,5.3672,5.4336,5.5781,5.6406,5.6113,5.6035,5.6406,5.6621,5.6621,5.6621,5.6621,5.6621,5.6621,5.6621,5.6621,5.6621,5.6621,5.6621,5.6523,5.6387,5.6152,5.5762,5.541,5.5273,5.4824,5.457,5.4433,5.4375,5.4258,5.3945,5.3828,5.4394,5.4629,5.4433,5.4447,5.5078,5.532,5.5064,5.5414,5.5981,5.6157,5.6332,5.6468,5.6605,5.6605,5.6605,5.6605,5.6605,5.6605,5.0898,5.0898,5.0898,5.0898,5.0898,5.0898,5.0898,5.0898,5.0898,5.0898,5.0898,5.0898,5.0898,5.0898,5.0898,5.0898,5.0898,5.0898,5.0898,5.0898,5.0898,5.0898,5.1153,5.1776,5.2554,5.2883,5.3057,5.3424,5.3656,5.3328,5.325,5.3405,5.4909,5.5103,5.4813,5.5161,5.5543,5.5563,5.564,5.5621,5.5258,5.4929,5.431,5.4097,5.4005,5.4385,5.4579,5.4309,5.4736,5.5165,5.5644,5.5742,5.5976,5.6328,5.6543,5.6621,5.6621,5.6621,5.6621,5.6465,5.5918,5.5215,5.4512,5.4199,5.4238,5.4453,5.4433,5.4726,5.5859,5.6465,5.6387,5.6387,5.6621,5.6621,5.6621,5.6621,5.6621,5.6621,5.6621,5.6621,5.6621,5.6621,5.6621,5.6621,5.6601,5.6504,5.6504,5.6152,5.6113,5.6035,5.5898,5.584,5.5781,5.5586,5.5195,5.457,5.4473,5.5137,5.5586,5.5371,5.55,5.6073,5.6161,5.5747,5.5883,5.6371,5.6468,5.6371,5.6468,5.6605,5.6605,5.6605,5.6605,5.6605,5.6605]}]]